<?xml version="1.0" encoding="UTF-8" standalone="no" ?>
<gpx xmlns="http://www.topografix.com/GPX/1/1" xmlns:xsi="http://www.w3.org/2001/XMLSchema-instance" xsi:schemaLocation="http://www.topografix.com/GPX/1/1 http://www.topografix.com/GPX/1/1/gpx.xsd" version="1.1" creator="VisuGPX - https://www.visugpx.com">
  <metadata>
    <name>Muela del Diablo</name>
    <desc><![CDATA[grp_trc:2025 10 21 Muela del Diablo]]></desc>
  </metadata>
  <trk>
    <name><![CDATA[2025 10 21 Muela del Diablo]]></name>
    <cmt><![CDATA[11:25:46]]></cmt>
    <desc><![CDATA[comment ...]]></desc>
    <trkseg>
      <trkpt lat="-16.55323" lon="-68.05206">
        <ele>3662</ele>
        <time>2025-10-21T15:25:45Z</time>
      </trkpt>
      <trkpt lat="-16.5532" lon="-68.05205">
        <ele>3662</ele>
        <time>2025-10-21T15:25:47Z</time>
      </trkpt>
      <trkpt lat="-16.55321" lon="-68.052">
        <ele>3662</ele>
        <time>2025-10-21T15:25:53Z</time>
      </trkpt>
      <trkpt lat="-16.55324" lon="-68.05193">
        <ele>3662</ele>
        <time>2025-10-21T15:26:11Z</time>
      </trkpt>
      <trkpt lat="-16.55324" lon="-68.05185">
        <ele>3663</ele>
        <time>2025-10-21T15:26:21Z</time>
      </trkpt>
      <trkpt lat="-16.55325" lon="-68.05181">
        <ele>3663</ele>
        <time>2025-10-21T15:26:25Z</time>
      </trkpt>
      <trkpt lat="-16.55325" lon="-68.05177">
        <ele>3663</ele>
        <time>2025-10-21T15:26:31Z</time>
      </trkpt>
      <trkpt lat="-16.55327" lon="-68.05174">
        <ele>3663</ele>
        <time>2025-10-21T15:26:37Z</time>
      </trkpt>
      <trkpt lat="-16.55329" lon="-68.05171">
        <ele>3664</ele>
        <time>2025-10-21T15:26:41Z</time>
      </trkpt>
      <trkpt lat="-16.55329" lon="-68.05154">
        <ele>3665</ele>
        <time>2025-10-21T15:27:01Z</time>
      </trkpt>
      <trkpt lat="-16.55329" lon="-68.0515">
        <ele>3665</ele>
        <time>2025-10-21T15:27:07Z</time>
      </trkpt>
      <trkpt lat="-16.5533" lon="-68.05146">
        <ele>3666</ele>
        <time>2025-10-21T15:27:11Z</time>
      </trkpt>
      <trkpt lat="-16.55331" lon="-68.05143">
        <ele>3666</ele>
        <time>2025-10-21T15:27:17Z</time>
      </trkpt>
      <trkpt lat="-16.55331" lon="-68.05138">
        <ele>3666</ele>
        <time>2025-10-21T15:27:23Z</time>
      </trkpt>
      <trkpt lat="-16.55332" lon="-68.05135">
        <ele>3667</ele>
        <time>2025-10-21T15:27:27Z</time>
      </trkpt>
      <trkpt lat="-16.55333" lon="-68.05131">
        <ele>3668</ele>
        <time>2025-10-21T15:27:31Z</time>
      </trkpt>
      <trkpt lat="-16.55333" lon="-68.05127">
        <ele>3668</ele>
        <time>2025-10-21T15:27:35Z</time>
      </trkpt>
      <trkpt lat="-16.55337" lon="-68.05119">
        <ele>3670</ele>
        <time>2025-10-21T15:27:53Z</time>
      </trkpt>
      <trkpt lat="-16.5534" lon="-68.05112">
        <ele>3671</ele>
        <time>2025-10-21T15:28:07Z</time>
      </trkpt>
      <trkpt lat="-16.55351" lon="-68.051">
        <ele>3673</ele>
        <time>2025-10-21T15:28:31Z</time>
      </trkpt>
      <trkpt lat="-16.55353" lon="-68.05097">
        <ele>3674</ele>
        <time>2025-10-21T15:28:37Z</time>
      </trkpt>
      <trkpt lat="-16.55363" lon="-68.05088">
        <ele>3675</ele>
        <time>2025-10-21T15:28:57Z</time>
      </trkpt>
      <trkpt lat="-16.55379" lon="-68.0508">
        <ele>3676</ele>
        <time>2025-10-21T15:29:21Z</time>
      </trkpt>
      <trkpt lat="-16.55383" lon="-68.0508">
        <ele>3676</ele>
        <time>2025-10-21T15:29:27Z</time>
      </trkpt>
      <trkpt lat="-16.55391" lon="-68.05081">
        <ele>3676</ele>
        <time>2025-10-21T15:29:39Z</time>
      </trkpt>
      <trkpt lat="-16.55395" lon="-68.05081">
        <ele>3677</ele>
        <time>2025-10-21T15:29:45Z</time>
      </trkpt>
      <trkpt lat="-16.55398" lon="-68.05077">
        <ele>3677</ele>
        <time>2025-10-21T15:29:51Z</time>
      </trkpt>
      <trkpt lat="-16.55403" lon="-68.05077">
        <ele>3678</ele>
        <time>2025-10-21T15:29:59Z</time>
      </trkpt>
      <trkpt lat="-16.55406" lon="-68.05081">
        <ele>3679</ele>
        <time>2025-10-21T15:30:03Z</time>
      </trkpt>
      <trkpt lat="-16.55413" lon="-68.0508">
        <ele>3681</ele>
        <time>2025-10-21T15:30:11Z</time>
      </trkpt>
      <trkpt lat="-16.55437" lon="-68.05077">
        <ele>3685</ele>
        <time>2025-10-21T15:30:37Z</time>
      </trkpt>
      <trkpt lat="-16.55462" lon="-68.05069">
        <ele>3686</ele>
        <time>2025-10-21T15:31:05Z</time>
      </trkpt>
      <trkpt lat="-16.55473" lon="-68.05065">
        <ele>3688</ele>
        <time>2025-10-21T15:31:17Z</time>
      </trkpt>
      <trkpt lat="-16.55488" lon="-68.05058">
        <ele>3690</ele>
        <time>2025-10-21T15:31:37Z</time>
      </trkpt>
      <trkpt lat="-16.55495" lon="-68.05054">
        <ele>3690</ele>
        <time>2025-10-21T15:31:47Z</time>
      </trkpt>
      <trkpt lat="-16.55495" lon="-68.05049">
        <ele>3691</ele>
        <time>2025-10-21T15:31:53Z</time>
      </trkpt>
      <trkpt lat="-16.55492" lon="-68.05048">
        <ele>3692</ele>
        <time>2025-10-21T15:31:57Z</time>
      </trkpt>
      <trkpt lat="-16.55489" lon="-68.05044">
        <ele>3698</ele>
        <time>2025-10-21T15:32:03Z</time>
      </trkpt>
      <trkpt lat="-16.55486" lon="-68.05046">
        <ele>3705</ele>
        <time>2025-10-21T15:32:19Z</time>
      </trkpt>
      <trkpt lat="-16.55489" lon="-68.05048">
        <ele>3713</ele>
        <time>2025-10-21T15:32:35Z</time>
      </trkpt>
      <trkpt lat="-16.55494" lon="-68.05047">
        <ele>3715</ele>
        <time>2025-10-21T15:32:39Z</time>
      </trkpt>
      <trkpt lat="-16.55498" lon="-68.05047">
        <ele>3723</ele>
        <time>2025-10-21T15:32:43Z</time>
      </trkpt>
      <trkpt lat="-16.55503" lon="-68.05045">
        <ele>3726</ele>
        <time>2025-10-21T15:32:47Z</time>
      </trkpt>
      <trkpt lat="-16.55508" lon="-68.05045">
        <ele>3726</ele>
        <time>2025-10-21T15:32:51Z</time>
      </trkpt>
      <trkpt lat="-16.55513" lon="-68.05044">
        <ele>3724</ele>
        <time>2025-10-21T15:32:55Z</time>
      </trkpt>
      <trkpt lat="-16.55518" lon="-68.05043">
        <ele>3722</ele>
        <time>2025-10-21T15:32:59Z</time>
      </trkpt>
      <trkpt lat="-16.55523" lon="-68.05042">
        <ele>3719</ele>
        <time>2025-10-21T15:33:05Z</time>
      </trkpt>
      <trkpt lat="-16.55528" lon="-68.0504">
        <ele>3718</ele>
        <time>2025-10-21T15:33:09Z</time>
      </trkpt>
      <trkpt lat="-16.55532" lon="-68.0504">
        <ele>3715</ele>
        <time>2025-10-21T15:33:13Z</time>
      </trkpt>
      <trkpt lat="-16.55536" lon="-68.05041">
        <ele>3714</ele>
        <time>2025-10-21T15:33:17Z</time>
      </trkpt>
      <trkpt lat="-16.5554" lon="-68.05041">
        <ele>3713</ele>
        <time>2025-10-21T15:33:21Z</time>
      </trkpt>
      <trkpt lat="-16.55547" lon="-68.05042">
        <ele>3714</ele>
        <time>2025-10-21T15:34:07Z</time>
      </trkpt>
      <trkpt lat="-16.55554" lon="-68.05027">
        <ele>3705</ele>
        <time>2025-10-21T15:34:09Z</time>
      </trkpt>
      <trkpt lat="-16.55557" lon="-68.05036">
        <ele>3703</ele>
        <time>2025-10-21T15:34:13Z</time>
      </trkpt>
      <trkpt lat="-16.55563" lon="-68.05045">
        <ele>3704</ele>
        <time>2025-10-21T15:34:21Z</time>
      </trkpt>
      <trkpt lat="-16.55566" lon="-68.05047">
        <ele>3706</ele>
        <time>2025-10-21T15:34:27Z</time>
      </trkpt>
      <trkpt lat="-16.5557" lon="-68.05048">
        <ele>3707</ele>
        <time>2025-10-21T15:34:33Z</time>
      </trkpt>
      <trkpt lat="-16.55574" lon="-68.05046">
        <ele>3707</ele>
        <time>2025-10-21T15:34:39Z</time>
      </trkpt>
      <trkpt lat="-16.55583" lon="-68.0505">
        <ele>3708</ele>
        <time>2025-10-21T15:34:53Z</time>
      </trkpt>
      <trkpt lat="-16.55592" lon="-68.05053">
        <ele>3707</ele>
        <time>2025-10-21T15:35:07Z</time>
      </trkpt>
      <trkpt lat="-16.55601" lon="-68.05048">
        <ele>3706</ele>
        <time>2025-10-21T15:35:25Z</time>
      </trkpt>
      <trkpt lat="-16.55613" lon="-68.05045">
        <ele>3706</ele>
        <time>2025-10-21T15:35:36Z</time>
      </trkpt>
      <trkpt lat="-16.55615" lon="-68.05034">
        <ele>3713</ele>
        <time>2025-10-21T15:35:39Z</time>
      </trkpt>
      <trkpt lat="-16.55618" lon="-68.05041">
        <ele>3718</ele>
        <time>2025-10-21T15:35:48Z</time>
      </trkpt>
      <trkpt lat="-16.55625" lon="-68.05048">
        <ele>3721</ele>
        <time>2025-10-21T15:35:56Z</time>
      </trkpt>
      <trkpt lat="-16.55628" lon="-68.05045">
        <ele>3720</ele>
        <time>2025-10-21T15:36:02Z</time>
      </trkpt>
      <trkpt lat="-16.55631" lon="-68.0504">
        <ele>3719</ele>
        <time>2025-10-21T15:36:06Z</time>
      </trkpt>
      <trkpt lat="-16.55639" lon="-68.0504">
        <ele>3720</ele>
        <time>2025-10-21T15:36:20Z</time>
      </trkpt>
      <trkpt lat="-16.55651" lon="-68.05043">
        <ele>3724</ele>
        <time>2025-10-21T15:36:42Z</time>
      </trkpt>
      <trkpt lat="-16.5566" lon="-68.05053">
        <ele>3725</ele>
        <time>2025-10-21T15:37:04Z</time>
      </trkpt>
      <trkpt lat="-16.55664" lon="-68.05054">
        <ele>3725</ele>
        <time>2025-10-21T15:37:10Z</time>
      </trkpt>
      <trkpt lat="-16.55668" lon="-68.05053">
        <ele>3726</ele>
        <time>2025-10-21T15:37:16Z</time>
      </trkpt>
      <trkpt lat="-16.55669" lon="-68.05051">
        <ele>3726</ele>
        <time>2025-10-21T15:37:26Z</time>
      </trkpt>
      <trkpt lat="-16.55677" lon="-68.05048">
        <ele>3725</ele>
        <time>2025-10-21T15:37:34Z</time>
      </trkpt>
      <trkpt lat="-16.55681" lon="-68.05045">
        <ele>3725</ele>
        <time>2025-10-21T15:37:38Z</time>
      </trkpt>
      <trkpt lat="-16.55694" lon="-68.05035">
        <ele>3728</ele>
        <time>2025-10-21T15:38:03Z</time>
      </trkpt>
      <trkpt lat="-16.55707" lon="-68.05035">
        <ele>3730</ele>
        <time>2025-10-21T15:38:21Z</time>
      </trkpt>
      <trkpt lat="-16.55711" lon="-68.05034">
        <ele>3731</ele>
        <time>2025-10-21T15:38:27Z</time>
      </trkpt>
      <trkpt lat="-16.55714" lon="-68.05032">
        <ele>3731</ele>
        <time>2025-10-21T15:38:33Z</time>
      </trkpt>
      <trkpt lat="-16.55716" lon="-68.05027">
        <ele>3731</ele>
        <time>2025-10-21T15:38:39Z</time>
      </trkpt>
      <trkpt lat="-16.55712" lon="-68.05018">
        <ele>3731</ele>
        <time>2025-10-21T15:38:49Z</time>
      </trkpt>
      <trkpt lat="-16.55706" lon="-68.05012">
        <ele>3733</ele>
        <time>2025-10-21T15:38:57Z</time>
      </trkpt>
      <trkpt lat="-16.55691" lon="-68.05005">
        <ele>3735</ele>
        <time>2025-10-21T15:39:21Z</time>
      </trkpt>
      <trkpt lat="-16.55688" lon="-68.05005">
        <ele>3736</ele>
        <time>2025-10-21T15:39:27Z</time>
      </trkpt>
      <trkpt lat="-16.55684" lon="-68.05005">
        <ele>3737</ele>
        <time>2025-10-21T15:39:35Z</time>
      </trkpt>
      <trkpt lat="-16.55679" lon="-68.05005">
        <ele>3738</ele>
        <time>2025-10-21T15:39:43Z</time>
      </trkpt>
      <trkpt lat="-16.55661" lon="-68.0501">
        <ele>3741</ele>
        <time>2025-10-21T15:40:13Z</time>
      </trkpt>
      <trkpt lat="-16.55653" lon="-68.05012">
        <ele>3742</ele>
        <time>2025-10-21T15:40:25Z</time>
      </trkpt>
      <trkpt lat="-16.55651" lon="-68.05015">
        <ele>3743</ele>
        <time>2025-10-21T15:40:33Z</time>
      </trkpt>
      <trkpt lat="-16.55646" lon="-68.05016">
        <ele>3744</ele>
        <time>2025-10-21T15:40:43Z</time>
      </trkpt>
      <trkpt lat="-16.55634" lon="-68.05018">
        <ele>3746</ele>
        <time>2025-10-21T15:40:59Z</time>
      </trkpt>
      <trkpt lat="-16.5563" lon="-68.05017">
        <ele>3747</ele>
        <time>2025-10-21T15:41:05Z</time>
      </trkpt>
      <trkpt lat="-16.55627" lon="-68.05015">
        <ele>3747</ele>
        <time>2025-10-21T15:41:11Z</time>
      </trkpt>
      <trkpt lat="-16.55625" lon="-68.05012">
        <ele>3749</ele>
        <time>2025-10-21T15:41:17Z</time>
      </trkpt>
      <trkpt lat="-16.55624" lon="-68.05004">
        <ele>3751</ele>
        <time>2025-10-21T15:41:29Z</time>
      </trkpt>
      <trkpt lat="-16.55627" lon="-68.05001">
        <ele>3751</ele>
        <time>2025-10-21T15:41:35Z</time>
      </trkpt>
      <trkpt lat="-16.55633" lon="-68.04994">
        <ele>3751</ele>
        <time>2025-10-21T15:41:47Z</time>
      </trkpt>
      <trkpt lat="-16.55635" lon="-68.0499">
        <ele>3752</ele>
        <time>2025-10-21T15:41:53Z</time>
      </trkpt>
      <trkpt lat="-16.5565" lon="-68.04973">
        <ele>3756</ele>
        <time>2025-10-21T15:42:27Z</time>
      </trkpt>
      <trkpt lat="-16.55663" lon="-68.04959">
        <ele>3761</ele>
        <time>2025-10-21T15:42:57Z</time>
      </trkpt>
      <trkpt lat="-16.55664" lon="-68.04955">
        <ele>3761</ele>
        <time>2025-10-21T15:43:03Z</time>
      </trkpt>
      <trkpt lat="-16.55667" lon="-68.04953">
        <ele>3762</ele>
        <time>2025-10-21T15:43:09Z</time>
      </trkpt>
      <trkpt lat="-16.55673" lon="-68.04947">
        <ele>3764</ele>
        <time>2025-10-21T15:43:21Z</time>
      </trkpt>
      <trkpt lat="-16.55676" lon="-68.04944">
        <ele>3766</ele>
        <time>2025-10-21T15:43:27Z</time>
      </trkpt>
      <trkpt lat="-16.55677" lon="-68.04941">
        <ele>3766</ele>
        <time>2025-10-21T15:43:31Z</time>
      </trkpt>
      <trkpt lat="-16.55681" lon="-68.04939">
        <ele>3767</ele>
        <time>2025-10-21T15:43:39Z</time>
      </trkpt>
      <trkpt lat="-16.55685" lon="-68.04938">
        <ele>3767</ele>
        <time>2025-10-21T15:43:45Z</time>
      </trkpt>
      <trkpt lat="-16.55696" lon="-68.04941">
        <ele>3768</ele>
        <time>2025-10-21T15:44:03Z</time>
      </trkpt>
      <trkpt lat="-16.55717" lon="-68.04949">
        <ele>3767</ele>
        <time>2025-10-21T15:44:31Z</time>
      </trkpt>
      <trkpt lat="-16.55722" lon="-68.04951">
        <ele>3767</ele>
        <time>2025-10-21T15:44:37Z</time>
      </trkpt>
      <trkpt lat="-16.55731" lon="-68.04956">
        <ele>3767</ele>
        <time>2025-10-21T15:44:49Z</time>
      </trkpt>
      <trkpt lat="-16.55742" lon="-68.0496">
        <ele>3768</ele>
        <time>2025-10-21T15:45:01Z</time>
      </trkpt>
      <trkpt lat="-16.55762" lon="-68.04959">
        <ele>3767</ele>
        <time>2025-10-21T15:45:23Z</time>
      </trkpt>
      <trkpt lat="-16.55766" lon="-68.04958">
        <ele>3767</ele>
        <time>2025-10-21T15:45:27Z</time>
      </trkpt>
      <trkpt lat="-16.5577" lon="-68.04958">
        <ele>3768</ele>
        <time>2025-10-21T15:45:31Z</time>
      </trkpt>
      <trkpt lat="-16.55775" lon="-68.04957">
        <ele>3768</ele>
        <time>2025-10-21T15:45:35Z</time>
      </trkpt>
      <trkpt lat="-16.55783" lon="-68.04956">
        <ele>3770</ele>
        <time>2025-10-21T15:45:43Z</time>
      </trkpt>
      <trkpt lat="-16.55798" lon="-68.04954">
        <ele>3772</ele>
        <time>2025-10-21T15:45:59Z</time>
      </trkpt>
      <trkpt lat="-16.55825" lon="-68.04951">
        <ele>3775</ele>
        <time>2025-10-21T15:46:31Z</time>
      </trkpt>
      <trkpt lat="-16.55853" lon="-68.04946">
        <ele>3779</ele>
        <time>2025-10-21T15:47:05Z</time>
      </trkpt>
      <trkpt lat="-16.55857" lon="-68.04946">
        <ele>3780</ele>
        <time>2025-10-21T15:47:11Z</time>
      </trkpt>
      <trkpt lat="-16.55866" lon="-68.04945">
        <ele>3781</ele>
        <time>2025-10-21T15:47:21Z</time>
      </trkpt>
      <trkpt lat="-16.55875" lon="-68.04942">
        <ele>3782</ele>
        <time>2025-10-21T15:47:31Z</time>
      </trkpt>
      <trkpt lat="-16.559" lon="-68.04938">
        <ele>3787</ele>
        <time>2025-10-21T15:48:03Z</time>
      </trkpt>
      <trkpt lat="-16.55923" lon="-68.04934">
        <ele>3789</ele>
        <time>2025-10-21T15:48:31Z</time>
      </trkpt>
      <trkpt lat="-16.55926" lon="-68.04931">
        <ele>3789</ele>
        <time>2025-10-21T15:48:37Z</time>
      </trkpt>
      <trkpt lat="-16.55929" lon="-68.04929">
        <ele>3790</ele>
        <time>2025-10-21T15:48:54Z</time>
      </trkpt>
      <trkpt lat="-16.55935" lon="-68.04929">
        <ele>3791</ele>
        <time>2025-10-21T15:49:00Z</time>
      </trkpt>
      <trkpt lat="-16.55938" lon="-68.04928">
        <ele>3791</ele>
        <time>2025-10-21T15:49:04Z</time>
      </trkpt>
      <trkpt lat="-16.5596" lon="-68.0493">
        <ele>3795</ele>
        <time>2025-10-21T15:49:34Z</time>
      </trkpt>
      <trkpt lat="-16.55964" lon="-68.0493">
        <ele>3797</ele>
        <time>2025-10-21T15:49:40Z</time>
      </trkpt>
      <trkpt lat="-16.55974" lon="-68.04927">
        <ele>3798</ele>
        <time>2025-10-21T15:49:52Z</time>
      </trkpt>
      <trkpt lat="-16.55982" lon="-68.04917">
        <ele>3799</ele>
        <time>2025-10-21T15:50:10Z</time>
      </trkpt>
      <trkpt lat="-16.5598" lon="-68.04915">
        <ele>3798</ele>
        <time>2025-10-21T15:50:56Z</time>
      </trkpt>
      <trkpt lat="-16.55982" lon="-68.04911">
        <ele>3799</ele>
        <time>2025-10-21T15:51:00Z</time>
      </trkpt>
      <trkpt lat="-16.55982" lon="-68.04906">
        <ele>3799</ele>
        <time>2025-10-21T15:51:04Z</time>
      </trkpt>
      <trkpt lat="-16.55976" lon="-68.04896">
        <ele>3800</ele>
        <time>2025-10-21T15:51:10Z</time>
      </trkpt>
      <trkpt lat="-16.55973" lon="-68.04893">
        <ele>3801</ele>
        <time>2025-10-21T15:51:14Z</time>
      </trkpt>
      <trkpt lat="-16.5597" lon="-68.04891">
        <ele>3802</ele>
        <time>2025-10-21T15:51:18Z</time>
      </trkpt>
      <trkpt lat="-16.55963" lon="-68.04887">
        <ele>3804</ele>
        <time>2025-10-21T15:51:26Z</time>
      </trkpt>
      <trkpt lat="-16.5596" lon="-68.04885">
        <ele>3805</ele>
        <time>2025-10-21T15:51:30Z</time>
      </trkpt>
      <trkpt lat="-16.55953" lon="-68.04882">
        <ele>3805</ele>
        <time>2025-10-21T15:51:38Z</time>
      </trkpt>
      <trkpt lat="-16.5595" lon="-68.04882">
        <ele>3805</ele>
        <time>2025-10-21T15:51:42Z</time>
      </trkpt>
      <trkpt lat="-16.55946" lon="-68.04881">
        <ele>3806</ele>
        <time>2025-10-21T15:51:46Z</time>
      </trkpt>
      <trkpt lat="-16.55942" lon="-68.0488">
        <ele>3806</ele>
        <time>2025-10-21T15:51:50Z</time>
      </trkpt>
      <trkpt lat="-16.55938" lon="-68.04879">
        <ele>3806</ele>
        <time>2025-10-21T15:51:54Z</time>
      </trkpt>
      <trkpt lat="-16.55935" lon="-68.04876">
        <ele>3807</ele>
        <time>2025-10-21T15:51:58Z</time>
      </trkpt>
      <trkpt lat="-16.55923" lon="-68.04874">
        <ele>3810</ele>
        <time>2025-10-21T15:52:10Z</time>
      </trkpt>
      <trkpt lat="-16.5592" lon="-68.04873">
        <ele>3810</ele>
        <time>2025-10-21T15:52:14Z</time>
      </trkpt>
      <trkpt lat="-16.55916" lon="-68.04872">
        <ele>3810</ele>
        <time>2025-10-21T15:52:18Z</time>
      </trkpt>
      <trkpt lat="-16.55913" lon="-68.0487">
        <ele>3810</ele>
        <time>2025-10-21T15:52:22Z</time>
      </trkpt>
      <trkpt lat="-16.5591" lon="-68.04867">
        <ele>3810</ele>
        <time>2025-10-21T15:52:26Z</time>
      </trkpt>
      <trkpt lat="-16.55909" lon="-68.04863">
        <ele>3810</ele>
        <time>2025-10-21T15:52:32Z</time>
      </trkpt>
      <trkpt lat="-16.55908" lon="-68.04853">
        <ele>3812</ele>
        <time>2025-10-21T15:52:42Z</time>
      </trkpt>
      <trkpt lat="-16.5591" lon="-68.0485">
        <ele>3813</ele>
        <time>2025-10-21T15:52:46Z</time>
      </trkpt>
      <trkpt lat="-16.55913" lon="-68.04847">
        <ele>3814</ele>
        <time>2025-10-21T15:52:50Z</time>
      </trkpt>
      <trkpt lat="-16.55922" lon="-68.04848">
        <ele>3816</ele>
        <time>2025-10-21T15:53:00Z</time>
      </trkpt>
      <trkpt lat="-16.55946" lon="-68.04846">
        <ele>3820</ele>
        <time>2025-10-21T15:53:28Z</time>
      </trkpt>
      <trkpt lat="-16.5595" lon="-68.04845">
        <ele>3820</ele>
        <time>2025-10-21T15:53:34Z</time>
      </trkpt>
      <trkpt lat="-16.55953" lon="-68.04844">
        <ele>3821</ele>
        <time>2025-10-21T15:53:40Z</time>
      </trkpt>
      <trkpt lat="-16.55957" lon="-68.04846">
        <ele>3821</ele>
        <time>2025-10-21T15:54:46Z</time>
      </trkpt>
      <trkpt lat="-16.55959" lon="-68.0485">
        <ele>3822</ele>
        <time>2025-10-21T15:54:52Z</time>
      </trkpt>
      <trkpt lat="-16.55961" lon="-68.04853">
        <ele>3824</ele>
        <time>2025-10-21T15:55:16Z</time>
      </trkpt>
      <trkpt lat="-16.55969" lon="-68.04855">
        <ele>3825</ele>
        <time>2025-10-21T15:55:30Z</time>
      </trkpt>
      <trkpt lat="-16.55972" lon="-68.04858">
        <ele>3824</ele>
        <time>2025-10-21T15:56:34Z</time>
      </trkpt>
      <trkpt lat="-16.55975" lon="-68.04856">
        <ele>3824</ele>
        <time>2025-10-21T15:57:30Z</time>
      </trkpt>
      <trkpt lat="-16.55984" lon="-68.04865">
        <ele>3824</ele>
        <time>2025-10-21T15:57:46Z</time>
      </trkpt>
      <trkpt lat="-16.55995" lon="-68.0487">
        <ele>3822</ele>
        <time>2025-10-21T15:57:58Z</time>
      </trkpt>
      <trkpt lat="-16.56001" lon="-68.04877">
        <ele>3822</ele>
        <time>2025-10-21T15:58:06Z</time>
      </trkpt>
      <trkpt lat="-16.56006" lon="-68.04888">
        <ele>3821</ele>
        <time>2025-10-21T15:58:18Z</time>
      </trkpt>
      <trkpt lat="-16.56008" lon="-68.04892">
        <ele>3821</ele>
        <time>2025-10-21T15:58:22Z</time>
      </trkpt>
      <trkpt lat="-16.56007" lon="-68.04892">
        <ele>3822</ele>
        <time>2025-10-21T15:58:38Z</time>
      </trkpt>
      <trkpt lat="-16.56001" lon="-68.0487">
        <ele>3821</ele>
        <time>2025-10-21T15:58:58Z</time>
      </trkpt>
      <trkpt lat="-16.55998" lon="-68.04867">
        <ele>3822</ele>
        <time>2025-10-21T15:59:02Z</time>
      </trkpt>
      <trkpt lat="-16.55988" lon="-68.04864">
        <ele>3821</ele>
        <time>2025-10-21T15:59:10Z</time>
      </trkpt>
      <trkpt lat="-16.55985" lon="-68.04863">
        <ele>3822</ele>
        <time>2025-10-21T15:59:14Z</time>
      </trkpt>
      <trkpt lat="-16.55981" lon="-68.04861">
        <ele>3822</ele>
        <time>2025-10-21T15:59:18Z</time>
      </trkpt>
      <trkpt lat="-16.55974" lon="-68.04856">
        <ele>3823</ele>
        <time>2025-10-21T15:59:26Z</time>
      </trkpt>
      <trkpt lat="-16.55969" lon="-68.04855">
        <ele>3823</ele>
        <time>2025-10-21T15:59:30Z</time>
      </trkpt>
      <trkpt lat="-16.55962" lon="-68.0485">
        <ele>3824</ele>
        <time>2025-10-21T15:59:38Z</time>
      </trkpt>
      <trkpt lat="-16.55958" lon="-68.04848">
        <ele>3824</ele>
        <time>2025-10-21T15:59:44Z</time>
      </trkpt>
      <trkpt lat="-16.55957" lon="-68.04844">
        <ele>3824</ele>
        <time>2025-10-21T15:59:50Z</time>
      </trkpt>
      <trkpt lat="-16.55957" lon="-68.0484">
        <ele>3824</ele>
        <time>2025-10-21T15:59:54Z</time>
      </trkpt>
      <trkpt lat="-16.55945" lon="-68.04844">
        <ele>3823</ele>
        <time>2025-10-21T16:00:08Z</time>
      </trkpt>
      <trkpt lat="-16.55917" lon="-68.04847">
        <ele>3820</ele>
        <time>2025-10-21T16:00:36Z</time>
      </trkpt>
      <trkpt lat="-16.55913" lon="-68.04848">
        <ele>3819</ele>
        <time>2025-10-21T16:00:40Z</time>
      </trkpt>
      <trkpt lat="-16.55909" lon="-68.04851">
        <ele>3818</ele>
        <time>2025-10-21T16:00:44Z</time>
      </trkpt>
      <trkpt lat="-16.55907" lon="-68.04856">
        <ele>3818</ele>
        <time>2025-10-21T16:00:48Z</time>
      </trkpt>
      <trkpt lat="-16.55907" lon="-68.0486">
        <ele>3817</ele>
        <time>2025-10-21T16:00:52Z</time>
      </trkpt>
      <trkpt lat="-16.55908" lon="-68.04865">
        <ele>3817</ele>
        <time>2025-10-21T16:00:56Z</time>
      </trkpt>
      <trkpt lat="-16.55913" lon="-68.04872">
        <ele>3816</ele>
        <time>2025-10-21T16:01:04Z</time>
      </trkpt>
      <trkpt lat="-16.55921" lon="-68.04875">
        <ele>3815</ele>
        <time>2025-10-21T16:01:12Z</time>
      </trkpt>
      <trkpt lat="-16.55926" lon="-68.04876">
        <ele>3813</ele>
        <time>2025-10-21T16:01:16Z</time>
      </trkpt>
      <trkpt lat="-16.5593" lon="-68.04876">
        <ele>3812</ele>
        <time>2025-10-21T16:01:20Z</time>
      </trkpt>
      <trkpt lat="-16.55935" lon="-68.04876">
        <ele>3811</ele>
        <time>2025-10-21T16:01:24Z</time>
      </trkpt>
      <trkpt lat="-16.55944" lon="-68.04879">
        <ele>3808</ele>
        <time>2025-10-21T16:01:32Z</time>
      </trkpt>
      <trkpt lat="-16.55965" lon="-68.04888">
        <ele>3808</ele>
        <time>2025-10-21T16:01:52Z</time>
      </trkpt>
      <trkpt lat="-16.55974" lon="-68.04897">
        <ele>3806</ele>
        <time>2025-10-21T16:02:04Z</time>
      </trkpt>
      <trkpt lat="-16.55979" lon="-68.04911">
        <ele>3805</ele>
        <time>2025-10-21T16:02:16Z</time>
      </trkpt>
      <trkpt lat="-16.55979" lon="-68.04915">
        <ele>3804</ele>
        <time>2025-10-21T16:02:20Z</time>
      </trkpt>
      <trkpt lat="-16.55977" lon="-68.0492">
        <ele>3802</ele>
        <time>2025-10-21T16:02:24Z</time>
      </trkpt>
      <trkpt lat="-16.55974" lon="-68.04923">
        <ele>3802</ele>
        <time>2025-10-21T16:02:28Z</time>
      </trkpt>
      <trkpt lat="-16.55962" lon="-68.04927">
        <ele>3801</ele>
        <time>2025-10-21T16:02:40Z</time>
      </trkpt>
      <trkpt lat="-16.55928" lon="-68.04929">
        <ele>3795</ele>
        <time>2025-10-21T16:03:12Z</time>
      </trkpt>
      <trkpt lat="-16.55893" lon="-68.04935">
        <ele>3791</ele>
        <time>2025-10-21T16:03:44Z</time>
      </trkpt>
      <trkpt lat="-16.55881" lon="-68.04938">
        <ele>3789</ele>
        <time>2025-10-21T16:03:56Z</time>
      </trkpt>
      <trkpt lat="-16.55876" lon="-68.04939">
        <ele>3788</ele>
        <time>2025-10-21T16:04:00Z</time>
      </trkpt>
      <trkpt lat="-16.55872" lon="-68.04939">
        <ele>3788</ele>
        <time>2025-10-21T16:04:04Z</time>
      </trkpt>
      <trkpt lat="-16.55867" lon="-68.04941">
        <ele>3788</ele>
        <time>2025-10-21T16:04:08Z</time>
      </trkpt>
      <trkpt lat="-16.55862" lon="-68.04941">
        <ele>3788</ele>
        <time>2025-10-21T16:04:12Z</time>
      </trkpt>
      <trkpt lat="-16.55854" lon="-68.04941">
        <ele>3786</ele>
        <time>2025-10-21T16:04:20Z</time>
      </trkpt>
      <trkpt lat="-16.55845" lon="-68.04943">
        <ele>3784</ele>
        <time>2025-10-21T16:04:28Z</time>
      </trkpt>
      <trkpt lat="-16.55818" lon="-68.04948">
        <ele>3778</ele>
        <time>2025-10-21T16:04:52Z</time>
      </trkpt>
      <trkpt lat="-16.5581" lon="-68.04949">
        <ele>3777</ele>
        <time>2025-10-21T16:05:00Z</time>
      </trkpt>
      <trkpt lat="-16.55801" lon="-68.0495">
        <ele>3775</ele>
        <time>2025-10-21T16:05:08Z</time>
      </trkpt>
      <trkpt lat="-16.55796" lon="-68.0495">
        <ele>3774</ele>
        <time>2025-10-21T16:05:12Z</time>
      </trkpt>
      <trkpt lat="-16.55791" lon="-68.0495">
        <ele>3774</ele>
        <time>2025-10-21T16:05:16Z</time>
      </trkpt>
      <trkpt lat="-16.55777" lon="-68.0495">
        <ele>3770</ele>
        <time>2025-10-21T16:05:28Z</time>
      </trkpt>
      <trkpt lat="-16.5575" lon="-68.04954">
        <ele>3768</ele>
        <time>2025-10-21T16:05:52Z</time>
      </trkpt>
      <trkpt lat="-16.55737" lon="-68.04954">
        <ele>3766</ele>
        <time>2025-10-21T16:06:04Z</time>
      </trkpt>
      <trkpt lat="-16.55733" lon="-68.04953">
        <ele>3765</ele>
        <time>2025-10-21T16:06:08Z</time>
      </trkpt>
      <trkpt lat="-16.55729" lon="-68.0495">
        <ele>3764</ele>
        <time>2025-10-21T16:06:12Z</time>
      </trkpt>
      <trkpt lat="-16.55713" lon="-68.04942">
        <ele>3765</ele>
        <time>2025-10-21T16:06:28Z</time>
      </trkpt>
      <trkpt lat="-16.55709" lon="-68.0494">
        <ele>3766</ele>
        <time>2025-10-21T16:06:32Z</time>
      </trkpt>
      <trkpt lat="-16.55691" lon="-68.04934">
        <ele>3766</ele>
        <time>2025-10-21T16:06:48Z</time>
      </trkpt>
      <trkpt lat="-16.55682" lon="-68.04936">
        <ele>3765</ele>
        <time>2025-10-21T16:06:56Z</time>
      </trkpt>
      <trkpt lat="-16.55678" lon="-68.04937">
        <ele>3764</ele>
        <time>2025-10-21T16:07:01Z</time>
      </trkpt>
      <trkpt lat="-16.55674" lon="-68.04938">
        <ele>3764</ele>
        <time>2025-10-21T16:07:05Z</time>
      </trkpt>
      <trkpt lat="-16.55668" lon="-68.04943">
        <ele>3763</ele>
        <time>2025-10-21T16:07:15Z</time>
      </trkpt>
      <trkpt lat="-16.55652" lon="-68.04965">
        <ele>3760</ele>
        <time>2025-10-21T16:07:45Z</time>
      </trkpt>
      <trkpt lat="-16.5563" lon="-68.04993">
        <ele>3751</ele>
        <time>2025-10-21T16:08:18Z</time>
      </trkpt>
      <trkpt lat="-16.55625" lon="-68.05">
        <ele>3750</ele>
        <time>2025-10-21T16:08:26Z</time>
      </trkpt>
      <trkpt lat="-16.55622" lon="-68.05013">
        <ele>3749</ele>
        <time>2025-10-21T16:08:38Z</time>
      </trkpt>
      <trkpt lat="-16.55623" lon="-68.05017">
        <ele>3748</ele>
        <time>2025-10-21T16:08:42Z</time>
      </trkpt>
      <trkpt lat="-16.55625" lon="-68.05021">
        <ele>3748</ele>
        <time>2025-10-21T16:08:46Z</time>
      </trkpt>
      <trkpt lat="-16.55628" lon="-68.05023">
        <ele>3746</ele>
        <time>2025-10-21T16:08:52Z</time>
      </trkpt>
      <trkpt lat="-16.55641" lon="-68.05021">
        <ele>3743</ele>
        <time>2025-10-21T16:09:04Z</time>
      </trkpt>
      <trkpt lat="-16.55645" lon="-68.0502">
        <ele>3742</ele>
        <time>2025-10-21T16:09:08Z</time>
      </trkpt>
      <trkpt lat="-16.55653" lon="-68.05017">
        <ele>3740</ele>
        <time>2025-10-21T16:09:16Z</time>
      </trkpt>
      <trkpt lat="-16.55657" lon="-68.05015">
        <ele>3739</ele>
        <time>2025-10-21T16:09:20Z</time>
      </trkpt>
      <trkpt lat="-16.55664" lon="-68.05012">
        <ele>3738</ele>
        <time>2025-10-21T16:09:28Z</time>
      </trkpt>
      <trkpt lat="-16.55668" lon="-68.0501">
        <ele>3738</ele>
        <time>2025-10-21T16:09:32Z</time>
      </trkpt>
      <trkpt lat="-16.55681" lon="-68.05008">
        <ele>3735</ele>
        <time>2025-10-21T16:09:44Z</time>
      </trkpt>
      <trkpt lat="-16.5569" lon="-68.05009">
        <ele>3735</ele>
        <time>2025-10-21T16:09:52Z</time>
      </trkpt>
      <trkpt lat="-16.55694" lon="-68.0501">
        <ele>3734</ele>
        <time>2025-10-21T16:09:56Z</time>
      </trkpt>
      <trkpt lat="-16.55704" lon="-68.05016">
        <ele>3732</ele>
        <time>2025-10-21T16:10:08Z</time>
      </trkpt>
      <trkpt lat="-16.55706" lon="-68.05019">
        <ele>3731</ele>
        <time>2025-10-21T16:10:12Z</time>
      </trkpt>
      <trkpt lat="-16.55706" lon="-68.05024">
        <ele>3731</ele>
        <time>2025-10-21T16:10:16Z</time>
      </trkpt>
      <trkpt lat="-16.55701" lon="-68.0503">
        <ele>3730</ele>
        <time>2025-10-21T16:10:24Z</time>
      </trkpt>
      <trkpt lat="-16.55697" lon="-68.05032">
        <ele>3730</ele>
        <time>2025-10-21T16:10:28Z</time>
      </trkpt>
      <trkpt lat="-16.55694" lon="-68.05034">
        <ele>3728</ele>
        <time>2025-10-21T16:10:32Z</time>
      </trkpt>
      <trkpt lat="-16.55686" lon="-68.05038">
        <ele>3726</ele>
        <time>2025-10-21T16:10:40Z</time>
      </trkpt>
      <trkpt lat="-16.55679" lon="-68.05042">
        <ele>3723</ele>
        <time>2025-10-21T16:10:48Z</time>
      </trkpt>
      <trkpt lat="-16.55661" lon="-68.05049">
        <ele>3718</ele>
        <time>2025-10-21T16:11:08Z</time>
      </trkpt>
      <trkpt lat="-16.55657" lon="-68.05049">
        <ele>3717</ele>
        <time>2025-10-21T16:11:12Z</time>
      </trkpt>
      <trkpt lat="-16.55653" lon="-68.05049">
        <ele>3716</ele>
        <time>2025-10-21T16:11:16Z</time>
      </trkpt>
      <trkpt lat="-16.55649" lon="-68.05049">
        <ele>3715</ele>
        <time>2025-10-21T16:11:20Z</time>
      </trkpt>
      <trkpt lat="-16.55645" lon="-68.05049">
        <ele>3715</ele>
        <time>2025-10-21T16:11:24Z</time>
      </trkpt>
      <trkpt lat="-16.55645" lon="-68.05046">
        <ele>3715</ele>
        <time>2025-10-21T16:11:32Z</time>
      </trkpt>
      <trkpt lat="-16.55644" lon="-68.05049">
        <ele>3716</ele>
        <time>2025-10-21T16:11:55Z</time>
      </trkpt>
      <trkpt lat="-16.55638" lon="-68.0505">
        <ele>3718</ele>
        <time>2025-10-21T16:12:01Z</time>
      </trkpt>
      <trkpt lat="-16.55625" lon="-68.05049">
        <ele>3718</ele>
        <time>2025-10-21T16:12:12Z</time>
      </trkpt>
      <trkpt lat="-16.55621" lon="-68.05049">
        <ele>3717</ele>
        <time>2025-10-21T16:12:16Z</time>
      </trkpt>
      <trkpt lat="-16.55618" lon="-68.05047">
        <ele>3715</ele>
        <time>2025-10-21T16:12:22Z</time>
      </trkpt>
      <trkpt lat="-16.55616" lon="-68.05044">
        <ele>3714</ele>
        <time>2025-10-21T16:12:26Z</time>
      </trkpt>
      <trkpt lat="-16.5561" lon="-68.05038">
        <ele>3711</ele>
        <time>2025-10-21T16:12:34Z</time>
      </trkpt>
      <trkpt lat="-16.55602" lon="-68.05037">
        <ele>3710</ele>
        <time>2025-10-21T16:12:42Z</time>
      </trkpt>
      <trkpt lat="-16.5559" lon="-68.05036">
        <ele>3710</ele>
        <time>2025-10-21T16:12:54Z</time>
      </trkpt>
      <trkpt lat="-16.55587" lon="-68.05035">
        <ele>3710</ele>
        <time>2025-10-21T16:12:58Z</time>
      </trkpt>
      <trkpt lat="-16.5556" lon="-68.05032">
        <ele>3705</ele>
        <time>2025-10-21T16:13:22Z</time>
      </trkpt>
      <trkpt lat="-16.55522" lon="-68.05032">
        <ele>3702</ele>
        <time>2025-10-21T16:13:54Z</time>
      </trkpt>
      <trkpt lat="-16.5551" lon="-68.05035">
        <ele>3696</ele>
        <time>2025-10-21T16:14:08Z</time>
      </trkpt>
      <trkpt lat="-16.55502" lon="-68.05039">
        <ele>3695</ele>
        <time>2025-10-21T16:14:16Z</time>
      </trkpt>
      <trkpt lat="-16.55479" lon="-68.05058">
        <ele>3688</ele>
        <time>2025-10-21T16:14:44Z</time>
      </trkpt>
      <trkpt lat="-16.55475" lon="-68.0506">
        <ele>3687</ele>
        <time>2025-10-21T16:14:48Z</time>
      </trkpt>
      <trkpt lat="-16.55471" lon="-68.05061">
        <ele>3686</ele>
        <time>2025-10-21T16:14:52Z</time>
      </trkpt>
      <trkpt lat="-16.55466" lon="-68.05062">
        <ele>3684</ele>
        <time>2025-10-21T16:14:56Z</time>
      </trkpt>
      <trkpt lat="-16.55443" lon="-68.05069">
        <ele>3681</ele>
        <time>2025-10-21T16:15:16Z</time>
      </trkpt>
      <trkpt lat="-16.55438" lon="-68.05071">
        <ele>3681</ele>
        <time>2025-10-21T16:15:20Z</time>
      </trkpt>
      <trkpt lat="-16.55428" lon="-68.05073">
        <ele>3679</ele>
        <time>2025-10-21T16:15:28Z</time>
      </trkpt>
      <trkpt lat="-16.55409" lon="-68.05079">
        <ele>3677</ele>
        <time>2025-10-21T16:15:44Z</time>
      </trkpt>
      <trkpt lat="-16.55379" lon="-68.05081">
        <ele>3676</ele>
        <time>2025-10-21T16:16:08Z</time>
      </trkpt>
      <trkpt lat="-16.5537" lon="-68.05086">
        <ele>3676</ele>
        <time>2025-10-21T16:16:16Z</time>
      </trkpt>
      <trkpt lat="-16.55358" lon="-68.05094">
        <ele>3674</ele>
        <time>2025-10-21T16:16:28Z</time>
      </trkpt>
      <trkpt lat="-16.55355" lon="-68.05098">
        <ele>3673</ele>
        <time>2025-10-21T16:16:32Z</time>
      </trkpt>
      <trkpt lat="-16.55345" lon="-68.05108">
        <ele>3672</ele>
        <time>2025-10-21T16:16:44Z</time>
      </trkpt>
      <trkpt lat="-16.55334" lon="-68.05123">
        <ele>3669</ele>
        <time>2025-10-21T16:17:00Z</time>
      </trkpt>
      <trkpt lat="-16.55329" lon="-68.05146">
        <ele>3668</ele>
        <time>2025-10-21T16:17:20Z</time>
      </trkpt>
      <trkpt lat="-16.55328" lon="-68.05166">
        <ele>3666</ele>
        <time>2025-10-21T16:17:36Z</time>
      </trkpt>
      <trkpt lat="-16.55324" lon="-68.05185">
        <ele>3664</ele>
        <time>2025-10-21T16:17:52Z</time>
      </trkpt>
      <trkpt lat="-16.55323" lon="-68.0519">
        <ele>3664</ele>
        <time>2025-10-21T16:17:56Z</time>
      </trkpt>
      <trkpt lat="-16.55322" lon="-68.05195">
        <ele>3663</ele>
        <time>2025-10-21T16:18:00Z</time>
      </trkpt>
      <trkpt lat="-16.55322" lon="-68.052">
        <ele>3663</ele>
        <time>2025-10-21T16:18:04Z</time>
      </trkpt>
      <trkpt lat="-16.5532" lon="-68.0522">
        <ele>3662</ele>
        <time>2025-10-21T16:18:20Z</time>
      </trkpt>
      <trkpt lat="-16.55324" lon="-68.05224">
        <ele>3662</ele>
        <time>2025-10-21T16:18:26Z</time>
      </trkpt>
      <trkpt lat="-16.55333" lon="-68.05234">
        <ele>3665</ele>
        <time>2025-10-21T16:18:42Z</time>
      </trkpt>
      <trkpt lat="-16.55335" lon="-68.05238">
        <ele>3666</ele>
        <time>2025-10-21T16:18:48Z</time>
      </trkpt>
      <trkpt lat="-16.55336" lon="-68.05243">
        <ele>3667</ele>
        <time>2025-10-21T16:18:54Z</time>
      </trkpt>
      <trkpt lat="-16.55334" lon="-68.05248">
        <ele>3667</ele>
        <time>2025-10-21T16:19:00Z</time>
      </trkpt>
      <trkpt lat="-16.55332" lon="-68.05252">
        <ele>3667</ele>
        <time>2025-10-21T16:19:06Z</time>
      </trkpt>
      <trkpt lat="-16.55308" lon="-68.05265">
        <ele>3666</ele>
        <time>2025-10-21T16:19:34Z</time>
      </trkpt>
      <trkpt lat="-16.55307" lon="-68.0527">
        <ele>3667</ele>
        <time>2025-10-21T16:19:38Z</time>
      </trkpt>
      <trkpt lat="-16.55317" lon="-68.05279">
        <ele>3666</ele>
        <time>2025-10-21T16:19:52Z</time>
      </trkpt>
      <trkpt lat="-16.55321" lon="-68.0529">
        <ele>3667</ele>
        <time>2025-10-21T16:20:06Z</time>
      </trkpt>
      <trkpt lat="-16.55325" lon="-68.05292">
        <ele>3667</ele>
        <time>2025-10-21T16:20:12Z</time>
      </trkpt>
      <trkpt lat="-16.55336" lon="-68.05306">
        <ele>3671</ele>
        <time>2025-10-21T16:20:38Z</time>
      </trkpt>
      <trkpt lat="-16.55337" lon="-68.0531">
        <ele>3672</ele>
        <time>2025-10-21T16:20:44Z</time>
      </trkpt>
      <trkpt lat="-16.55334" lon="-68.05314">
        <ele>3672</ele>
        <time>2025-10-21T16:20:50Z</time>
      </trkpt>
      <trkpt lat="-16.5533" lon="-68.05317">
        <ele>3672</ele>
        <time>2025-10-21T16:20:56Z</time>
      </trkpt>
      <trkpt lat="-16.55325" lon="-68.05318">
        <ele>3673</ele>
        <time>2025-10-21T16:21:04Z</time>
      </trkpt>
      <trkpt lat="-16.55317" lon="-68.05322">
        <ele>3675</ele>
        <time>2025-10-21T16:21:16Z</time>
      </trkpt>
      <trkpt lat="-16.5531" lon="-68.05329">
        <ele>3676</ele>
        <time>2025-10-21T16:21:28Z</time>
      </trkpt>
      <trkpt lat="-16.55301" lon="-68.05346">
        <ele>3677</ele>
        <time>2025-10-21T16:21:54Z</time>
      </trkpt>
      <trkpt lat="-16.55298" lon="-68.05349">
        <ele>3677</ele>
        <time>2025-10-21T16:22:00Z</time>
      </trkpt>
      <trkpt lat="-16.55298" lon="-68.05353">
        <ele>3677</ele>
        <time>2025-10-21T16:22:06Z</time>
      </trkpt>
      <trkpt lat="-16.55296" lon="-68.05356">
        <ele>3677</ele>
        <time>2025-10-21T16:22:10Z</time>
      </trkpt>
      <trkpt lat="-16.55295" lon="-68.0536">
        <ele>3675</ele>
        <time>2025-10-21T16:22:14Z</time>
      </trkpt>
      <trkpt lat="-16.55293" lon="-68.05366">
        <ele>3675</ele>
        <time>2025-10-21T16:22:20Z</time>
      </trkpt>
      <trkpt lat="-16.55292" lon="-68.0537">
        <ele>3675</ele>
        <time>2025-10-21T16:22:26Z</time>
      </trkpt>
      <trkpt lat="-16.55292" lon="-68.05373">
        <ele>3675</ele>
        <time>2025-10-21T16:22:30Z</time>
      </trkpt>
      <trkpt lat="-16.55289" lon="-68.05397">
        <ele>3671</ele>
        <time>2025-10-21T16:22:52Z</time>
      </trkpt>
      <trkpt lat="-16.55292" lon="-68.05411">
        <ele>3668</ele>
        <time>2025-10-21T16:23:04Z</time>
      </trkpt>
      <trkpt lat="-16.55292" lon="-68.05416">
        <ele>3668</ele>
        <time>2025-10-21T16:23:08Z</time>
      </trkpt>
      <trkpt lat="-16.55283" lon="-68.0544">
        <ele>3666</ele>
        <time>2025-10-21T16:23:28Z</time>
      </trkpt>
      <trkpt lat="-16.55281" lon="-68.05445">
        <ele>3667</ele>
        <time>2025-10-21T16:23:32Z</time>
      </trkpt>
      <trkpt lat="-16.55277" lon="-68.05453">
        <ele>3667</ele>
        <time>2025-10-21T16:23:40Z</time>
      </trkpt>
      <trkpt lat="-16.55275" lon="-68.05457">
        <ele>3668</ele>
        <time>2025-10-21T16:23:44Z</time>
      </trkpt>
      <trkpt lat="-16.55274" lon="-68.05466">
        <ele>3669</ele>
        <time>2025-10-21T16:23:52Z</time>
      </trkpt>
      <trkpt lat="-16.55273" lon="-68.0547">
        <ele>3669</ele>
        <time>2025-10-21T16:23:56Z</time>
      </trkpt>
      <trkpt lat="-16.55274" lon="-68.05474">
        <ele>3669</ele>
        <time>2025-10-21T16:24:00Z</time>
      </trkpt>
      <trkpt lat="-16.5528" lon="-68.05478">
        <ele>3668</ele>
        <time>2025-10-21T16:24:08Z</time>
      </trkpt>
      <trkpt lat="-16.55285" lon="-68.05479">
        <ele>3669</ele>
        <time>2025-10-21T16:24:12Z</time>
      </trkpt>
      <trkpt lat="-16.55293" lon="-68.05483">
        <ele>3670</ele>
        <time>2025-10-21T16:24:20Z</time>
      </trkpt>
      <trkpt lat="-16.55309" lon="-68.055">
        <ele>3672</ele>
        <time>2025-10-21T16:24:44Z</time>
      </trkpt>
      <trkpt lat="-16.55313" lon="-68.05507">
        <ele>3672</ele>
        <time>2025-10-21T16:24:52Z</time>
      </trkpt>
      <trkpt lat="-16.55315" lon="-68.0551">
        <ele>3673</ele>
        <time>2025-10-21T16:24:56Z</time>
      </trkpt>
      <trkpt lat="-16.5532" lon="-68.05517">
        <ele>3672</ele>
        <time>2025-10-21T16:25:04Z</time>
      </trkpt>
      <trkpt lat="-16.55323" lon="-68.05521">
        <ele>3672</ele>
        <time>2025-10-21T16:25:08Z</time>
      </trkpt>
      <trkpt lat="-16.55326" lon="-68.05523">
        <ele>3673</ele>
        <time>2025-10-21T16:25:12Z</time>
      </trkpt>
      <trkpt lat="-16.55329" lon="-68.05526">
        <ele>3673</ele>
        <time>2025-10-21T16:25:16Z</time>
      </trkpt>
      <trkpt lat="-16.55337" lon="-68.05531">
        <ele>3675</ele>
        <time>2025-10-21T16:25:26Z</time>
      </trkpt>
      <trkpt lat="-16.55356" lon="-68.05549">
        <ele>3678</ele>
        <time>2025-10-21T16:25:56Z</time>
      </trkpt>
      <trkpt lat="-16.5536" lon="-68.05552">
        <ele>3679</ele>
        <time>2025-10-21T16:26:02Z</time>
      </trkpt>
      <trkpt lat="-16.55367" lon="-68.05564">
        <ele>3681</ele>
        <time>2025-10-21T16:26:18Z</time>
      </trkpt>
      <trkpt lat="-16.55368" lon="-68.05572">
        <ele>3682</ele>
        <time>2025-10-21T16:26:28Z</time>
      </trkpt>
      <trkpt lat="-16.55367" lon="-68.05576">
        <ele>3683</ele>
        <time>2025-10-21T16:26:32Z</time>
      </trkpt>
      <trkpt lat="-16.55366" lon="-68.0558">
        <ele>3683</ele>
        <time>2025-10-21T16:26:36Z</time>
      </trkpt>
      <trkpt lat="-16.5536" lon="-68.05589">
        <ele>3683</ele>
        <time>2025-10-21T16:26:48Z</time>
      </trkpt>
      <trkpt lat="-16.55347" lon="-68.05602">
        <ele>3684</ele>
        <time>2025-10-21T16:27:08Z</time>
      </trkpt>
      <trkpt lat="-16.55343" lon="-68.05608">
        <ele>3685</ele>
        <time>2025-10-21T16:27:16Z</time>
      </trkpt>
      <trkpt lat="-16.55342" lon="-68.05616">
        <ele>3686</ele>
        <time>2025-10-21T16:27:24Z</time>
      </trkpt>
      <trkpt lat="-16.55348" lon="-68.05637">
        <ele>3689</ele>
        <time>2025-10-21T16:27:46Z</time>
      </trkpt>
      <trkpt lat="-16.55349" lon="-68.0565">
        <ele>3690</ele>
        <time>2025-10-21T16:27:58Z</time>
      </trkpt>
      <trkpt lat="-16.55348" lon="-68.05658">
        <ele>3691</ele>
        <time>2025-10-21T16:28:06Z</time>
      </trkpt>
      <trkpt lat="-16.55348" lon="-68.05667">
        <ele>3692</ele>
        <time>2025-10-21T16:28:14Z</time>
      </trkpt>
      <trkpt lat="-16.55349" lon="-68.05671">
        <ele>3692</ele>
        <time>2025-10-21T16:28:18Z</time>
      </trkpt>
      <trkpt lat="-16.55366" lon="-68.05695">
        <ele>3692</ele>
        <time>2025-10-21T16:28:46Z</time>
      </trkpt>
      <trkpt lat="-16.5537" lon="-68.05708">
        <ele>3693</ele>
        <time>2025-10-21T16:28:58Z</time>
      </trkpt>
      <trkpt lat="-16.5537" lon="-68.05718">
        <ele>3693</ele>
        <time>2025-10-21T16:29:08Z</time>
      </trkpt>
      <trkpt lat="-16.55369" lon="-68.05727">
        <ele>3693</ele>
        <time>2025-10-21T16:29:18Z</time>
      </trkpt>
      <trkpt lat="-16.55364" lon="-68.05737">
        <ele>3695</ele>
        <time>2025-10-21T16:29:30Z</time>
      </trkpt>
      <trkpt lat="-16.55364" lon="-68.05746">
        <ele>3696</ele>
        <time>2025-10-21T16:29:40Z</time>
      </trkpt>
      <trkpt lat="-16.55366" lon="-68.05751">
        <ele>3697</ele>
        <time>2025-10-21T16:29:46Z</time>
      </trkpt>
      <trkpt lat="-16.55373" lon="-68.05762">
        <ele>3699</ele>
        <time>2025-10-21T16:29:58Z</time>
      </trkpt>
      <trkpt lat="-16.55373" lon="-68.05765">
        <ele>3700</ele>
        <time>2025-10-21T16:30:02Z</time>
      </trkpt>
      <trkpt lat="-16.55369" lon="-68.05778">
        <ele>3700</ele>
        <time>2025-10-21T16:30:14Z</time>
      </trkpt>
      <trkpt lat="-16.55369" lon="-68.05815">
        <ele>3701</ele>
        <time>2025-10-21T16:30:46Z</time>
      </trkpt>
      <trkpt lat="-16.55369" lon="-68.05838">
        <ele>3701</ele>
        <time>2025-10-21T16:31:06Z</time>
      </trkpt>
      <trkpt lat="-16.55372" lon="-68.05841">
        <ele>3702</ele>
        <time>2025-10-21T16:31:10Z</time>
      </trkpt>
      <trkpt lat="-16.55376" lon="-68.0584">
        <ele>3701</ele>
        <time>2025-10-21T16:31:16Z</time>
      </trkpt>
      <trkpt lat="-16.55378" lon="-68.05841">
        <ele>3700</ele>
        <time>2025-10-21T16:31:56Z</time>
      </trkpt>
      <trkpt lat="-16.5538" lon="-68.05837">
        <ele>3700</ele>
        <time>2025-10-21T16:32:00Z</time>
      </trkpt>
      <trkpt lat="-16.5538" lon="-68.05832">
        <ele>3701</ele>
        <time>2025-10-21T16:32:06Z</time>
      </trkpt>
      <trkpt lat="-16.55378" lon="-68.05808">
        <ele>3705</ele>
        <time>2025-10-21T16:32:34Z</time>
      </trkpt>
      <trkpt lat="-16.5538" lon="-68.05785">
        <ele>3707</ele>
        <time>2025-10-21T16:32:58Z</time>
      </trkpt>
      <trkpt lat="-16.55387" lon="-68.05779">
        <ele>3705</ele>
        <time>2025-10-21T16:33:08Z</time>
      </trkpt>
      <trkpt lat="-16.5539" lon="-68.05777">
        <ele>3705</ele>
        <time>2025-10-21T16:33:12Z</time>
      </trkpt>
      <trkpt lat="-16.55388" lon="-68.05774">
        <ele>3705</ele>
        <time>2025-10-21T16:33:16Z</time>
      </trkpt>
      <trkpt lat="-16.55391" lon="-68.05772">
        <ele>3705</ele>
        <time>2025-10-21T16:33:20Z</time>
      </trkpt>
      <trkpt lat="-16.55394" lon="-68.05763">
        <ele>3705</ele>
        <time>2025-10-21T16:33:30Z</time>
      </trkpt>
      <trkpt lat="-16.55394" lon="-68.0576">
        <ele>3705</ele>
        <time>2025-10-21T16:33:34Z</time>
      </trkpt>
      <trkpt lat="-16.55396" lon="-68.05756">
        <ele>3705</ele>
        <time>2025-10-21T16:33:38Z</time>
      </trkpt>
      <trkpt lat="-16.554" lon="-68.05738">
        <ele>3704</ele>
        <time>2025-10-21T16:33:58Z</time>
      </trkpt>
      <trkpt lat="-16.55408" lon="-68.05723">
        <ele>3706</ele>
        <time>2025-10-21T16:34:20Z</time>
      </trkpt>
      <trkpt lat="-16.55412" lon="-68.05714">
        <ele>3708</ele>
        <time>2025-10-21T16:34:30Z</time>
      </trkpt>
      <trkpt lat="-16.55415" lon="-68.0571">
        <ele>3708</ele>
        <time>2025-10-21T16:34:36Z</time>
      </trkpt>
      <trkpt lat="-16.55423" lon="-68.05695">
        <ele>3711</ele>
        <time>2025-10-21T16:34:56Z</time>
      </trkpt>
      <trkpt lat="-16.55429" lon="-68.05688">
        <ele>3711</ele>
        <time>2025-10-21T16:35:06Z</time>
      </trkpt>
      <trkpt lat="-16.55432" lon="-68.05684">
        <ele>3712</ele>
        <time>2025-10-21T16:35:12Z</time>
      </trkpt>
      <trkpt lat="-16.55439" lon="-68.05678">
        <ele>3713</ele>
        <time>2025-10-21T16:35:22Z</time>
      </trkpt>
      <trkpt lat="-16.55441" lon="-68.05675">
        <ele>3714</ele>
        <time>2025-10-21T16:35:26Z</time>
      </trkpt>
      <trkpt lat="-16.55448" lon="-68.05672">
        <ele>3715</ele>
        <time>2025-10-21T16:35:34Z</time>
      </trkpt>
      <trkpt lat="-16.55454" lon="-68.05667">
        <ele>3716</ele>
        <time>2025-10-21T16:35:42Z</time>
      </trkpt>
      <trkpt lat="-16.55459" lon="-68.05658">
        <ele>3716</ele>
        <time>2025-10-21T16:35:52Z</time>
      </trkpt>
      <trkpt lat="-16.55459" lon="-68.05654">
        <ele>3716</ele>
        <time>2025-10-21T16:35:56Z</time>
      </trkpt>
      <trkpt lat="-16.5546" lon="-68.05651">
        <ele>3718</ele>
        <time>2025-10-21T16:36:00Z</time>
      </trkpt>
      <trkpt lat="-16.55461" lon="-68.05646">
        <ele>3719</ele>
        <time>2025-10-21T16:36:04Z</time>
      </trkpt>
      <trkpt lat="-16.55461" lon="-68.05642">
        <ele>3719</ele>
        <time>2025-10-21T16:36:08Z</time>
      </trkpt>
      <trkpt lat="-16.55462" lon="-68.05637">
        <ele>3720</ele>
        <time>2025-10-21T16:36:12Z</time>
      </trkpt>
      <trkpt lat="-16.55462" lon="-68.05622">
        <ele>3721</ele>
        <time>2025-10-21T16:36:28Z</time>
      </trkpt>
      <trkpt lat="-16.55463" lon="-68.05613">
        <ele>3720</ele>
        <time>2025-10-21T16:36:38Z</time>
      </trkpt>
      <trkpt lat="-16.55463" lon="-68.0561">
        <ele>3720</ele>
        <time>2025-10-21T16:36:42Z</time>
      </trkpt>
      <trkpt lat="-16.55464" lon="-68.05606">
        <ele>3721</ele>
        <time>2025-10-21T16:36:48Z</time>
      </trkpt>
      <trkpt lat="-16.55469" lon="-68.05605">
        <ele>3723</ele>
        <time>2025-10-21T16:36:56Z</time>
      </trkpt>
      <trkpt lat="-16.55472" lon="-68.05609">
        <ele>3726</ele>
        <time>2025-10-21T16:37:02Z</time>
      </trkpt>
      <trkpt lat="-16.55472" lon="-68.05614">
        <ele>3727</ele>
        <time>2025-10-21T16:37:08Z</time>
      </trkpt>
      <trkpt lat="-16.55473" lon="-68.05624">
        <ele>3729</ele>
        <time>2025-10-21T16:37:20Z</time>
      </trkpt>
      <trkpt lat="-16.55475" lon="-68.05628">
        <ele>3730</ele>
        <time>2025-10-21T16:37:26Z</time>
      </trkpt>
      <trkpt lat="-16.55477" lon="-68.05632">
        <ele>3731</ele>
        <time>2025-10-21T16:37:30Z</time>
      </trkpt>
      <trkpt lat="-16.55481" lon="-68.05638">
        <ele>3732</ele>
        <time>2025-10-21T16:37:38Z</time>
      </trkpt>
      <trkpt lat="-16.55483" lon="-68.05643">
        <ele>3733</ele>
        <time>2025-10-21T16:37:44Z</time>
      </trkpt>
      <trkpt lat="-16.55484" lon="-68.05646">
        <ele>3733</ele>
        <time>2025-10-21T16:37:48Z</time>
      </trkpt>
      <trkpt lat="-16.55484" lon="-68.05655">
        <ele>3734</ele>
        <time>2025-10-21T16:37:56Z</time>
      </trkpt>
      <trkpt lat="-16.55486" lon="-68.05679">
        <ele>3737</ele>
        <time>2025-10-21T16:38:20Z</time>
      </trkpt>
      <trkpt lat="-16.55486" lon="-68.05684">
        <ele>3737</ele>
        <time>2025-10-21T16:38:24Z</time>
      </trkpt>
      <trkpt lat="-16.55484" lon="-68.05688">
        <ele>3737</ele>
        <time>2025-10-21T16:38:28Z</time>
      </trkpt>
      <trkpt lat="-16.55465" lon="-68.05704">
        <ele>3737</ele>
        <time>2025-10-21T16:38:52Z</time>
      </trkpt>
      <trkpt lat="-16.55463" lon="-68.05707">
        <ele>3737</ele>
        <time>2025-10-21T16:38:56Z</time>
      </trkpt>
      <trkpt lat="-16.5546" lon="-68.0571">
        <ele>3738</ele>
        <time>2025-10-21T16:39:00Z</time>
      </trkpt>
      <trkpt lat="-16.5546" lon="-68.05722">
        <ele>3739</ele>
        <time>2025-10-21T16:39:12Z</time>
      </trkpt>
      <trkpt lat="-16.55462" lon="-68.0574">
        <ele>3740</ele>
        <time>2025-10-21T16:39:28Z</time>
      </trkpt>
      <trkpt lat="-16.55461" lon="-68.05751">
        <ele>3742</ele>
        <time>2025-10-21T16:39:40Z</time>
      </trkpt>
      <trkpt lat="-16.55452" lon="-68.05769">
        <ele>3744</ele>
        <time>2025-10-21T16:40:00Z</time>
      </trkpt>
      <trkpt lat="-16.55438" lon="-68.05785">
        <ele>3745</ele>
        <time>2025-10-21T16:40:20Z</time>
      </trkpt>
      <trkpt lat="-16.55435" lon="-68.05788">
        <ele>3745</ele>
        <time>2025-10-21T16:40:24Z</time>
      </trkpt>
      <trkpt lat="-16.55433" lon="-68.05791">
        <ele>3746</ele>
        <time>2025-10-21T16:40:28Z</time>
      </trkpt>
      <trkpt lat="-16.55434" lon="-68.05795">
        <ele>3746</ele>
        <time>2025-10-21T16:40:32Z</time>
      </trkpt>
      <trkpt lat="-16.55446" lon="-68.05817">
        <ele>3749</ele>
        <time>2025-10-21T16:41:02Z</time>
      </trkpt>
      <trkpt lat="-16.55458" lon="-68.05826">
        <ele>3751</ele>
        <time>2025-10-21T16:41:20Z</time>
      </trkpt>
      <trkpt lat="-16.55461" lon="-68.05827">
        <ele>3752</ele>
        <time>2025-10-21T16:41:24Z</time>
      </trkpt>
      <trkpt lat="-16.55473" lon="-68.0583">
        <ele>3753</ele>
        <time>2025-10-21T16:41:40Z</time>
      </trkpt>
      <trkpt lat="-16.55474" lon="-68.05833">
        <ele>3753</ele>
        <time>2025-10-21T16:41:48Z</time>
      </trkpt>
      <trkpt lat="-16.55483" lon="-68.05834">
        <ele>3755</ele>
        <time>2025-10-21T16:41:56Z</time>
      </trkpt>
      <trkpt lat="-16.55486" lon="-68.05835">
        <ele>3755</ele>
        <time>2025-10-21T16:42:00Z</time>
      </trkpt>
      <trkpt lat="-16.5549" lon="-68.05838">
        <ele>3756</ele>
        <time>2025-10-21T16:42:06Z</time>
      </trkpt>
      <trkpt lat="-16.55491" lon="-68.05843">
        <ele>3756</ele>
        <time>2025-10-21T16:42:14Z</time>
      </trkpt>
      <trkpt lat="-16.5549" lon="-68.05848">
        <ele>3757</ele>
        <time>2025-10-21T16:42:20Z</time>
      </trkpt>
      <trkpt lat="-16.55487" lon="-68.05856">
        <ele>3758</ele>
        <time>2025-10-21T16:42:32Z</time>
      </trkpt>
      <trkpt lat="-16.55486" lon="-68.05862">
        <ele>3760</ele>
        <time>2025-10-21T16:42:38Z</time>
      </trkpt>
      <trkpt lat="-16.55486" lon="-68.05867">
        <ele>3760</ele>
        <time>2025-10-21T16:42:44Z</time>
      </trkpt>
      <trkpt lat="-16.55489" lon="-68.05871">
        <ele>3761</ele>
        <time>2025-10-21T16:42:50Z</time>
      </trkpt>
      <trkpt lat="-16.55493" lon="-68.05872">
        <ele>3762</ele>
        <time>2025-10-21T16:42:56Z</time>
      </trkpt>
      <trkpt lat="-16.55498" lon="-68.05872">
        <ele>3763</ele>
        <time>2025-10-21T16:43:02Z</time>
      </trkpt>
      <trkpt lat="-16.55508" lon="-68.05858">
        <ele>3765</ele>
        <time>2025-10-21T16:43:22Z</time>
      </trkpt>
      <trkpt lat="-16.55509" lon="-68.05855">
        <ele>3765</ele>
        <time>2025-10-21T16:43:26Z</time>
      </trkpt>
      <trkpt lat="-16.55512" lon="-68.05851">
        <ele>3766</ele>
        <time>2025-10-21T16:43:32Z</time>
      </trkpt>
      <trkpt lat="-16.55511" lon="-68.05847">
        <ele>3767</ele>
        <time>2025-10-21T16:43:44Z</time>
      </trkpt>
      <trkpt lat="-16.55513" lon="-68.05845">
        <ele>3769</ele>
        <time>2025-10-21T16:43:58Z</time>
      </trkpt>
      <trkpt lat="-16.55516" lon="-68.05836">
        <ele>3769</ele>
        <time>2025-10-21T16:44:06Z</time>
      </trkpt>
      <trkpt lat="-16.55518" lon="-68.05833">
        <ele>3769</ele>
        <time>2025-10-21T16:44:10Z</time>
      </trkpt>
      <trkpt lat="-16.55522" lon="-68.05822">
        <ele>3771</ele>
        <time>2025-10-21T16:44:22Z</time>
      </trkpt>
      <trkpt lat="-16.55523" lon="-68.05819">
        <ele>3771</ele>
        <time>2025-10-21T16:44:26Z</time>
      </trkpt>
      <trkpt lat="-16.55524" lon="-68.05811">
        <ele>3772</ele>
        <time>2025-10-21T16:44:34Z</time>
      </trkpt>
      <trkpt lat="-16.55532" lon="-68.058">
        <ele>3772</ele>
        <time>2025-10-21T16:44:50Z</time>
      </trkpt>
      <trkpt lat="-16.55538" lon="-68.05794">
        <ele>3772</ele>
        <time>2025-10-21T16:45:02Z</time>
      </trkpt>
      <trkpt lat="-16.55542" lon="-68.05791">
        <ele>3773</ele>
        <time>2025-10-21T16:45:08Z</time>
      </trkpt>
      <trkpt lat="-16.55545" lon="-68.05788">
        <ele>3773</ele>
        <time>2025-10-21T16:45:14Z</time>
      </trkpt>
      <trkpt lat="-16.55549" lon="-68.05785">
        <ele>3774</ele>
        <time>2025-10-21T16:45:20Z</time>
      </trkpt>
      <trkpt lat="-16.55553" lon="-68.05786">
        <ele>3775</ele>
        <time>2025-10-21T16:45:26Z</time>
      </trkpt>
      <trkpt lat="-16.55554" lon="-68.0579">
        <ele>3775</ele>
        <time>2025-10-21T16:45:32Z</time>
      </trkpt>
      <trkpt lat="-16.55552" lon="-68.05795">
        <ele>3776</ele>
        <time>2025-10-21T16:45:38Z</time>
      </trkpt>
      <trkpt lat="-16.55545" lon="-68.05802">
        <ele>3777</ele>
        <time>2025-10-21T16:45:48Z</time>
      </trkpt>
      <trkpt lat="-16.55543" lon="-68.05805">
        <ele>3778</ele>
        <time>2025-10-21T16:45:52Z</time>
      </trkpt>
      <trkpt lat="-16.55542" lon="-68.05814">
        <ele>3779</ele>
        <time>2025-10-21T16:46:02Z</time>
      </trkpt>
      <trkpt lat="-16.55542" lon="-68.05817">
        <ele>3779</ele>
        <time>2025-10-21T16:46:06Z</time>
      </trkpt>
      <trkpt lat="-16.55543" lon="-68.05821">
        <ele>3780</ele>
        <time>2025-10-21T16:46:10Z</time>
      </trkpt>
      <trkpt lat="-16.55545" lon="-68.0583">
        <ele>3781</ele>
        <time>2025-10-21T16:46:18Z</time>
      </trkpt>
      <trkpt lat="-16.55543" lon="-68.05843">
        <ele>3782</ele>
        <time>2025-10-21T16:46:32Z</time>
      </trkpt>
      <trkpt lat="-16.55544" lon="-68.05868">
        <ele>3784</ele>
        <time>2025-10-21T16:47:02Z</time>
      </trkpt>
      <trkpt lat="-16.55544" lon="-68.05873">
        <ele>3785</ele>
        <time>2025-10-21T16:47:08Z</time>
      </trkpt>
      <trkpt lat="-16.55541" lon="-68.0588">
        <ele>3786</ele>
        <time>2025-10-21T16:47:20Z</time>
      </trkpt>
      <trkpt lat="-16.55541" lon="-68.05885">
        <ele>3786</ele>
        <time>2025-10-21T16:47:26Z</time>
      </trkpt>
      <trkpt lat="-16.5554" lon="-68.05889">
        <ele>3787</ele>
        <time>2025-10-21T16:47:32Z</time>
      </trkpt>
      <trkpt lat="-16.55541" lon="-68.05894">
        <ele>3788</ele>
        <time>2025-10-21T16:47:38Z</time>
      </trkpt>
      <trkpt lat="-16.55544" lon="-68.05896">
        <ele>3788</ele>
        <time>2025-10-21T16:47:44Z</time>
      </trkpt>
      <trkpt lat="-16.55547" lon="-68.05899">
        <ele>3789</ele>
        <time>2025-10-21T16:47:52Z</time>
      </trkpt>
      <trkpt lat="-16.55572" lon="-68.05904">
        <ele>3791</ele>
        <time>2025-10-21T16:48:22Z</time>
      </trkpt>
      <trkpt lat="-16.55604" lon="-68.05912">
        <ele>3793</ele>
        <time>2025-10-21T16:48:54Z</time>
      </trkpt>
      <trkpt lat="-16.55618" lon="-68.05916">
        <ele>3794</ele>
        <time>2025-10-21T16:49:10Z</time>
      </trkpt>
      <trkpt lat="-16.55626" lon="-68.05918">
        <ele>3795</ele>
        <time>2025-10-21T16:49:20Z</time>
      </trkpt>
      <trkpt lat="-16.55634" lon="-68.05921">
        <ele>3795</ele>
        <time>2025-10-21T16:49:30Z</time>
      </trkpt>
      <trkpt lat="-16.55638" lon="-68.05921">
        <ele>3797</ele>
        <time>2025-10-21T16:49:40Z</time>
      </trkpt>
      <trkpt lat="-16.55642" lon="-68.05922">
        <ele>3799</ele>
        <time>2025-10-21T16:50:15Z</time>
      </trkpt>
      <trkpt lat="-16.55647" lon="-68.05922">
        <ele>3800</ele>
        <time>2025-10-21T16:50:21Z</time>
      </trkpt>
      <trkpt lat="-16.5565" lon="-68.05919">
        <ele>3801</ele>
        <time>2025-10-21T16:50:25Z</time>
      </trkpt>
      <trkpt lat="-16.55653" lon="-68.05916">
        <ele>3800</ele>
        <time>2025-10-21T16:50:29Z</time>
      </trkpt>
      <trkpt lat="-16.55657" lon="-68.05916">
        <ele>3800</ele>
        <time>2025-10-21T16:50:33Z</time>
      </trkpt>
      <trkpt lat="-16.55658" lon="-68.05912">
        <ele>3799</ele>
        <time>2025-10-21T16:50:39Z</time>
      </trkpt>
      <trkpt lat="-16.55658" lon="-68.05907">
        <ele>3799</ele>
        <time>2025-10-21T16:50:43Z</time>
      </trkpt>
      <trkpt lat="-16.55658" lon="-68.05902">
        <ele>3798</ele>
        <time>2025-10-21T16:50:53Z</time>
      </trkpt>
      <trkpt lat="-16.55661" lon="-68.05899">
        <ele>3798</ele>
        <time>2025-10-21T16:51:02Z</time>
      </trkpt>
      <trkpt lat="-16.55651" lon="-68.05861">
        <ele>3797</ele>
        <time>2025-10-21T16:51:33Z</time>
      </trkpt>
      <trkpt lat="-16.55645" lon="-68.0582">
        <ele>3795</ele>
        <time>2025-10-21T16:52:05Z</time>
      </trkpt>
      <trkpt lat="-16.55642" lon="-68.0578">
        <ele>3793</ele>
        <time>2025-10-21T16:52:37Z</time>
      </trkpt>
      <trkpt lat="-16.55642" lon="-68.05765">
        <ele>3793</ele>
        <time>2025-10-21T16:52:49Z</time>
      </trkpt>
      <trkpt lat="-16.55644" lon="-68.0576">
        <ele>3793</ele>
        <time>2025-10-21T16:52:53Z</time>
      </trkpt>
      <trkpt lat="-16.55647" lon="-68.05756">
        <ele>3793</ele>
        <time>2025-10-21T16:52:57Z</time>
      </trkpt>
      <trkpt lat="-16.55652" lon="-68.05754">
        <ele>3792</ele>
        <time>2025-10-21T16:53:01Z</time>
      </trkpt>
      <trkpt lat="-16.55657" lon="-68.05754">
        <ele>3792</ele>
        <time>2025-10-21T16:53:05Z</time>
      </trkpt>
      <trkpt lat="-16.55676" lon="-68.05758">
        <ele>3791</ele>
        <time>2025-10-21T16:53:21Z</time>
      </trkpt>
      <trkpt lat="-16.55681" lon="-68.05758">
        <ele>3791</ele>
        <time>2025-10-21T16:53:25Z</time>
      </trkpt>
      <trkpt lat="-16.55681" lon="-68.05763">
        <ele>3792</ele>
        <time>2025-10-21T16:53:29Z</time>
      </trkpt>
      <trkpt lat="-16.55685" lon="-68.05764">
        <ele>3792</ele>
        <time>2025-10-21T16:53:33Z</time>
      </trkpt>
      <trkpt lat="-16.55689" lon="-68.05758">
        <ele>3792</ele>
        <time>2025-10-21T16:53:35Z</time>
      </trkpt>
      <trkpt lat="-16.55698" lon="-68.05757">
        <ele>3793</ele>
        <time>2025-10-21T16:53:43Z</time>
      </trkpt>
      <trkpt lat="-16.55704" lon="-68.05754">
        <ele>3794</ele>
        <time>2025-10-21T16:53:51Z</time>
      </trkpt>
      <trkpt lat="-16.55714" lon="-68.05739">
        <ele>3797</ele>
        <time>2025-10-21T16:54:09Z</time>
      </trkpt>
      <trkpt lat="-16.55719" lon="-68.0573">
        <ele>3797</ele>
        <time>2025-10-21T16:54:17Z</time>
      </trkpt>
      <trkpt lat="-16.55722" lon="-68.05716">
        <ele>3798</ele>
        <time>2025-10-21T16:54:29Z</time>
      </trkpt>
      <trkpt lat="-16.55721" lon="-68.05687">
        <ele>3798</ele>
        <time>2025-10-21T16:54:53Z</time>
      </trkpt>
      <trkpt lat="-16.55726" lon="-68.05667">
        <ele>3797</ele>
        <time>2025-10-21T16:55:09Z</time>
      </trkpt>
      <trkpt lat="-16.55727" lon="-68.05662">
        <ele>3797</ele>
        <time>2025-10-21T16:55:13Z</time>
      </trkpt>
      <trkpt lat="-16.55726" lon="-68.05656">
        <ele>3797</ele>
        <time>2025-10-21T16:55:17Z</time>
      </trkpt>
      <trkpt lat="-16.55724" lon="-68.05651">
        <ele>3797</ele>
        <time>2025-10-21T16:55:21Z</time>
      </trkpt>
      <trkpt lat="-16.5572" lon="-68.05633">
        <ele>3799</ele>
        <time>2025-10-21T16:55:37Z</time>
      </trkpt>
      <trkpt lat="-16.55718" lon="-68.05618">
        <ele>3799</ele>
        <time>2025-10-21T16:55:49Z</time>
      </trkpt>
      <trkpt lat="-16.55719" lon="-68.05608">
        <ele>3799</ele>
        <time>2025-10-21T16:55:57Z</time>
      </trkpt>
      <trkpt lat="-16.55729" lon="-68.05586">
        <ele>3795</ele>
        <time>2025-10-21T16:56:17Z</time>
      </trkpt>
      <trkpt lat="-16.55732" lon="-68.05581">
        <ele>3795</ele>
        <time>2025-10-21T16:56:21Z</time>
      </trkpt>
      <trkpt lat="-16.55747" lon="-68.05555">
        <ele>3796</ele>
        <time>2025-10-21T16:56:45Z</time>
      </trkpt>
      <trkpt lat="-16.55749" lon="-68.05551">
        <ele>3796</ele>
        <time>2025-10-21T16:56:49Z</time>
      </trkpt>
      <trkpt lat="-16.55753" lon="-68.05537">
        <ele>3797</ele>
        <time>2025-10-21T16:57:01Z</time>
      </trkpt>
      <trkpt lat="-16.55755" lon="-68.05533">
        <ele>3798</ele>
        <time>2025-10-21T16:57:05Z</time>
      </trkpt>
      <trkpt lat="-16.55759" lon="-68.05532">
        <ele>3799</ele>
        <time>2025-10-21T16:57:11Z</time>
      </trkpt>
      <trkpt lat="-16.55758" lon="-68.0554">
        <ele>3798</ele>
        <time>2025-10-21T16:57:19Z</time>
      </trkpt>
      <trkpt lat="-16.55752" lon="-68.05548">
        <ele>3796</ele>
        <time>2025-10-21T16:57:27Z</time>
      </trkpt>
      <trkpt lat="-16.55751" lon="-68.05552">
        <ele>3795</ele>
        <time>2025-10-21T16:57:31Z</time>
      </trkpt>
      <trkpt lat="-16.55758" lon="-68.05558">
        <ele>3794</ele>
        <time>2025-10-21T16:57:39Z</time>
      </trkpt>
      <trkpt lat="-16.55793" lon="-68.05572">
        <ele>3792</ele>
        <time>2025-10-21T16:58:11Z</time>
      </trkpt>
      <trkpt lat="-16.55806" lon="-68.05577">
        <ele>3793</ele>
        <time>2025-10-21T16:58:23Z</time>
      </trkpt>
      <trkpt lat="-16.55841" lon="-68.05589">
        <ele>3789</ele>
        <time>2025-10-21T16:58:55Z</time>
      </trkpt>
      <trkpt lat="-16.55846" lon="-68.05589">
        <ele>3789</ele>
        <time>2025-10-21T16:58:59Z</time>
      </trkpt>
      <trkpt lat="-16.55849" lon="-68.05585">
        <ele>3788</ele>
        <time>2025-10-21T16:59:03Z</time>
      </trkpt>
      <trkpt lat="-16.55855" lon="-68.05573">
        <ele>3789</ele>
        <time>2025-10-21T16:59:15Z</time>
      </trkpt>
      <trkpt lat="-16.55865" lon="-68.05533">
        <ele>3789</ele>
        <time>2025-10-21T16:59:47Z</time>
      </trkpt>
      <trkpt lat="-16.55867" lon="-68.05524">
        <ele>3790</ele>
        <time>2025-10-21T16:59:55Z</time>
      </trkpt>
      <trkpt lat="-16.55876" lon="-68.05509">
        <ele>3791</ele>
        <time>2025-10-21T17:00:11Z</time>
      </trkpt>
      <trkpt lat="-16.55887" lon="-68.0549">
        <ele>3790</ele>
        <time>2025-10-21T17:00:31Z</time>
      </trkpt>
      <trkpt lat="-16.55889" lon="-68.05479">
        <ele>3788</ele>
        <time>2025-10-21T17:00:39Z</time>
      </trkpt>
      <trkpt lat="-16.55896" lon="-68.05462">
        <ele>3785</ele>
        <time>2025-10-21T17:00:55Z</time>
      </trkpt>
      <trkpt lat="-16.55915" lon="-68.05434">
        <ele>3779</ele>
        <time>2025-10-21T17:01:23Z</time>
      </trkpt>
      <trkpt lat="-16.55927" lon="-68.05426">
        <ele>3779</ele>
        <time>2025-10-21T17:01:35Z</time>
      </trkpt>
      <trkpt lat="-16.5594" lon="-68.05423">
        <ele>3780</ele>
        <time>2025-10-21T17:01:47Z</time>
      </trkpt>
      <trkpt lat="-16.55959" lon="-68.05409">
        <ele>3779</ele>
        <time>2025-10-21T17:02:07Z</time>
      </trkpt>
      <trkpt lat="-16.5597" lon="-68.05394">
        <ele>3778</ele>
        <time>2025-10-21T17:02:23Z</time>
      </trkpt>
      <trkpt lat="-16.55972" lon="-68.05389">
        <ele>3778</ele>
        <time>2025-10-21T17:02:27Z</time>
      </trkpt>
      <trkpt lat="-16.55972" lon="-68.05384">
        <ele>3778</ele>
        <time>2025-10-21T17:02:31Z</time>
      </trkpt>
      <trkpt lat="-16.55977" lon="-68.05376">
        <ele>3778</ele>
        <time>2025-10-21T17:02:39Z</time>
      </trkpt>
      <trkpt lat="-16.55978" lon="-68.05366">
        <ele>3778</ele>
        <time>2025-10-21T17:02:47Z</time>
      </trkpt>
      <trkpt lat="-16.55977" lon="-68.05361">
        <ele>3777</ele>
        <time>2025-10-21T17:02:51Z</time>
      </trkpt>
      <trkpt lat="-16.55976" lon="-68.05356">
        <ele>3777</ele>
        <time>2025-10-21T17:02:55Z</time>
      </trkpt>
      <trkpt lat="-16.55978" lon="-68.05351">
        <ele>3777</ele>
        <time>2025-10-21T17:02:59Z</time>
      </trkpt>
      <trkpt lat="-16.5598" lon="-68.05347">
        <ele>3777</ele>
        <time>2025-10-21T17:03:03Z</time>
      </trkpt>
      <trkpt lat="-16.55985" lon="-68.05346">
        <ele>3778</ele>
        <time>2025-10-21T17:03:07Z</time>
      </trkpt>
      <trkpt lat="-16.55989" lon="-68.05346">
        <ele>3778</ele>
        <time>2025-10-21T17:03:11Z</time>
      </trkpt>
      <trkpt lat="-16.56001" lon="-68.05343">
        <ele>3781</ele>
        <time>2025-10-21T17:03:25Z</time>
      </trkpt>
      <trkpt lat="-16.56008" lon="-68.05337">
        <ele>3782</ele>
        <time>2025-10-21T17:03:35Z</time>
      </trkpt>
      <trkpt lat="-16.56012" lon="-68.05335">
        <ele>3783</ele>
        <time>2025-10-21T17:03:39Z</time>
      </trkpt>
      <trkpt lat="-16.56016" lon="-68.05333">
        <ele>3783</ele>
        <time>2025-10-21T17:03:45Z</time>
      </trkpt>
      <trkpt lat="-16.56023" lon="-68.05328">
        <ele>3782</ele>
        <time>2025-10-21T17:03:53Z</time>
      </trkpt>
      <trkpt lat="-16.56026" lon="-68.05326">
        <ele>3782</ele>
        <time>2025-10-21T17:03:57Z</time>
      </trkpt>
      <trkpt lat="-16.56031" lon="-68.0532">
        <ele>3783</ele>
        <time>2025-10-21T17:04:05Z</time>
      </trkpt>
      <trkpt lat="-16.56042" lon="-68.05314">
        <ele>3783</ele>
        <time>2025-10-21T17:04:17Z</time>
      </trkpt>
      <trkpt lat="-16.56047" lon="-68.05314">
        <ele>3783</ele>
        <time>2025-10-21T17:04:21Z</time>
      </trkpt>
      <trkpt lat="-16.56051" lon="-68.05312">
        <ele>3783</ele>
        <time>2025-10-21T17:04:25Z</time>
      </trkpt>
      <trkpt lat="-16.56055" lon="-68.0531">
        <ele>3783</ele>
        <time>2025-10-21T17:04:29Z</time>
      </trkpt>
      <trkpt lat="-16.56067" lon="-68.05307">
        <ele>3785</ele>
        <time>2025-10-21T17:04:41Z</time>
      </trkpt>
      <trkpt lat="-16.56086" lon="-68.05299">
        <ele>3785</ele>
        <time>2025-10-21T17:05:01Z</time>
      </trkpt>
      <trkpt lat="-16.56092" lon="-68.05293">
        <ele>3785</ele>
        <time>2025-10-21T17:05:09Z</time>
      </trkpt>
      <trkpt lat="-16.56101" lon="-68.05277">
        <ele>3785</ele>
        <time>2025-10-21T17:05:25Z</time>
      </trkpt>
      <trkpt lat="-16.56102" lon="-68.05273">
        <ele>3786</ele>
        <time>2025-10-21T17:05:29Z</time>
      </trkpt>
      <trkpt lat="-16.56105" lon="-68.0527">
        <ele>3786</ele>
        <time>2025-10-21T17:05:33Z</time>
      </trkpt>
      <trkpt lat="-16.56114" lon="-68.05266">
        <ele>3784</ele>
        <time>2025-10-21T17:05:47Z</time>
      </trkpt>
      <trkpt lat="-16.5613" lon="-68.05265">
        <ele>3784</ele>
        <time>2025-10-21T17:06:03Z</time>
      </trkpt>
      <trkpt lat="-16.56134" lon="-68.05265">
        <ele>3784</ele>
        <time>2025-10-21T17:06:07Z</time>
      </trkpt>
      <trkpt lat="-16.56137" lon="-68.05267">
        <ele>3784</ele>
        <time>2025-10-21T17:06:11Z</time>
      </trkpt>
      <trkpt lat="-16.5614" lon="-68.0527">
        <ele>3785</ele>
        <time>2025-10-21T17:06:15Z</time>
      </trkpt>
      <trkpt lat="-16.56142" lon="-68.05274">
        <ele>3786</ele>
        <time>2025-10-21T17:06:19Z</time>
      </trkpt>
      <trkpt lat="-16.56141" lon="-68.05279">
        <ele>3786</ele>
        <time>2025-10-21T17:06:23Z</time>
      </trkpt>
      <trkpt lat="-16.56133" lon="-68.05294">
        <ele>3786</ele>
        <time>2025-10-21T17:06:43Z</time>
      </trkpt>
      <trkpt lat="-16.56132" lon="-68.05309">
        <ele>3787</ele>
        <time>2025-10-21T17:07:01Z</time>
      </trkpt>
      <trkpt lat="-16.56132" lon="-68.05313">
        <ele>3788</ele>
        <time>2025-10-21T17:07:05Z</time>
      </trkpt>
      <trkpt lat="-16.56132" lon="-68.05317">
        <ele>3788</ele>
        <time>2025-10-21T17:07:09Z</time>
      </trkpt>
      <trkpt lat="-16.56137" lon="-68.05351">
        <ele>3789</ele>
        <time>2025-10-21T17:07:41Z</time>
      </trkpt>
      <trkpt lat="-16.56138" lon="-68.05355">
        <ele>3790</ele>
        <time>2025-10-21T17:07:45Z</time>
      </trkpt>
      <trkpt lat="-16.56137" lon="-68.0536">
        <ele>3790</ele>
        <time>2025-10-21T17:07:49Z</time>
      </trkpt>
      <trkpt lat="-16.56135" lon="-68.05369">
        <ele>3791</ele>
        <time>2025-10-21T17:07:57Z</time>
      </trkpt>
      <trkpt lat="-16.56134" lon="-68.05372">
        <ele>3792</ele>
        <time>2025-10-21T17:08:01Z</time>
      </trkpt>
      <trkpt lat="-16.56132" lon="-68.05376">
        <ele>3792</ele>
        <time>2025-10-21T17:08:05Z</time>
      </trkpt>
      <trkpt lat="-16.56131" lon="-68.0538">
        <ele>3792</ele>
        <time>2025-10-21T17:08:09Z</time>
      </trkpt>
      <trkpt lat="-16.56125" lon="-68.05391">
        <ele>3795</ele>
        <time>2025-10-21T17:08:21Z</time>
      </trkpt>
      <trkpt lat="-16.56116" lon="-68.05406">
        <ele>3795</ele>
        <time>2025-10-21T17:08:37Z</time>
      </trkpt>
      <trkpt lat="-16.56115" lon="-68.05419">
        <ele>3795</ele>
        <time>2025-10-21T17:08:49Z</time>
      </trkpt>
      <trkpt lat="-16.56113" lon="-68.05423">
        <ele>3796</ele>
        <time>2025-10-21T17:08:53Z</time>
      </trkpt>
      <trkpt lat="-16.56106" lon="-68.05433">
        <ele>3797</ele>
        <time>2025-10-21T17:09:05Z</time>
      </trkpt>
      <trkpt lat="-16.56103" lon="-68.05441">
        <ele>3797</ele>
        <time>2025-10-21T17:09:13Z</time>
      </trkpt>
      <trkpt lat="-16.56103" lon="-68.05453">
        <ele>3798</ele>
        <time>2025-10-21T17:09:25Z</time>
      </trkpt>
      <trkpt lat="-16.56104" lon="-68.05458">
        <ele>3798</ele>
        <time>2025-10-21T17:09:29Z</time>
      </trkpt>
      <trkpt lat="-16.56103" lon="-68.05461">
        <ele>3799</ele>
        <time>2025-10-21T17:09:33Z</time>
      </trkpt>
      <trkpt lat="-16.56103" lon="-68.05466">
        <ele>3799</ele>
        <time>2025-10-21T17:09:37Z</time>
      </trkpt>
      <trkpt lat="-16.56104" lon="-68.0547">
        <ele>3799</ele>
        <time>2025-10-21T17:09:43Z</time>
      </trkpt>
      <trkpt lat="-16.56104" lon="-68.05474">
        <ele>3799</ele>
        <time>2025-10-21T17:09:47Z</time>
      </trkpt>
      <trkpt lat="-16.56103" lon="-68.05479">
        <ele>3801</ele>
        <time>2025-10-21T17:09:53Z</time>
      </trkpt>
      <trkpt lat="-16.56104" lon="-68.05488">
        <ele>3802</ele>
        <time>2025-10-21T17:10:01Z</time>
      </trkpt>
      <trkpt lat="-16.56103" lon="-68.05505">
        <ele>3803</ele>
        <time>2025-10-21T17:10:17Z</time>
      </trkpt>
      <trkpt lat="-16.56104" lon="-68.05521">
        <ele>3804</ele>
        <time>2025-10-21T17:10:33Z</time>
      </trkpt>
      <trkpt lat="-16.56102" lon="-68.05537">
        <ele>3804</ele>
        <time>2025-10-21T17:10:49Z</time>
      </trkpt>
      <trkpt lat="-16.56101" lon="-68.05545">
        <ele>3805</ele>
        <time>2025-10-21T17:10:57Z</time>
      </trkpt>
      <trkpt lat="-16.56108" lon="-68.05556">
        <ele>3806</ele>
        <time>2025-10-21T17:11:13Z</time>
      </trkpt>
      <trkpt lat="-16.56118" lon="-68.05562">
        <ele>3807</ele>
        <time>2025-10-21T17:11:31Z</time>
      </trkpt>
      <trkpt lat="-16.5612" lon="-68.05567">
        <ele>3806</ele>
        <time>2025-10-21T17:12:23Z</time>
      </trkpt>
      <trkpt lat="-16.56124" lon="-68.05568">
        <ele>3807</ele>
        <time>2025-10-21T17:12:59Z</time>
      </trkpt>
      <trkpt lat="-16.56126" lon="-68.05571">
        <ele>3808</ele>
        <time>2025-10-21T17:13:31Z</time>
      </trkpt>
      <trkpt lat="-16.56128" lon="-68.05576">
        <ele>3808</ele>
        <time>2025-10-21T17:13:37Z</time>
      </trkpt>
      <trkpt lat="-16.5613" lon="-68.05585">
        <ele>3809</ele>
        <time>2025-10-21T17:13:49Z</time>
      </trkpt>
      <trkpt lat="-16.5613" lon="-68.0559">
        <ele>3810</ele>
        <time>2025-10-21T17:13:55Z</time>
      </trkpt>
      <trkpt lat="-16.56129" lon="-68.05595">
        <ele>3810</ele>
        <time>2025-10-21T17:14:01Z</time>
      </trkpt>
      <trkpt lat="-16.56125" lon="-68.05606">
        <ele>3812</ele>
        <time>2025-10-21T17:14:13Z</time>
      </trkpt>
      <trkpt lat="-16.56123" lon="-68.05623">
        <ele>3814</ele>
        <time>2025-10-21T17:14:29Z</time>
      </trkpt>
      <trkpt lat="-16.56122" lon="-68.05627">
        <ele>3815</ele>
        <time>2025-10-21T17:14:33Z</time>
      </trkpt>
      <trkpt lat="-16.56121" lon="-68.0564">
        <ele>3817</ele>
        <time>2025-10-21T17:14:49Z</time>
      </trkpt>
      <trkpt lat="-16.56123" lon="-68.05644">
        <ele>3818</ele>
        <time>2025-10-21T17:15:01Z</time>
      </trkpt>
      <trkpt lat="-16.56127" lon="-68.05645">
        <ele>3819</ele>
        <time>2025-10-21T17:15:05Z</time>
      </trkpt>
      <trkpt lat="-16.56126" lon="-68.05649">
        <ele>3820</ele>
        <time>2025-10-21T17:15:17Z</time>
      </trkpt>
      <trkpt lat="-16.56125" lon="-68.05654">
        <ele>3819</ele>
        <time>2025-10-21T17:15:21Z</time>
      </trkpt>
      <trkpt lat="-16.56118" lon="-68.0566">
        <ele>3819</ele>
        <time>2025-10-21T17:15:29Z</time>
      </trkpt>
      <trkpt lat="-16.56117" lon="-68.05664">
        <ele>3818</ele>
        <time>2025-10-21T17:15:35Z</time>
      </trkpt>
      <trkpt lat="-16.56121" lon="-68.05663">
        <ele>3818</ele>
        <time>2025-10-21T17:15:37Z</time>
      </trkpt>
      <trkpt lat="-16.56123" lon="-68.05655">
        <ele>3819</ele>
        <time>2025-10-21T17:15:39Z</time>
      </trkpt>
      <trkpt lat="-16.56126" lon="-68.0565">
        <ele>3819</ele>
        <time>2025-10-21T17:15:43Z</time>
      </trkpt>
      <trkpt lat="-16.56126" lon="-68.05645">
        <ele>3820</ele>
        <time>2025-10-21T17:15:47Z</time>
      </trkpt>
      <trkpt lat="-16.56125" lon="-68.05641">
        <ele>3821</ele>
        <time>2025-10-21T17:15:51Z</time>
      </trkpt>
      <trkpt lat="-16.56126" lon="-68.05637">
        <ele>3821</ele>
        <time>2025-10-21T17:15:55Z</time>
      </trkpt>
      <trkpt lat="-16.56136" lon="-68.05628">
        <ele>3822</ele>
        <time>2025-10-21T17:16:07Z</time>
      </trkpt>
      <trkpt lat="-16.56143" lon="-68.05617">
        <ele>3823</ele>
        <time>2025-10-21T17:16:23Z</time>
      </trkpt>
      <trkpt lat="-16.56151" lon="-68.05612">
        <ele>3825</ele>
        <time>2025-10-21T17:16:35Z</time>
      </trkpt>
      <trkpt lat="-16.56155" lon="-68.05608">
        <ele>3826</ele>
        <time>2025-10-21T17:16:41Z</time>
      </trkpt>
      <trkpt lat="-16.56159" lon="-68.05608">
        <ele>3827</ele>
        <time>2025-10-21T17:16:47Z</time>
      </trkpt>
      <trkpt lat="-16.56175" lon="-68.05603">
        <ele>3828</ele>
        <time>2025-10-21T17:17:11Z</time>
      </trkpt>
      <trkpt lat="-16.5618" lon="-68.05597">
        <ele>3830</ele>
        <time>2025-10-21T17:17:23Z</time>
      </trkpt>
      <trkpt lat="-16.56181" lon="-68.05594">
        <ele>3829</ele>
        <time>2025-10-21T17:17:27Z</time>
      </trkpt>
      <trkpt lat="-16.56179" lon="-68.05567">
        <ele>3834</ele>
        <time>2025-10-21T17:17:59Z</time>
      </trkpt>
      <trkpt lat="-16.56177" lon="-68.0555">
        <ele>3837</ele>
        <time>2025-10-21T17:18:22Z</time>
      </trkpt>
      <trkpt lat="-16.56177" lon="-68.05546">
        <ele>3837</ele>
        <time>2025-10-21T17:18:28Z</time>
      </trkpt>
      <trkpt lat="-16.56176" lon="-68.05541">
        <ele>3837</ele>
        <time>2025-10-21T17:18:34Z</time>
      </trkpt>
      <trkpt lat="-16.56173" lon="-68.05538">
        <ele>3837</ele>
        <time>2025-10-21T17:18:40Z</time>
      </trkpt>
      <trkpt lat="-16.5617" lon="-68.05535">
        <ele>3838</ele>
        <time>2025-10-21T17:18:46Z</time>
      </trkpt>
      <trkpt lat="-16.56169" lon="-68.05527">
        <ele>3841</ele>
        <time>2025-10-21T17:18:58Z</time>
      </trkpt>
      <trkpt lat="-16.56169" lon="-68.05522">
        <ele>3843</ele>
        <time>2025-10-21T17:19:06Z</time>
      </trkpt>
      <trkpt lat="-16.56173" lon="-68.05511">
        <ele>3846</ele>
        <time>2025-10-21T17:19:26Z</time>
      </trkpt>
      <trkpt lat="-16.56178" lon="-68.05505">
        <ele>3848</ele>
        <time>2025-10-21T17:19:38Z</time>
      </trkpt>
      <trkpt lat="-16.56191" lon="-68.05499">
        <ele>3849</ele>
        <time>2025-10-21T17:19:56Z</time>
      </trkpt>
      <trkpt lat="-16.56199" lon="-68.05496">
        <ele>3850</ele>
        <time>2025-10-21T17:20:08Z</time>
      </trkpt>
      <trkpt lat="-16.56202" lon="-68.05494">
        <ele>3851</ele>
        <time>2025-10-21T17:20:14Z</time>
      </trkpt>
      <trkpt lat="-16.56201" lon="-68.0549">
        <ele>3853</ele>
        <time>2025-10-21T17:20:20Z</time>
      </trkpt>
      <trkpt lat="-16.56202" lon="-68.05487">
        <ele>3858</ele>
        <time>2025-10-21T17:20:30Z</time>
      </trkpt>
      <trkpt lat="-16.56206" lon="-68.05487">
        <ele>3859</ele>
        <time>2025-10-21T17:20:36Z</time>
      </trkpt>
      <trkpt lat="-16.56214" lon="-68.05486">
        <ele>3860</ele>
        <time>2025-10-21T17:20:44Z</time>
      </trkpt>
      <trkpt lat="-16.56228" lon="-68.05474">
        <ele>3857</ele>
        <time>2025-10-21T17:21:08Z</time>
      </trkpt>
      <trkpt lat="-16.56235" lon="-68.05468">
        <ele>3859</ele>
        <time>2025-10-21T17:21:20Z</time>
      </trkpt>
      <trkpt lat="-16.56243" lon="-68.05458">
        <ele>3860</ele>
        <time>2025-10-21T17:21:38Z</time>
      </trkpt>
      <trkpt lat="-16.56252" lon="-68.05448">
        <ele>3862</ele>
        <time>2025-10-21T17:21:56Z</time>
      </trkpt>
      <trkpt lat="-16.56263" lon="-68.05442">
        <ele>3864</ele>
        <time>2025-10-21T17:22:14Z</time>
      </trkpt>
      <trkpt lat="-16.5627" lon="-68.05438">
        <ele>3866</ele>
        <time>2025-10-21T17:22:26Z</time>
      </trkpt>
      <trkpt lat="-16.5628" lon="-68.05432">
        <ele>3869</ele>
        <time>2025-10-21T17:22:44Z</time>
      </trkpt>
      <trkpt lat="-16.56284" lon="-68.05431">
        <ele>3869</ele>
        <time>2025-10-21T17:22:50Z</time>
      </trkpt>
      <trkpt lat="-16.56288" lon="-68.05432">
        <ele>3870</ele>
        <time>2025-10-21T17:22:56Z</time>
      </trkpt>
      <trkpt lat="-16.5629" lon="-68.05435">
        <ele>3871</ele>
        <time>2025-10-21T17:23:02Z</time>
      </trkpt>
      <trkpt lat="-16.5629" lon="-68.05439">
        <ele>3871</ele>
        <time>2025-10-21T17:23:08Z</time>
      </trkpt>
      <trkpt lat="-16.5629" lon="-68.05443">
        <ele>3871</ele>
        <time>2025-10-21T17:23:14Z</time>
      </trkpt>
      <trkpt lat="-16.56293" lon="-68.05457">
        <ele>3869</ele>
        <time>2025-10-21T17:23:30Z</time>
      </trkpt>
      <trkpt lat="-16.56293" lon="-68.05462">
        <ele>3869</ele>
        <time>2025-10-21T17:23:34Z</time>
      </trkpt>
      <trkpt lat="-16.56294" lon="-68.05466">
        <ele>3869</ele>
        <time>2025-10-21T17:23:38Z</time>
      </trkpt>
      <trkpt lat="-16.56295" lon="-68.05471">
        <ele>3868</ele>
        <time>2025-10-21T17:23:42Z</time>
      </trkpt>
      <trkpt lat="-16.56297" lon="-68.05475">
        <ele>3868</ele>
        <time>2025-10-21T17:23:46Z</time>
      </trkpt>
      <trkpt lat="-16.56297" lon="-68.0548">
        <ele>3867</ele>
        <time>2025-10-21T17:23:50Z</time>
      </trkpt>
      <trkpt lat="-16.56297" lon="-68.05484">
        <ele>3867</ele>
        <time>2025-10-21T17:23:54Z</time>
      </trkpt>
      <trkpt lat="-16.56296" lon="-68.05493">
        <ele>3867</ele>
        <time>2025-10-21T17:24:02Z</time>
      </trkpt>
      <trkpt lat="-16.56286" lon="-68.0551">
        <ele>3871</ele>
        <time>2025-10-21T17:24:24Z</time>
      </trkpt>
      <trkpt lat="-16.56284" lon="-68.05513">
        <ele>3872</ele>
        <time>2025-10-21T17:24:30Z</time>
      </trkpt>
      <trkpt lat="-16.56282" lon="-68.05516">
        <ele>3873</ele>
        <time>2025-10-21T17:24:36Z</time>
      </trkpt>
      <trkpt lat="-16.56281" lon="-68.05536">
        <ele>3874</ele>
        <time>2025-10-21T17:24:56Z</time>
      </trkpt>
      <trkpt lat="-16.56282" lon="-68.05541">
        <ele>3874</ele>
        <time>2025-10-21T17:25:00Z</time>
      </trkpt>
      <trkpt lat="-16.56281" lon="-68.05545">
        <ele>3873</ele>
        <time>2025-10-21T17:25:04Z</time>
      </trkpt>
      <trkpt lat="-16.56283" lon="-68.05561">
        <ele>3874</ele>
        <time>2025-10-21T17:25:22Z</time>
      </trkpt>
      <trkpt lat="-16.56283" lon="-68.05565">
        <ele>3873</ele>
        <time>2025-10-21T17:25:26Z</time>
      </trkpt>
      <trkpt lat="-16.56283" lon="-68.05573">
        <ele>3873</ele>
        <time>2025-10-21T17:25:34Z</time>
      </trkpt>
      <trkpt lat="-16.56278" lon="-68.0558">
        <ele>3872</ele>
        <time>2025-10-21T17:25:58Z</time>
      </trkpt>
      <trkpt lat="-16.56277" lon="-68.05578">
        <ele>3872</ele>
        <time>2025-10-21T17:26:10Z</time>
      </trkpt>
      <trkpt lat="-16.5628" lon="-68.05581">
        <ele>3873</ele>
        <time>2025-10-21T17:27:06Z</time>
      </trkpt>
      <trkpt lat="-16.56276" lon="-68.05582">
        <ele>3873</ele>
        <time>2025-10-21T17:27:14Z</time>
      </trkpt>
      <trkpt lat="-16.56273" lon="-68.05585">
        <ele>3874</ele>
        <time>2025-10-21T17:27:20Z</time>
      </trkpt>
      <trkpt lat="-16.56274" lon="-68.05589">
        <ele>3875</ele>
        <time>2025-10-21T17:27:26Z</time>
      </trkpt>
      <trkpt lat="-16.56273" lon="-68.05592">
        <ele>3876</ele>
        <time>2025-10-21T17:28:04Z</time>
      </trkpt>
      <trkpt lat="-16.5627" lon="-68.05594">
        <ele>3877</ele>
        <time>2025-10-21T17:28:10Z</time>
      </trkpt>
      <trkpt lat="-16.56269" lon="-68.05598">
        <ele>3878</ele>
        <time>2025-10-21T17:28:16Z</time>
      </trkpt>
      <trkpt lat="-16.56271" lon="-68.05602">
        <ele>3878</ele>
        <time>2025-10-21T17:28:22Z</time>
      </trkpt>
      <trkpt lat="-16.56267" lon="-68.05605">
        <ele>3878</ele>
        <time>2025-10-21T17:28:28Z</time>
      </trkpt>
      <trkpt lat="-16.5626" lon="-68.05608">
        <ele>3881</ele>
        <time>2025-10-21T17:28:40Z</time>
      </trkpt>
      <trkpt lat="-16.56261" lon="-68.05613">
        <ele>3883</ele>
        <time>2025-10-21T17:28:46Z</time>
      </trkpt>
      <trkpt lat="-16.56258" lon="-68.05615">
        <ele>3884</ele>
        <time>2025-10-21T17:28:54Z</time>
      </trkpt>
      <trkpt lat="-16.56255" lon="-68.05617">
        <ele>3885</ele>
        <time>2025-10-21T17:29:02Z</time>
      </trkpt>
      <trkpt lat="-16.56252" lon="-68.05619">
        <ele>3886</ele>
        <time>2025-10-21T17:29:12Z</time>
      </trkpt>
      <trkpt lat="-16.56255" lon="-68.05622">
        <ele>3888</ele>
        <time>2025-10-21T17:29:30Z</time>
      </trkpt>
      <trkpt lat="-16.56256" lon="-68.05627">
        <ele>3890</ele>
        <time>2025-10-21T17:29:36Z</time>
      </trkpt>
      <trkpt lat="-16.56257" lon="-68.05632">
        <ele>3891</ele>
        <time>2025-10-21T17:29:44Z</time>
      </trkpt>
      <trkpt lat="-16.56256" lon="-68.05635">
        <ele>3892</ele>
        <time>2025-10-21T17:29:56Z</time>
      </trkpt>
      <trkpt lat="-16.56258" lon="-68.05638">
        <ele>3894</ele>
        <time>2025-10-21T17:30:10Z</time>
      </trkpt>
      <trkpt lat="-16.56263" lon="-68.05638">
        <ele>3896</ele>
        <time>2025-10-21T17:30:14Z</time>
      </trkpt>
      <trkpt lat="-16.56264" lon="-68.05642">
        <ele>3897</ele>
        <time>2025-10-21T17:31:02Z</time>
      </trkpt>
      <trkpt lat="-16.56262" lon="-68.0564">
        <ele>3897</ele>
        <time>2025-10-21T17:31:28Z</time>
      </trkpt>
      <trkpt lat="-16.56262" lon="-68.05637">
        <ele>3897</ele>
        <time>2025-10-21T17:31:46Z</time>
      </trkpt>
      <trkpt lat="-16.56254" lon="-68.0564">
        <ele>3898</ele>
        <time>2025-10-21T17:32:20Z</time>
      </trkpt>
      <trkpt lat="-16.56252" lon="-68.05642">
        <ele>3904</ele>
        <time>2025-10-21T17:32:58Z</time>
      </trkpt>
      <trkpt lat="-16.56249" lon="-68.05645">
        <ele>3905</ele>
        <time>2025-10-21T17:33:04Z</time>
      </trkpt>
      <trkpt lat="-16.56245" lon="-68.05646">
        <ele>3907</ele>
        <time>2025-10-21T17:33:08Z</time>
      </trkpt>
      <trkpt lat="-16.56244" lon="-68.0565">
        <ele>3908</ele>
        <time>2025-10-21T17:33:16Z</time>
      </trkpt>
      <trkpt lat="-16.56243" lon="-68.05654">
        <ele>3909</ele>
        <time>2025-10-21T17:33:28Z</time>
      </trkpt>
      <trkpt lat="-16.56244" lon="-68.05658">
        <ele>3912</ele>
        <time>2025-10-21T17:33:40Z</time>
      </trkpt>
      <trkpt lat="-16.5624" lon="-68.05657">
        <ele>3914</ele>
        <time>2025-10-21T17:34:32Z</time>
      </trkpt>
      <trkpt lat="-16.56238" lon="-68.05654">
        <ele>3916</ele>
        <time>2025-10-21T17:34:48Z</time>
      </trkpt>
      <trkpt lat="-16.56231" lon="-68.05657">
        <ele>3921</ele>
        <time>2025-10-21T17:35:16Z</time>
      </trkpt>
      <trkpt lat="-16.56227" lon="-68.05659">
        <ele>3922</ele>
        <time>2025-10-21T17:35:22Z</time>
      </trkpt>
      <trkpt lat="-16.56229" lon="-68.05662">
        <ele>3922</ele>
        <time>2025-10-21T17:35:26Z</time>
      </trkpt>
      <trkpt lat="-16.56233" lon="-68.05663">
        <ele>3921</ele>
        <time>2025-10-21T17:35:56Z</time>
      </trkpt>
      <trkpt lat="-16.56234" lon="-68.05667">
        <ele>3920</ele>
        <time>2025-10-21T17:36:44Z</time>
      </trkpt>
      <trkpt lat="-16.56235" lon="-68.05671">
        <ele>3922</ele>
        <time>2025-10-21T17:36:52Z</time>
      </trkpt>
      <trkpt lat="-16.56237" lon="-68.05675">
        <ele>3923</ele>
        <time>2025-10-21T17:37:04Z</time>
      </trkpt>
      <trkpt lat="-16.56238" lon="-68.05677">
        <ele>3926</ele>
        <time>2025-10-21T17:38:29Z</time>
      </trkpt>
      <trkpt lat="-16.56241" lon="-68.05678">
        <ele>3925</ele>
        <time>2025-10-21T17:38:49Z</time>
      </trkpt>
      <trkpt lat="-16.56242" lon="-68.05681">
        <ele>3926</ele>
        <time>2025-10-21T17:39:15Z</time>
      </trkpt>
      <trkpt lat="-16.56239" lon="-68.05683">
        <ele>3926</ele>
        <time>2025-10-21T17:39:53Z</time>
      </trkpt>
      <trkpt lat="-16.56238" lon="-68.05687">
        <ele>3926</ele>
        <time>2025-10-21T17:39:59Z</time>
      </trkpt>
      <trkpt lat="-16.5624" lon="-68.05691">
        <ele>3923</ele>
        <time>2025-10-21T17:41:07Z</time>
      </trkpt>
      <trkpt lat="-16.56241" lon="-68.05695">
        <ele>3923</ele>
        <time>2025-10-21T17:41:15Z</time>
      </trkpt>
      <trkpt lat="-16.56244" lon="-68.05704">
        <ele>3925</ele>
        <time>2025-10-21T17:41:49Z</time>
      </trkpt>
      <trkpt lat="-16.56245" lon="-68.05703">
        <ele>3926</ele>
        <time>2025-10-21T17:42:44Z</time>
      </trkpt>
      <trkpt lat="-16.56243" lon="-68.05699">
        <ele>3926</ele>
        <time>2025-10-21T17:43:06Z</time>
      </trkpt>
      <trkpt lat="-16.56242" lon="-68.05696">
        <ele>3926</ele>
        <time>2025-10-21T17:43:12Z</time>
      </trkpt>
      <trkpt lat="-16.5624" lon="-68.05693">
        <ele>3926</ele>
        <time>2025-10-21T17:43:16Z</time>
      </trkpt>
      <trkpt lat="-16.56239" lon="-68.05689">
        <ele>3927</ele>
        <time>2025-10-21T17:43:30Z</time>
      </trkpt>
      <trkpt lat="-16.56241" lon="-68.05686">
        <ele>3926</ele>
        <time>2025-10-21T17:44:04Z</time>
      </trkpt>
      <trkpt lat="-16.56242" lon="-68.05681">
        <ele>3922</ele>
        <time>2025-10-21T17:45:22Z</time>
      </trkpt>
      <trkpt lat="-16.56243" lon="-68.05682">
        <ele>3922</ele>
        <time>2025-10-21T17:45:32Z</time>
      </trkpt>
      <trkpt lat="-16.56243" lon="-68.05687">
        <ele>3920</ele>
        <time>2025-10-21T17:45:44Z</time>
      </trkpt>
      <trkpt lat="-16.56241" lon="-68.05691">
        <ele>3920</ele>
        <time>2025-10-21T17:45:48Z</time>
      </trkpt>
      <trkpt lat="-16.56242" lon="-68.05694">
        <ele>3922</ele>
        <time>2025-10-21T17:46:34Z</time>
      </trkpt>
      <trkpt lat="-16.56242" lon="-68.05698">
        <ele>3922</ele>
        <time>2025-10-21T17:46:46Z</time>
      </trkpt>
      <trkpt lat="-16.56243" lon="-68.057">
        <ele>3923</ele>
        <time>2025-10-21T17:59:32Z</time>
      </trkpt>
      <trkpt lat="-16.56242" lon="-68.05698">
        <ele>3924</ele>
        <time>2025-10-21T18:05:17Z</time>
      </trkpt>
      <trkpt lat="-16.56243" lon="-68.05696">
        <ele>3924</ele>
        <time>2025-10-21T18:06:51Z</time>
      </trkpt>
      <trkpt lat="-16.56242" lon="-68.05693">
        <ele>3924</ele>
        <time>2025-10-21T18:07:51Z</time>
      </trkpt>
      <trkpt lat="-16.56237" lon="-68.05686">
        <ele>3925</ele>
        <time>2025-10-21T18:08:42Z</time>
      </trkpt>
      <trkpt lat="-16.5624" lon="-68.05684">
        <ele>3925</ele>
        <time>2025-10-21T18:09:37Z</time>
      </trkpt>
      <trkpt lat="-16.56241" lon="-68.05681">
        <ele>3925</ele>
        <time>2025-10-21T18:09:51Z</time>
      </trkpt>
      <trkpt lat="-16.56238" lon="-68.05679">
        <ele>3927</ele>
        <time>2025-10-21T18:10:11Z</time>
      </trkpt>
      <trkpt lat="-16.56239" lon="-68.05679">
        <ele>3929</ele>
        <time>2025-10-21T18:12:09Z</time>
      </trkpt>
      <trkpt lat="-16.56238" lon="-68.05685">
        <ele>3928</ele>
        <time>2025-10-21T18:12:17Z</time>
      </trkpt>
      <trkpt lat="-16.56235" lon="-68.05683">
        <ele>3927</ele>
        <time>2025-10-21T18:12:21Z</time>
      </trkpt>
      <trkpt lat="-16.56236" lon="-68.05684">
        <ele>3924</ele>
        <time>2025-10-21T18:12:35Z</time>
      </trkpt>
      <trkpt lat="-16.56239" lon="-68.05682">
        <ele>3924</ele>
        <time>2025-10-21T18:12:47Z</time>
      </trkpt>
      <trkpt lat="-16.56243" lon="-68.0568">
        <ele>3926</ele>
        <time>2025-10-21T18:13:07Z</time>
      </trkpt>
      <trkpt lat="-16.56242" lon="-68.05677">
        <ele>3926</ele>
        <time>2025-10-21T18:13:13Z</time>
      </trkpt>
      <trkpt lat="-16.56239" lon="-68.05674">
        <ele>3926</ele>
        <time>2025-10-21T18:13:19Z</time>
      </trkpt>
      <trkpt lat="-16.56237" lon="-68.05672">
        <ele>3927</ele>
        <time>2025-10-21T18:13:33Z</time>
      </trkpt>
      <trkpt lat="-16.56234" lon="-68.05669">
        <ele>3926</ele>
        <time>2025-10-21T18:13:57Z</time>
      </trkpt>
      <trkpt lat="-16.56233" lon="-68.05665">
        <ele>3925</ele>
        <time>2025-10-21T18:14:17Z</time>
      </trkpt>
      <trkpt lat="-16.56231" lon="-68.05663">
        <ele>3922</ele>
        <time>2025-10-21T18:14:35Z</time>
      </trkpt>
      <trkpt lat="-16.56233" lon="-68.05659">
        <ele>3921</ele>
        <time>2025-10-21T18:15:49Z</time>
      </trkpt>
      <trkpt lat="-16.56233" lon="-68.05655">
        <ele>3921</ele>
        <time>2025-10-21T18:15:59Z</time>
      </trkpt>
      <trkpt lat="-16.56234" lon="-68.05652">
        <ele>3920</ele>
        <time>2025-10-21T18:16:11Z</time>
      </trkpt>
      <trkpt lat="-16.56237" lon="-68.05655">
        <ele>3919</ele>
        <time>2025-10-21T18:16:23Z</time>
      </trkpt>
      <trkpt lat="-16.56241" lon="-68.05656">
        <ele>3918</ele>
        <time>2025-10-21T18:16:33Z</time>
      </trkpt>
      <trkpt lat="-16.56245" lon="-68.05657">
        <ele>3916</ele>
        <time>2025-10-21T18:16:45Z</time>
      </trkpt>
      <trkpt lat="-16.56248" lon="-68.05658">
        <ele>3915</ele>
        <time>2025-10-21T18:17:17Z</time>
      </trkpt>
      <trkpt lat="-16.56248" lon="-68.05654">
        <ele>3914</ele>
        <time>2025-10-21T18:17:27Z</time>
      </trkpt>
      <trkpt lat="-16.56249" lon="-68.0565">
        <ele>3913</ele>
        <time>2025-10-21T18:17:37Z</time>
      </trkpt>
      <trkpt lat="-16.5625" lon="-68.05646">
        <ele>3911</ele>
        <time>2025-10-21T18:17:51Z</time>
      </trkpt>
      <trkpt lat="-16.56258" lon="-68.05643">
        <ele>3905</ele>
        <time>2025-10-21T18:18:13Z</time>
      </trkpt>
      <trkpt lat="-16.56254" lon="-68.05642">
        <ele>3904</ele>
        <time>2025-10-21T18:18:25Z</time>
      </trkpt>
      <trkpt lat="-16.56257" lon="-68.0564">
        <ele>3903</ele>
        <time>2025-10-21T18:18:58Z</time>
      </trkpt>
      <trkpt lat="-16.5626" lon="-68.05639">
        <ele>3900</ele>
        <time>2025-10-21T18:19:46Z</time>
      </trkpt>
      <trkpt lat="-16.56265" lon="-68.05641">
        <ele>3899</ele>
        <time>2025-10-21T18:20:12Z</time>
      </trkpt>
      <trkpt lat="-16.56267" lon="-68.05638">
        <ele>3897</ele>
        <time>2025-10-21T18:20:58Z</time>
      </trkpt>
      <trkpt lat="-16.56266" lon="-68.05635">
        <ele>3897</ele>
        <time>2025-10-21T18:21:04Z</time>
      </trkpt>
      <trkpt lat="-16.56262" lon="-68.05634">
        <ele>3898</ele>
        <time>2025-10-21T18:21:18Z</time>
      </trkpt>
      <trkpt lat="-16.56263" lon="-68.0563">
        <ele>3898</ele>
        <time>2025-10-21T18:21:34Z</time>
      </trkpt>
      <trkpt lat="-16.56261" lon="-68.05626">
        <ele>3897</ele>
        <time>2025-10-21T18:21:40Z</time>
      </trkpt>
      <trkpt lat="-16.56259" lon="-68.05623">
        <ele>3896</ele>
        <time>2025-10-21T18:21:46Z</time>
      </trkpt>
      <trkpt lat="-16.56257" lon="-68.05619">
        <ele>3893</ele>
        <time>2025-10-21T18:21:58Z</time>
      </trkpt>
      <trkpt lat="-16.56259" lon="-68.05616">
        <ele>3892</ele>
        <time>2025-10-21T18:22:04Z</time>
      </trkpt>
      <trkpt lat="-16.56263" lon="-68.05614">
        <ele>3889</ele>
        <time>2025-10-21T18:22:12Z</time>
      </trkpt>
      <trkpt lat="-16.56263" lon="-68.05609">
        <ele>3888</ele>
        <time>2025-10-21T18:22:20Z</time>
      </trkpt>
      <trkpt lat="-16.56269" lon="-68.05604">
        <ele>3883</ele>
        <time>2025-10-21T18:22:34Z</time>
      </trkpt>
      <trkpt lat="-16.56269" lon="-68.05601">
        <ele>3882</ele>
        <time>2025-10-21T18:22:38Z</time>
      </trkpt>
      <trkpt lat="-16.56269" lon="-68.05596">
        <ele>3880</ele>
        <time>2025-10-21T18:22:44Z</time>
      </trkpt>
      <trkpt lat="-16.56273" lon="-68.05595">
        <ele>3880</ele>
        <time>2025-10-21T18:22:50Z</time>
      </trkpt>
      <trkpt lat="-16.56276" lon="-68.05592">
        <ele>3877</ele>
        <time>2025-10-21T18:22:56Z</time>
      </trkpt>
      <trkpt lat="-16.56274" lon="-68.05588">
        <ele>3877</ele>
        <time>2025-10-21T18:23:02Z</time>
      </trkpt>
      <trkpt lat="-16.56273" lon="-68.05584">
        <ele>3875</ele>
        <time>2025-10-21T18:23:08Z</time>
      </trkpt>
      <trkpt lat="-16.56276" lon="-68.05582">
        <ele>3875</ele>
        <time>2025-10-21T18:23:14Z</time>
      </trkpt>
      <trkpt lat="-16.56279" lon="-68.05578">
        <ele>3873</ele>
        <time>2025-10-21T18:23:20Z</time>
      </trkpt>
      <trkpt lat="-16.56282" lon="-68.05563">
        <ele>3873</ele>
        <time>2025-10-21T18:23:38Z</time>
      </trkpt>
      <trkpt lat="-16.56281" lon="-68.05554">
        <ele>3873</ele>
        <time>2025-10-21T18:23:50Z</time>
      </trkpt>
      <trkpt lat="-16.56278" lon="-68.05549">
        <ele>3873</ele>
        <time>2025-10-21T18:23:56Z</time>
      </trkpt>
      <trkpt lat="-16.56277" lon="-68.05546">
        <ele>3873</ele>
        <time>2025-10-21T18:24:00Z</time>
      </trkpt>
      <trkpt lat="-16.56279" lon="-68.05542">
        <ele>3873</ele>
        <time>2025-10-21T18:24:06Z</time>
      </trkpt>
      <trkpt lat="-16.5628" lon="-68.05538">
        <ele>3874</ele>
        <time>2025-10-21T18:24:10Z</time>
      </trkpt>
      <trkpt lat="-16.5628" lon="-68.05529">
        <ele>3874</ele>
        <time>2025-10-21T18:24:22Z</time>
      </trkpt>
      <trkpt lat="-16.5628" lon="-68.05525">
        <ele>3875</ele>
        <time>2025-10-21T18:24:26Z</time>
      </trkpt>
      <trkpt lat="-16.5628" lon="-68.05521">
        <ele>3875</ele>
        <time>2025-10-21T18:24:30Z</time>
      </trkpt>
      <trkpt lat="-16.56282" lon="-68.05518">
        <ele>3875</ele>
        <time>2025-10-21T18:24:34Z</time>
      </trkpt>
      <trkpt lat="-16.56283" lon="-68.05514">
        <ele>3874</ele>
        <time>2025-10-21T18:24:38Z</time>
      </trkpt>
      <trkpt lat="-16.56295" lon="-68.05498">
        <ele>3872</ele>
        <time>2025-10-21T18:25:00Z</time>
      </trkpt>
      <trkpt lat="-16.56296" lon="-68.05494">
        <ele>3871</ele>
        <time>2025-10-21T18:25:04Z</time>
      </trkpt>
      <trkpt lat="-16.56297" lon="-68.0549">
        <ele>3870</ele>
        <time>2025-10-21T18:25:08Z</time>
      </trkpt>
      <trkpt lat="-16.56298" lon="-68.05485">
        <ele>3870</ele>
        <time>2025-10-21T18:25:12Z</time>
      </trkpt>
      <trkpt lat="-16.56298" lon="-68.05481">
        <ele>3870</ele>
        <time>2025-10-21T18:25:16Z</time>
      </trkpt>
      <trkpt lat="-16.56295" lon="-68.05472">
        <ele>3871</ele>
        <time>2025-10-21T18:25:26Z</time>
      </trkpt>
      <trkpt lat="-16.56291" lon="-68.0544">
        <ele>3872</ele>
        <time>2025-10-21T18:25:58Z</time>
      </trkpt>
      <trkpt lat="-16.5629" lon="-68.05436">
        <ele>3872</ele>
        <time>2025-10-21T18:26:02Z</time>
      </trkpt>
      <trkpt lat="-16.56289" lon="-68.05432">
        <ele>3872</ele>
        <time>2025-10-21T18:26:06Z</time>
      </trkpt>
      <trkpt lat="-16.56285" lon="-68.0543">
        <ele>3872</ele>
        <time>2025-10-21T18:26:10Z</time>
      </trkpt>
      <trkpt lat="-16.56282" lon="-68.0543">
        <ele>3871</ele>
        <time>2025-10-21T18:26:14Z</time>
      </trkpt>
      <trkpt lat="-16.56271" lon="-68.05435">
        <ele>3869</ele>
        <time>2025-10-21T18:26:28Z</time>
      </trkpt>
      <trkpt lat="-16.56257" lon="-68.05444">
        <ele>3864</ele>
        <time>2025-10-21T18:26:46Z</time>
      </trkpt>
      <trkpt lat="-16.56241" lon="-68.0546">
        <ele>3860</ele>
        <time>2025-10-21T18:27:14Z</time>
      </trkpt>
      <trkpt lat="-16.56229" lon="-68.05471">
        <ele>3858</ele>
        <time>2025-10-21T18:27:30Z</time>
      </trkpt>
      <trkpt lat="-16.56226" lon="-68.05474">
        <ele>3857</ele>
        <time>2025-10-21T18:27:34Z</time>
      </trkpt>
      <trkpt lat="-16.56223" lon="-68.05478">
        <ele>3857</ele>
        <time>2025-10-21T18:27:38Z</time>
      </trkpt>
      <trkpt lat="-16.56218" lon="-68.05486">
        <ele>3856</ele>
        <time>2025-10-21T18:27:46Z</time>
      </trkpt>
      <trkpt lat="-16.56215" lon="-68.05489">
        <ele>3856</ele>
        <time>2025-10-21T18:27:50Z</time>
      </trkpt>
      <trkpt lat="-16.56211" lon="-68.05489">
        <ele>3855</ele>
        <time>2025-10-21T18:27:54Z</time>
      </trkpt>
      <trkpt lat="-16.56207" lon="-68.0549">
        <ele>3855</ele>
        <time>2025-10-21T18:27:58Z</time>
      </trkpt>
      <trkpt lat="-16.5619" lon="-68.05498">
        <ele>3852</ele>
        <time>2025-10-21T18:28:14Z</time>
      </trkpt>
      <trkpt lat="-16.56186" lon="-68.055">
        <ele>3851</ele>
        <time>2025-10-21T18:28:18Z</time>
      </trkpt>
      <trkpt lat="-16.56181" lon="-68.05502">
        <ele>3850</ele>
        <time>2025-10-21T18:28:22Z</time>
      </trkpt>
      <trkpt lat="-16.56173" lon="-68.05507">
        <ele>3849</ele>
        <time>2025-10-21T18:28:30Z</time>
      </trkpt>
      <trkpt lat="-16.56169" lon="-68.05517">
        <ele>3849</ele>
        <time>2025-10-21T18:28:38Z</time>
      </trkpt>
      <trkpt lat="-16.56167" lon="-68.0552">
        <ele>3848</ele>
        <time>2025-10-21T18:28:42Z</time>
      </trkpt>
      <trkpt lat="-16.56165" lon="-68.05528">
        <ele>3847</ele>
        <time>2025-10-21T18:28:50Z</time>
      </trkpt>
      <trkpt lat="-16.56165" lon="-68.05533">
        <ele>3846</ele>
        <time>2025-10-21T18:28:54Z</time>
      </trkpt>
      <trkpt lat="-16.56173" lon="-68.05552">
        <ele>3842</ele>
        <time>2025-10-21T18:29:14Z</time>
      </trkpt>
      <trkpt lat="-16.56174" lon="-68.0556">
        <ele>3841</ele>
        <time>2025-10-21T18:29:22Z</time>
      </trkpt>
      <trkpt lat="-16.56174" lon="-68.05576">
        <ele>3838</ele>
        <time>2025-10-21T18:29:38Z</time>
      </trkpt>
      <trkpt lat="-16.56175" lon="-68.05581">
        <ele>3837</ele>
        <time>2025-10-21T18:29:42Z</time>
      </trkpt>
      <trkpt lat="-16.56176" lon="-68.05585">
        <ele>3836</ele>
        <time>2025-10-21T18:29:46Z</time>
      </trkpt>
      <trkpt lat="-16.56179" lon="-68.05588">
        <ele>3835</ele>
        <time>2025-10-21T18:29:56Z</time>
      </trkpt>
      <trkpt lat="-16.56179" lon="-68.05593">
        <ele>3834</ele>
        <time>2025-10-21T18:30:00Z</time>
      </trkpt>
      <trkpt lat="-16.56178" lon="-68.05596">
        <ele>3833</ele>
        <time>2025-10-21T18:30:04Z</time>
      </trkpt>
      <trkpt lat="-16.56176" lon="-68.056">
        <ele>3832</ele>
        <time>2025-10-21T18:30:10Z</time>
      </trkpt>
      <trkpt lat="-16.5617" lon="-68.05605">
        <ele>3830</ele>
        <time>2025-10-21T18:30:18Z</time>
      </trkpt>
      <trkpt lat="-16.56165" lon="-68.05605">
        <ele>3828</ele>
        <time>2025-10-21T18:30:22Z</time>
      </trkpt>
      <trkpt lat="-16.56139" lon="-68.05621">
        <ele>3822</ele>
        <time>2025-10-21T18:30:52Z</time>
      </trkpt>
      <trkpt lat="-16.56135" lon="-68.05629">
        <ele>3821</ele>
        <time>2025-10-21T18:31:00Z</time>
      </trkpt>
      <trkpt lat="-16.56132" lon="-68.05632">
        <ele>3820</ele>
        <time>2025-10-21T18:31:04Z</time>
      </trkpt>
      <trkpt lat="-16.56129" lon="-68.05634">
        <ele>3819</ele>
        <time>2025-10-21T18:31:08Z</time>
      </trkpt>
      <trkpt lat="-16.56126" lon="-68.05637">
        <ele>3819</ele>
        <time>2025-10-21T18:31:12Z</time>
      </trkpt>
      <trkpt lat="-16.56124" lon="-68.05634">
        <ele>3820</ele>
        <time>2025-10-21T18:31:46Z</time>
      </trkpt>
      <trkpt lat="-16.56123" lon="-68.0563">
        <ele>3820</ele>
        <time>2025-10-21T18:31:56Z</time>
      </trkpt>
      <trkpt lat="-16.56126" lon="-68.05605">
        <ele>3817</ele>
        <time>2025-10-21T18:32:20Z</time>
      </trkpt>
      <trkpt lat="-16.56129" lon="-68.05597">
        <ele>3816</ele>
        <time>2025-10-21T18:32:28Z</time>
      </trkpt>
      <trkpt lat="-16.56131" lon="-68.05589">
        <ele>3814</ele>
        <time>2025-10-21T18:32:36Z</time>
      </trkpt>
      <trkpt lat="-16.56131" lon="-68.05584">
        <ele>3813</ele>
        <time>2025-10-21T18:32:40Z</time>
      </trkpt>
      <trkpt lat="-16.56131" lon="-68.05579">
        <ele>3810</ele>
        <time>2025-10-21T18:32:44Z</time>
      </trkpt>
      <trkpt lat="-16.5613" lon="-68.05575">
        <ele>3810</ele>
        <time>2025-10-21T18:32:48Z</time>
      </trkpt>
      <trkpt lat="-16.56128" lon="-68.05572">
        <ele>3810</ele>
        <time>2025-10-21T18:32:52Z</time>
      </trkpt>
      <trkpt lat="-16.56124" lon="-68.05569">
        <ele>3810</ele>
        <time>2025-10-21T18:32:56Z</time>
      </trkpt>
      <trkpt lat="-16.56111" lon="-68.05558">
        <ele>3809</ele>
        <time>2025-10-21T18:33:12Z</time>
      </trkpt>
      <trkpt lat="-16.56102" lon="-68.05549">
        <ele>3808</ele>
        <time>2025-10-21T18:33:24Z</time>
      </trkpt>
      <trkpt lat="-16.561" lon="-68.05544">
        <ele>3807</ele>
        <time>2025-10-21T18:33:28Z</time>
      </trkpt>
      <trkpt lat="-16.56101" lon="-68.05539">
        <ele>3807</ele>
        <time>2025-10-21T18:33:32Z</time>
      </trkpt>
      <trkpt lat="-16.56104" lon="-68.05531">
        <ele>3806</ele>
        <time>2025-10-21T18:33:40Z</time>
      </trkpt>
      <trkpt lat="-16.56105" lon="-68.05526">
        <ele>3805</ele>
        <time>2025-10-21T18:33:44Z</time>
      </trkpt>
      <trkpt lat="-16.56106" lon="-68.05521">
        <ele>3804</ele>
        <time>2025-10-21T18:33:48Z</time>
      </trkpt>
      <trkpt lat="-16.56105" lon="-68.05517">
        <ele>3803</ele>
        <time>2025-10-21T18:33:52Z</time>
      </trkpt>
      <trkpt lat="-16.56105" lon="-68.05507">
        <ele>3800</ele>
        <time>2025-10-21T18:34:00Z</time>
      </trkpt>
      <trkpt lat="-16.56106" lon="-68.05493">
        <ele>3796</ele>
        <time>2025-10-21T18:34:12Z</time>
      </trkpt>
      <trkpt lat="-16.56105" lon="-68.05488">
        <ele>3796</ele>
        <time>2025-10-21T18:34:16Z</time>
      </trkpt>
      <trkpt lat="-16.56104" lon="-68.0545">
        <ele>3797</ele>
        <time>2025-10-21T18:34:48Z</time>
      </trkpt>
      <trkpt lat="-16.56105" lon="-68.05442">
        <ele>3796</ele>
        <time>2025-10-21T18:34:56Z</time>
      </trkpt>
      <trkpt lat="-16.56106" lon="-68.05438">
        <ele>3796</ele>
        <time>2025-10-21T18:35:00Z</time>
      </trkpt>
      <trkpt lat="-16.56109" lon="-68.05435">
        <ele>3795</ele>
        <time>2025-10-21T18:35:04Z</time>
      </trkpt>
      <trkpt lat="-16.56114" lon="-68.05427">
        <ele>3793</ele>
        <time>2025-10-21T18:35:12Z</time>
      </trkpt>
      <trkpt lat="-16.56118" lon="-68.05408">
        <ele>3792</ele>
        <time>2025-10-21T18:35:28Z</time>
      </trkpt>
      <trkpt lat="-16.56136" lon="-68.05374">
        <ele>3786</ele>
        <time>2025-10-21T18:36:00Z</time>
      </trkpt>
      <trkpt lat="-16.56137" lon="-68.05369">
        <ele>3786</ele>
        <time>2025-10-21T18:36:04Z</time>
      </trkpt>
      <trkpt lat="-16.56138" lon="-68.05364">
        <ele>3786</ele>
        <time>2025-10-21T18:36:08Z</time>
      </trkpt>
      <trkpt lat="-16.56134" lon="-68.05363">
        <ele>3785</ele>
        <time>2025-10-21T18:36:16Z</time>
      </trkpt>
      <trkpt lat="-16.56131" lon="-68.05365">
        <ele>3785</ele>
        <time>2025-10-21T18:36:20Z</time>
      </trkpt>
      <trkpt lat="-16.56117" lon="-68.05376">
        <ele>3784</ele>
        <time>2025-10-21T18:36:36Z</time>
      </trkpt>
      <trkpt lat="-16.56106" lon="-68.05389">
        <ele>3783</ele>
        <time>2025-10-21T18:36:52Z</time>
      </trkpt>
      <trkpt lat="-16.56104" lon="-68.05394">
        <ele>3783</ele>
        <time>2025-10-21T18:36:56Z</time>
      </trkpt>
      <trkpt lat="-16.56101" lon="-68.05397">
        <ele>3783</ele>
        <time>2025-10-21T18:37:00Z</time>
      </trkpt>
      <trkpt lat="-16.56098" lon="-68.05401">
        <ele>3783</ele>
        <time>2025-10-21T18:37:04Z</time>
      </trkpt>
      <trkpt lat="-16.56095" lon="-68.05405">
        <ele>3783</ele>
        <time>2025-10-21T18:37:08Z</time>
      </trkpt>
      <trkpt lat="-16.56087" lon="-68.05409">
        <ele>3782</ele>
        <time>2025-10-21T18:37:16Z</time>
      </trkpt>
      <trkpt lat="-16.56079" lon="-68.05409">
        <ele>3778</ele>
        <time>2025-10-21T18:37:24Z</time>
      </trkpt>
      <trkpt lat="-16.56076" lon="-68.05409">
        <ele>3776</ele>
        <time>2025-10-21T18:37:28Z</time>
      </trkpt>
      <trkpt lat="-16.56071" lon="-68.05407">
        <ele>3775</ele>
        <time>2025-10-21T18:37:32Z</time>
      </trkpt>
      <trkpt lat="-16.56067" lon="-68.05406">
        <ele>3773</ele>
        <time>2025-10-21T18:37:36Z</time>
      </trkpt>
      <trkpt lat="-16.56055" lon="-68.05406">
        <ele>3771</ele>
        <time>2025-10-21T18:37:48Z</time>
      </trkpt>
      <trkpt lat="-16.56051" lon="-68.05407">
        <ele>3770</ele>
        <time>2025-10-21T18:37:52Z</time>
      </trkpt>
      <trkpt lat="-16.56047" lon="-68.0541">
        <ele>3769</ele>
        <time>2025-10-21T18:37:56Z</time>
      </trkpt>
      <trkpt lat="-16.56042" lon="-68.05418">
        <ele>3767</ele>
        <time>2025-10-21T18:38:04Z</time>
      </trkpt>
      <trkpt lat="-16.56034" lon="-68.05453">
        <ele>3764</ele>
        <time>2025-10-21T18:38:36Z</time>
      </trkpt>
      <trkpt lat="-16.56032" lon="-68.05468">
        <ele>3762</ele>
        <time>2025-10-21T18:38:48Z</time>
      </trkpt>
      <trkpt lat="-16.56037" lon="-68.05498">
        <ele>3761</ele>
        <time>2025-10-21T18:39:12Z</time>
      </trkpt>
      <trkpt lat="-16.56039" lon="-68.05502">
        <ele>3761</ele>
        <time>2025-10-21T18:39:16Z</time>
      </trkpt>
      <trkpt lat="-16.56042" lon="-68.05506">
        <ele>3761</ele>
        <time>2025-10-21T18:39:20Z</time>
      </trkpt>
      <trkpt lat="-16.56046" lon="-68.0551">
        <ele>3761</ele>
        <time>2025-10-21T18:39:24Z</time>
      </trkpt>
      <trkpt lat="-16.56047" lon="-68.05516">
        <ele>3761</ele>
        <time>2025-10-21T18:39:28Z</time>
      </trkpt>
      <trkpt lat="-16.56046" lon="-68.0552">
        <ele>3762</ele>
        <time>2025-10-21T18:39:32Z</time>
      </trkpt>
      <trkpt lat="-16.56041" lon="-68.05529">
        <ele>3762</ele>
        <time>2025-10-21T18:39:40Z</time>
      </trkpt>
      <trkpt lat="-16.5604" lon="-68.05533">
        <ele>3762</ele>
        <time>2025-10-21T18:39:44Z</time>
      </trkpt>
      <trkpt lat="-16.56029" lon="-68.05559">
        <ele>3763</ele>
        <time>2025-10-21T18:40:14Z</time>
      </trkpt>
      <trkpt lat="-16.56025" lon="-68.05568">
        <ele>3764</ele>
        <time>2025-10-21T18:40:24Z</time>
      </trkpt>
      <trkpt lat="-16.56024" lon="-68.05581">
        <ele>3766</ele>
        <time>2025-10-21T18:40:38Z</time>
      </trkpt>
      <trkpt lat="-16.56027" lon="-68.05594">
        <ele>3766</ele>
        <time>2025-10-21T18:40:50Z</time>
      </trkpt>
      <trkpt lat="-16.56027" lon="-68.05599">
        <ele>3766</ele>
        <time>2025-10-21T18:40:54Z</time>
      </trkpt>
      <trkpt lat="-16.56036" lon="-68.05625">
        <ele>3767</ele>
        <time>2025-10-21T18:41:18Z</time>
      </trkpt>
      <trkpt lat="-16.56037" lon="-68.05629">
        <ele>3768</ele>
        <time>2025-10-21T18:41:22Z</time>
      </trkpt>
      <trkpt lat="-16.56038" lon="-68.05638">
        <ele>3767</ele>
        <time>2025-10-21T18:41:30Z</time>
      </trkpt>
      <trkpt lat="-16.56036" lon="-68.05646">
        <ele>3768</ele>
        <time>2025-10-21T18:41:38Z</time>
      </trkpt>
      <trkpt lat="-16.56036" lon="-68.0565">
        <ele>3767</ele>
        <time>2025-10-21T18:41:42Z</time>
      </trkpt>
      <trkpt lat="-16.56036" lon="-68.05654">
        <ele>3767</ele>
        <time>2025-10-21T18:41:46Z</time>
      </trkpt>
      <trkpt lat="-16.56037" lon="-68.05692">
        <ele>3766</ele>
        <time>2025-10-21T18:42:18Z</time>
      </trkpt>
      <trkpt lat="-16.56038" lon="-68.05708">
        <ele>3768</ele>
        <time>2025-10-21T18:42:42Z</time>
      </trkpt>
      <trkpt lat="-16.56041" lon="-68.05718">
        <ele>3768</ele>
        <time>2025-10-21T18:42:50Z</time>
      </trkpt>
      <trkpt lat="-16.56058" lon="-68.05734">
        <ele>3771</ele>
        <time>2025-10-21T18:43:10Z</time>
      </trkpt>
      <trkpt lat="-16.56064" lon="-68.05742">
        <ele>3771</ele>
        <time>2025-10-21T18:43:18Z</time>
      </trkpt>
      <trkpt lat="-16.56066" lon="-68.0575">
        <ele>3771</ele>
        <time>2025-10-21T18:43:26Z</time>
      </trkpt>
      <trkpt lat="-16.56071" lon="-68.05751">
        <ele>3770</ele>
        <time>2025-10-21T18:43:30Z</time>
      </trkpt>
      <trkpt lat="-16.5607" lon="-68.05755">
        <ele>3770</ele>
        <time>2025-10-21T18:43:34Z</time>
      </trkpt>
      <trkpt lat="-16.56075" lon="-68.05764">
        <ele>3772</ele>
        <time>2025-10-21T18:43:44Z</time>
      </trkpt>
      <trkpt lat="-16.56081" lon="-68.05776">
        <ele>3775</ele>
        <time>2025-10-21T18:44:14Z</time>
      </trkpt>
      <trkpt lat="-16.56084" lon="-68.05779">
        <ele>3776</ele>
        <time>2025-10-21T18:44:20Z</time>
      </trkpt>
      <trkpt lat="-16.56087" lon="-68.05782">
        <ele>3777</ele>
        <time>2025-10-21T18:44:24Z</time>
      </trkpt>
      <trkpt lat="-16.56093" lon="-68.05796">
        <ele>3776</ele>
        <time>2025-10-21T18:44:36Z</time>
      </trkpt>
      <trkpt lat="-16.56092" lon="-68.05805">
        <ele>3775</ele>
        <time>2025-10-21T18:44:44Z</time>
      </trkpt>
      <trkpt lat="-16.56088" lon="-68.05819">
        <ele>3776</ele>
        <time>2025-10-21T18:44:56Z</time>
      </trkpt>
      <trkpt lat="-16.56088" lon="-68.05824">
        <ele>3777</ele>
        <time>2025-10-21T18:45:00Z</time>
      </trkpt>
      <trkpt lat="-16.56091" lon="-68.05829">
        <ele>3777</ele>
        <time>2025-10-21T18:45:04Z</time>
      </trkpt>
      <trkpt lat="-16.561" lon="-68.05837">
        <ele>3776</ele>
        <time>2025-10-21T18:45:16Z</time>
      </trkpt>
      <trkpt lat="-16.56103" lon="-68.0584">
        <ele>3776</ele>
        <time>2025-10-21T18:45:20Z</time>
      </trkpt>
      <trkpt lat="-16.56109" lon="-68.05846">
        <ele>3777</ele>
        <time>2025-10-21T18:45:28Z</time>
      </trkpt>
      <trkpt lat="-16.56113" lon="-68.05848">
        <ele>3777</ele>
        <time>2025-10-21T18:45:32Z</time>
      </trkpt>
      <trkpt lat="-16.56117" lon="-68.05848">
        <ele>3777</ele>
        <time>2025-10-21T18:45:36Z</time>
      </trkpt>
      <trkpt lat="-16.56121" lon="-68.05847">
        <ele>3776</ele>
        <time>2025-10-21T18:45:40Z</time>
      </trkpt>
      <trkpt lat="-16.56134" lon="-68.05851">
        <ele>3774</ele>
        <time>2025-10-21T18:45:54Z</time>
      </trkpt>
      <trkpt lat="-16.56138" lon="-68.05853">
        <ele>3773</ele>
        <time>2025-10-21T18:45:58Z</time>
      </trkpt>
      <trkpt lat="-16.56141" lon="-68.05856">
        <ele>3772</ele>
        <time>2025-10-21T18:46:02Z</time>
      </trkpt>
      <trkpt lat="-16.56146" lon="-68.05863">
        <ele>3771</ele>
        <time>2025-10-21T18:46:10Z</time>
      </trkpt>
      <trkpt lat="-16.5615" lon="-68.05866">
        <ele>3771</ele>
        <time>2025-10-21T18:46:14Z</time>
      </trkpt>
      <trkpt lat="-16.56155" lon="-68.05867">
        <ele>3771</ele>
        <time>2025-10-21T18:46:18Z</time>
      </trkpt>
      <trkpt lat="-16.56181" lon="-68.05872">
        <ele>3772</ele>
        <time>2025-10-21T18:46:42Z</time>
      </trkpt>
      <trkpt lat="-16.56186" lon="-68.05873">
        <ele>3772</ele>
        <time>2025-10-21T18:46:46Z</time>
      </trkpt>
      <trkpt lat="-16.56195" lon="-68.05883">
        <ele>3772</ele>
        <time>2025-10-21T18:46:58Z</time>
      </trkpt>
      <trkpt lat="-16.56198" lon="-68.05886">
        <ele>3772</ele>
        <time>2025-10-21T18:47:02Z</time>
      </trkpt>
      <trkpt lat="-16.56202" lon="-68.05887">
        <ele>3772</ele>
        <time>2025-10-21T18:47:06Z</time>
      </trkpt>
      <trkpt lat="-16.56206" lon="-68.05886">
        <ele>3772</ele>
        <time>2025-10-21T18:47:14Z</time>
      </trkpt>
      <trkpt lat="-16.56208" lon="-68.05883">
        <ele>3770</ele>
        <time>2025-10-21T18:47:18Z</time>
      </trkpt>
      <trkpt lat="-16.56214" lon="-68.05883">
        <ele>3769</ele>
        <time>2025-10-21T18:47:44Z</time>
      </trkpt>
      <trkpt lat="-16.56226" lon="-68.0588">
        <ele>3764</ele>
        <time>2025-10-21T18:47:56Z</time>
      </trkpt>
      <trkpt lat="-16.5623" lon="-68.0588">
        <ele>3764</ele>
        <time>2025-10-21T18:48:00Z</time>
      </trkpt>
      <trkpt lat="-16.56238" lon="-68.0588">
        <ele>3762</ele>
        <time>2025-10-21T18:48:08Z</time>
      </trkpt>
      <trkpt lat="-16.56242" lon="-68.0588">
        <ele>3761</ele>
        <time>2025-10-21T18:48:12Z</time>
      </trkpt>
      <trkpt lat="-16.56256" lon="-68.05888">
        <ele>3758</ele>
        <time>2025-10-21T18:48:28Z</time>
      </trkpt>
      <trkpt lat="-16.56271" lon="-68.05889">
        <ele>3758</ele>
        <time>2025-10-21T18:48:40Z</time>
      </trkpt>
      <trkpt lat="-16.56275" lon="-68.05888">
        <ele>3758</ele>
        <time>2025-10-21T18:48:44Z</time>
      </trkpt>
      <trkpt lat="-16.56284" lon="-68.05891">
        <ele>3757</ele>
        <time>2025-10-21T18:48:52Z</time>
      </trkpt>
      <trkpt lat="-16.56298" lon="-68.05897">
        <ele>3759</ele>
        <time>2025-10-21T18:49:04Z</time>
      </trkpt>
      <trkpt lat="-16.56319" lon="-68.05903">
        <ele>3762</ele>
        <time>2025-10-21T18:49:24Z</time>
      </trkpt>
      <trkpt lat="-16.56323" lon="-68.05903">
        <ele>3763</ele>
        <time>2025-10-21T18:49:28Z</time>
      </trkpt>
      <trkpt lat="-16.56327" lon="-68.05901">
        <ele>3764</ele>
        <time>2025-10-21T18:49:32Z</time>
      </trkpt>
      <trkpt lat="-16.56331" lon="-68.05897">
        <ele>3764</ele>
        <time>2025-10-21T18:49:36Z</time>
      </trkpt>
      <trkpt lat="-16.56337" lon="-68.05884">
        <ele>3762</ele>
        <time>2025-10-21T18:49:48Z</time>
      </trkpt>
      <trkpt lat="-16.5634" lon="-68.0588">
        <ele>3762</ele>
        <time>2025-10-21T18:49:52Z</time>
      </trkpt>
      <trkpt lat="-16.56344" lon="-68.05877">
        <ele>3762</ele>
        <time>2025-10-21T18:49:56Z</time>
      </trkpt>
      <trkpt lat="-16.56359" lon="-68.05871">
        <ele>3761</ele>
        <time>2025-10-21T18:50:14Z</time>
      </trkpt>
      <trkpt lat="-16.5637" lon="-68.05863">
        <ele>3763</ele>
        <time>2025-10-21T18:50:28Z</time>
      </trkpt>
      <trkpt lat="-16.56379" lon="-68.05859">
        <ele>3764</ele>
        <time>2025-10-21T18:50:36Z</time>
      </trkpt>
      <trkpt lat="-16.56385" lon="-68.05854">
        <ele>3764</ele>
        <time>2025-10-21T18:50:44Z</time>
      </trkpt>
      <trkpt lat="-16.56393" lon="-68.05844">
        <ele>3763</ele>
        <time>2025-10-21T18:50:56Z</time>
      </trkpt>
      <trkpt lat="-16.56395" lon="-68.0584">
        <ele>3762</ele>
        <time>2025-10-21T18:51:00Z</time>
      </trkpt>
      <trkpt lat="-16.56398" lon="-68.05837">
        <ele>3761</ele>
        <time>2025-10-21T18:51:04Z</time>
      </trkpt>
      <trkpt lat="-16.56399" lon="-68.05833">
        <ele>3760</ele>
        <time>2025-10-21T18:51:08Z</time>
      </trkpt>
      <trkpt lat="-16.56411" lon="-68.0581">
        <ele>3756</ele>
        <time>2025-10-21T18:51:32Z</time>
      </trkpt>
      <trkpt lat="-16.56428" lon="-68.05788">
        <ele>3750</ele>
        <time>2025-10-21T18:52:00Z</time>
      </trkpt>
      <trkpt lat="-16.5643" lon="-68.05791">
        <ele>3749</ele>
        <time>2025-10-21T18:52:22Z</time>
      </trkpt>
      <trkpt lat="-16.56435" lon="-68.05792">
        <ele>3747</ele>
        <time>2025-10-21T18:52:30Z</time>
      </trkpt>
      <trkpt lat="-16.56439" lon="-68.05789">
        <ele>3746</ele>
        <time>2025-10-21T18:52:36Z</time>
      </trkpt>
      <trkpt lat="-16.56443" lon="-68.05787">
        <ele>3745</ele>
        <time>2025-10-21T18:52:40Z</time>
      </trkpt>
      <trkpt lat="-16.56451" lon="-68.05789">
        <ele>3744</ele>
        <time>2025-10-21T18:52:48Z</time>
      </trkpt>
      <trkpt lat="-16.56455" lon="-68.05788">
        <ele>3743</ele>
        <time>2025-10-21T18:52:52Z</time>
      </trkpt>
      <trkpt lat="-16.56462" lon="-68.05783">
        <ele>3742</ele>
        <time>2025-10-21T18:53:00Z</time>
      </trkpt>
      <trkpt lat="-16.56465" lon="-68.05782">
        <ele>3741</ele>
        <time>2025-10-21T18:53:04Z</time>
      </trkpt>
      <trkpt lat="-16.5647" lon="-68.05781">
        <ele>3740</ele>
        <time>2025-10-21T18:53:08Z</time>
      </trkpt>
      <trkpt lat="-16.56471" lon="-68.05777">
        <ele>3739</ele>
        <time>2025-10-21T18:53:12Z</time>
      </trkpt>
      <trkpt lat="-16.56471" lon="-68.05773">
        <ele>3739</ele>
        <time>2025-10-21T18:53:16Z</time>
      </trkpt>
      <trkpt lat="-16.56469" lon="-68.05768">
        <ele>3737</ele>
        <time>2025-10-21T18:53:22Z</time>
      </trkpt>
      <trkpt lat="-16.56473" lon="-68.05768">
        <ele>3735</ele>
        <time>2025-10-21T18:53:26Z</time>
      </trkpt>
      <trkpt lat="-16.56476" lon="-68.05766">
        <ele>3734</ele>
        <time>2025-10-21T18:53:30Z</time>
      </trkpt>
      <trkpt lat="-16.56478" lon="-68.05762">
        <ele>3734</ele>
        <time>2025-10-21T18:53:36Z</time>
      </trkpt>
      <trkpt lat="-16.56482" lon="-68.05765">
        <ele>3733</ele>
        <time>2025-10-21T18:53:42Z</time>
      </trkpt>
      <trkpt lat="-16.56487" lon="-68.05764">
        <ele>3731</ele>
        <time>2025-10-21T18:53:48Z</time>
      </trkpt>
      <trkpt lat="-16.56491" lon="-68.05761">
        <ele>3730</ele>
        <time>2025-10-21T18:53:54Z</time>
      </trkpt>
      <trkpt lat="-16.56491" lon="-68.05751">
        <ele>3729</ele>
        <time>2025-10-21T18:54:06Z</time>
      </trkpt>
      <trkpt lat="-16.56492" lon="-68.05748">
        <ele>3728</ele>
        <time>2025-10-21T18:54:10Z</time>
      </trkpt>
      <trkpt lat="-16.56496" lon="-68.05748">
        <ele>3727</ele>
        <time>2025-10-21T18:54:18Z</time>
      </trkpt>
      <trkpt lat="-16.56501" lon="-68.05754">
        <ele>3725</ele>
        <time>2025-10-21T18:54:32Z</time>
      </trkpt>
      <trkpt lat="-16.56501" lon="-68.05758">
        <ele>3725</ele>
        <time>2025-10-21T18:54:38Z</time>
      </trkpt>
      <trkpt lat="-16.56504" lon="-68.05761">
        <ele>3725</ele>
        <time>2025-10-21T18:54:44Z</time>
      </trkpt>
      <trkpt lat="-16.56507" lon="-68.05768">
        <ele>3724</ele>
        <time>2025-10-21T18:55:12Z</time>
      </trkpt>
      <trkpt lat="-16.56508" lon="-68.05772">
        <ele>3723</ele>
        <time>2025-10-21T18:55:22Z</time>
      </trkpt>
      <trkpt lat="-16.56514" lon="-68.05787">
        <ele>3720</ele>
        <time>2025-10-21T18:55:38Z</time>
      </trkpt>
      <trkpt lat="-16.5651" lon="-68.05798">
        <ele>3718</ele>
        <time>2025-10-21T18:55:50Z</time>
      </trkpt>
      <trkpt lat="-16.56509" lon="-68.05802">
        <ele>3718</ele>
        <time>2025-10-21T18:55:54Z</time>
      </trkpt>
      <trkpt lat="-16.56514" lon="-68.05821">
        <ele>3716</ele>
        <time>2025-10-21T18:56:10Z</time>
      </trkpt>
      <trkpt lat="-16.56518" lon="-68.05823">
        <ele>3715</ele>
        <time>2025-10-21T18:56:14Z</time>
      </trkpt>
      <trkpt lat="-16.5653" lon="-68.05834">
        <ele>3714</ele>
        <time>2025-10-21T18:56:26Z</time>
      </trkpt>
      <trkpt lat="-16.56534" lon="-68.05836">
        <ele>3714</ele>
        <time>2025-10-21T18:56:30Z</time>
      </trkpt>
      <trkpt lat="-16.56538" lon="-68.05839">
        <ele>3714</ele>
        <time>2025-10-21T18:56:34Z</time>
      </trkpt>
      <trkpt lat="-16.56539" lon="-68.05844">
        <ele>3714</ele>
        <time>2025-10-21T18:56:38Z</time>
      </trkpt>
      <trkpt lat="-16.56547" lon="-68.05851">
        <ele>3714</ele>
        <time>2025-10-21T18:56:46Z</time>
      </trkpt>
      <trkpt lat="-16.56551" lon="-68.05853">
        <ele>3714</ele>
        <time>2025-10-21T18:56:50Z</time>
      </trkpt>
      <trkpt lat="-16.56559" lon="-68.05851">
        <ele>3713</ele>
        <time>2025-10-21T18:56:58Z</time>
      </trkpt>
      <trkpt lat="-16.56564" lon="-68.05849">
        <ele>3713</ele>
        <time>2025-10-21T18:57:02Z</time>
      </trkpt>
      <trkpt lat="-16.56568" lon="-68.0585">
        <ele>3711</ele>
        <time>2025-10-21T18:57:18Z</time>
      </trkpt>
      <trkpt lat="-16.56572" lon="-68.05853">
        <ele>3709</ele>
        <time>2025-10-21T18:57:24Z</time>
      </trkpt>
      <trkpt lat="-16.56575" lon="-68.05857">
        <ele>3709</ele>
        <time>2025-10-21T18:57:28Z</time>
      </trkpt>
      <trkpt lat="-16.5658" lon="-68.05858">
        <ele>3709</ele>
        <time>2025-10-21T18:57:34Z</time>
      </trkpt>
      <trkpt lat="-16.56583" lon="-68.05862">
        <ele>3708</ele>
        <time>2025-10-21T18:57:40Z</time>
      </trkpt>
      <trkpt lat="-16.56583" lon="-68.05866">
        <ele>3708</ele>
        <time>2025-10-21T18:57:46Z</time>
      </trkpt>
      <trkpt lat="-16.56583" lon="-68.0587">
        <ele>3705</ele>
        <time>2025-10-21T18:57:52Z</time>
      </trkpt>
      <trkpt lat="-16.56586" lon="-68.05868">
        <ele>3705</ele>
        <time>2025-10-21T18:57:58Z</time>
      </trkpt>
      <trkpt lat="-16.56591" lon="-68.05866">
        <ele>3704</ele>
        <time>2025-10-21T18:58:07Z</time>
      </trkpt>
      <trkpt lat="-16.56595" lon="-68.05867">
        <ele>3704</ele>
        <time>2025-10-21T18:58:13Z</time>
      </trkpt>
      <trkpt lat="-16.56597" lon="-68.05858">
        <ele>3702</ele>
        <time>2025-10-21T18:58:33Z</time>
      </trkpt>
      <trkpt lat="-16.56595" lon="-68.05854">
        <ele>3702</ele>
        <time>2025-10-21T18:58:37Z</time>
      </trkpt>
      <trkpt lat="-16.566" lon="-68.05855">
        <ele>3703</ele>
        <time>2025-10-21T18:58:41Z</time>
      </trkpt>
      <trkpt lat="-16.56598" lon="-68.05861">
        <ele>3703</ele>
        <time>2025-10-21T18:58:45Z</time>
      </trkpt>
      <trkpt lat="-16.56596" lon="-68.05868">
        <ele>3702</ele>
        <time>2025-10-21T18:58:49Z</time>
      </trkpt>
      <trkpt lat="-16.56599" lon="-68.05872">
        <ele>3702</ele>
        <time>2025-10-21T18:58:55Z</time>
      </trkpt>
      <trkpt lat="-16.56603" lon="-68.05876">
        <ele>3700</ele>
        <time>2025-10-21T18:58:59Z</time>
      </trkpt>
      <trkpt lat="-16.56603" lon="-68.05881">
        <ele>3700</ele>
        <time>2025-10-21T18:59:03Z</time>
      </trkpt>
      <trkpt lat="-16.56605" lon="-68.05886">
        <ele>3699</ele>
        <time>2025-10-21T18:59:07Z</time>
      </trkpt>
      <trkpt lat="-16.5661" lon="-68.05887">
        <ele>3698</ele>
        <time>2025-10-21T18:59:11Z</time>
      </trkpt>
      <trkpt lat="-16.56617" lon="-68.05893">
        <ele>3696</ele>
        <time>2025-10-21T18:59:19Z</time>
      </trkpt>
      <trkpt lat="-16.56621" lon="-68.05894">
        <ele>3696</ele>
        <time>2025-10-21T18:59:23Z</time>
      </trkpt>
      <trkpt lat="-16.56625" lon="-68.05892">
        <ele>3695</ele>
        <time>2025-10-21T18:59:27Z</time>
      </trkpt>
      <trkpt lat="-16.56629" lon="-68.05889">
        <ele>3694</ele>
        <time>2025-10-21T18:59:31Z</time>
      </trkpt>
      <trkpt lat="-16.56636" lon="-68.05886">
        <ele>3693</ele>
        <time>2025-10-21T18:59:39Z</time>
      </trkpt>
      <trkpt lat="-16.56647" lon="-68.05888">
        <ele>3691</ele>
        <time>2025-10-21T18:59:51Z</time>
      </trkpt>
      <trkpt lat="-16.56651" lon="-68.05889">
        <ele>3690</ele>
        <time>2025-10-21T18:59:55Z</time>
      </trkpt>
      <trkpt lat="-16.56655" lon="-68.05888">
        <ele>3689</ele>
        <time>2025-10-21T19:00:01Z</time>
      </trkpt>
      <trkpt lat="-16.56656" lon="-68.05884">
        <ele>3688</ele>
        <time>2025-10-21T19:00:09Z</time>
      </trkpt>
      <trkpt lat="-16.5666" lon="-68.05884">
        <ele>3688</ele>
        <time>2025-10-21T19:00:15Z</time>
      </trkpt>
      <trkpt lat="-16.56664" lon="-68.05885">
        <ele>3687</ele>
        <time>2025-10-21T19:00:21Z</time>
      </trkpt>
      <trkpt lat="-16.56671" lon="-68.05889">
        <ele>3685</ele>
        <time>2025-10-21T19:00:31Z</time>
      </trkpt>
      <trkpt lat="-16.56675" lon="-68.05887">
        <ele>3683</ele>
        <time>2025-10-21T19:00:37Z</time>
      </trkpt>
      <trkpt lat="-16.56677" lon="-68.05885">
        <ele>3681</ele>
        <time>2025-10-21T19:00:43Z</time>
      </trkpt>
      <trkpt lat="-16.56675" lon="-68.05882">
        <ele>3680</ele>
        <time>2025-10-21T19:00:49Z</time>
      </trkpt>
      <trkpt lat="-16.56672" lon="-68.0588">
        <ele>3677</ele>
        <time>2025-10-21T19:00:55Z</time>
      </trkpt>
      <trkpt lat="-16.56671" lon="-68.05876">
        <ele>3676</ele>
        <time>2025-10-21T19:00:59Z</time>
      </trkpt>
      <trkpt lat="-16.56671" lon="-68.05868">
        <ele>3675</ele>
        <time>2025-10-21T19:01:09Z</time>
      </trkpt>
      <trkpt lat="-16.56677" lon="-68.05866">
        <ele>3674</ele>
        <time>2025-10-21T19:01:31Z</time>
      </trkpt>
      <trkpt lat="-16.56677" lon="-68.05863">
        <ele>3674</ele>
        <time>2025-10-21T19:01:35Z</time>
      </trkpt>
      <trkpt lat="-16.56672" lon="-68.0586">
        <ele>3673</ele>
        <time>2025-10-21T19:01:37Z</time>
      </trkpt>
      <trkpt lat="-16.5667" lon="-68.05857">
        <ele>3673</ele>
        <time>2025-10-21T19:01:41Z</time>
      </trkpt>
      <trkpt lat="-16.56674" lon="-68.05857">
        <ele>3673</ele>
        <time>2025-10-21T19:01:55Z</time>
      </trkpt>
      <trkpt lat="-16.56675" lon="-68.05852">
        <ele>3671</ele>
        <time>2025-10-21T19:02:05Z</time>
      </trkpt>
      <trkpt lat="-16.56678" lon="-68.0585">
        <ele>3670</ele>
        <time>2025-10-21T19:02:11Z</time>
      </trkpt>
      <trkpt lat="-16.56682" lon="-68.05848">
        <ele>3667</ele>
        <time>2025-10-21T19:02:17Z</time>
      </trkpt>
      <trkpt lat="-16.56687" lon="-68.05849">
        <ele>3666</ele>
        <time>2025-10-21T19:02:23Z</time>
      </trkpt>
      <trkpt lat="-16.5669" lon="-68.05852">
        <ele>3665</ele>
        <time>2025-10-21T19:02:29Z</time>
      </trkpt>
      <trkpt lat="-16.56696" lon="-68.05858">
        <ele>3663</ele>
        <time>2025-10-21T19:02:39Z</time>
      </trkpt>
      <trkpt lat="-16.56698" lon="-68.05861">
        <ele>3662</ele>
        <time>2025-10-21T19:02:43Z</time>
      </trkpt>
      <trkpt lat="-16.56699" lon="-68.05867">
        <ele>3661</ele>
        <time>2025-10-21T19:02:49Z</time>
      </trkpt>
      <trkpt lat="-16.56703" lon="-68.05875">
        <ele>3657</ele>
        <time>2025-10-21T19:03:01Z</time>
      </trkpt>
      <trkpt lat="-16.56706" lon="-68.05877">
        <ele>3656</ele>
        <time>2025-10-21T19:03:05Z</time>
      </trkpt>
      <trkpt lat="-16.5671" lon="-68.05879">
        <ele>3656</ele>
        <time>2025-10-21T19:03:11Z</time>
      </trkpt>
      <trkpt lat="-16.56714" lon="-68.05877">
        <ele>3655</ele>
        <time>2025-10-21T19:03:15Z</time>
      </trkpt>
      <trkpt lat="-16.5672" lon="-68.05881">
        <ele>3654</ele>
        <time>2025-10-21T19:03:23Z</time>
      </trkpt>
      <trkpt lat="-16.56724" lon="-68.05883">
        <ele>3653</ele>
        <time>2025-10-21T19:03:27Z</time>
      </trkpt>
      <trkpt lat="-16.56727" lon="-68.0588">
        <ele>3652</ele>
        <time>2025-10-21T19:03:31Z</time>
      </trkpt>
      <trkpt lat="-16.56729" lon="-68.05883">
        <ele>3651</ele>
        <time>2025-10-21T19:03:49Z</time>
      </trkpt>
      <trkpt lat="-16.56733" lon="-68.05884">
        <ele>3651</ele>
        <time>2025-10-21T19:03:53Z</time>
      </trkpt>
      <trkpt lat="-16.56737" lon="-68.05885">
        <ele>3650</ele>
        <time>2025-10-21T19:03:57Z</time>
      </trkpt>
      <trkpt lat="-16.5674" lon="-68.05885">
        <ele>3649</ele>
        <time>2025-10-21T19:04:01Z</time>
      </trkpt>
      <trkpt lat="-16.56745" lon="-68.05884">
        <ele>3648</ele>
        <time>2025-10-21T19:04:07Z</time>
      </trkpt>
      <trkpt lat="-16.56749" lon="-68.05885">
        <ele>3646</ele>
        <time>2025-10-21T19:04:15Z</time>
      </trkpt>
      <trkpt lat="-16.56766" lon="-68.05881">
        <ele>3640</ele>
        <time>2025-10-21T19:04:35Z</time>
      </trkpt>
      <trkpt lat="-16.5677" lon="-68.05881">
        <ele>3639</ele>
        <time>2025-10-21T19:04:41Z</time>
      </trkpt>
      <trkpt lat="-16.56771" lon="-68.05886">
        <ele>3637</ele>
        <time>2025-10-21T19:05:05Z</time>
      </trkpt>
      <trkpt lat="-16.56775" lon="-68.05884">
        <ele>3636</ele>
        <time>2025-10-21T19:05:15Z</time>
      </trkpt>
      <trkpt lat="-16.56776" lon="-68.05889">
        <ele>3633</ele>
        <time>2025-10-21T19:05:21Z</time>
      </trkpt>
      <trkpt lat="-16.56779" lon="-68.0589">
        <ele>3632</ele>
        <time>2025-10-21T19:05:27Z</time>
      </trkpt>
      <trkpt lat="-16.56778" lon="-68.05895">
        <ele>3630</ele>
        <time>2025-10-21T19:05:33Z</time>
      </trkpt>
      <trkpt lat="-16.56774" lon="-68.05898">
        <ele>3628</ele>
        <time>2025-10-21T19:05:39Z</time>
      </trkpt>
      <trkpt lat="-16.56772" lon="-68.05901">
        <ele>3627</ele>
        <time>2025-10-21T19:05:43Z</time>
      </trkpt>
      <trkpt lat="-16.56773" lon="-68.05906">
        <ele>3626</ele>
        <time>2025-10-21T19:05:49Z</time>
      </trkpt>
      <trkpt lat="-16.56772" lon="-68.0591">
        <ele>3625</ele>
        <time>2025-10-21T19:05:53Z</time>
      </trkpt>
      <trkpt lat="-16.56769" lon="-68.05914">
        <ele>3624</ele>
        <time>2025-10-21T19:05:59Z</time>
      </trkpt>
      <trkpt lat="-16.56768" lon="-68.05918">
        <ele>3624</ele>
        <time>2025-10-21T19:06:03Z</time>
      </trkpt>
      <trkpt lat="-16.56769" lon="-68.05923">
        <ele>3623</ele>
        <time>2025-10-21T19:06:09Z</time>
      </trkpt>
      <trkpt lat="-16.56771" lon="-68.05928">
        <ele>3622</ele>
        <time>2025-10-21T19:06:15Z</time>
      </trkpt>
      <trkpt lat="-16.56772" lon="-68.05932">
        <ele>3619</ele>
        <time>2025-10-21T19:06:21Z</time>
      </trkpt>
      <trkpt lat="-16.56776" lon="-68.05935">
        <ele>3617</ele>
        <time>2025-10-21T19:06:27Z</time>
      </trkpt>
      <trkpt lat="-16.56784" lon="-68.05944">
        <ele>3614</ele>
        <time>2025-10-21T19:06:45Z</time>
      </trkpt>
      <trkpt lat="-16.56784" lon="-68.05948">
        <ele>3612</ele>
        <time>2025-10-21T19:06:51Z</time>
      </trkpt>
      <trkpt lat="-16.56788" lon="-68.05951">
        <ele>3611</ele>
        <time>2025-10-21T19:06:57Z</time>
      </trkpt>
      <trkpt lat="-16.56791" lon="-68.05949">
        <ele>3611</ele>
        <time>2025-10-21T19:07:01Z</time>
      </trkpt>
      <trkpt lat="-16.56794" lon="-68.05947">
        <ele>3608</ele>
        <time>2025-10-21T19:07:07Z</time>
      </trkpt>
      <trkpt lat="-16.56796" lon="-68.05951">
        <ele>3606</ele>
        <time>2025-10-21T19:07:15Z</time>
      </trkpt>
      <trkpt lat="-16.56796" lon="-68.05955">
        <ele>3603</ele>
        <time>2025-10-21T19:07:53Z</time>
      </trkpt>
      <trkpt lat="-16.56795" lon="-68.05959">
        <ele>3603</ele>
        <time>2025-10-21T19:07:59Z</time>
      </trkpt>
      <trkpt lat="-16.56797" lon="-68.05962">
        <ele>3602</ele>
        <time>2025-10-21T19:08:03Z</time>
      </trkpt>
      <trkpt lat="-16.56799" lon="-68.05966">
        <ele>3601</ele>
        <time>2025-10-21T19:08:07Z</time>
      </trkpt>
      <trkpt lat="-16.56801" lon="-68.0597">
        <ele>3601</ele>
        <time>2025-10-21T19:08:11Z</time>
      </trkpt>
      <trkpt lat="-16.56807" lon="-68.05981">
        <ele>3599</ele>
        <time>2025-10-21T19:08:25Z</time>
      </trkpt>
      <trkpt lat="-16.56809" lon="-68.05984">
        <ele>3598</ele>
        <time>2025-10-21T19:08:31Z</time>
      </trkpt>
      <trkpt lat="-16.5681" lon="-68.05988">
        <ele>3596</ele>
        <time>2025-10-21T19:08:37Z</time>
      </trkpt>
      <trkpt lat="-16.56812" lon="-68.05992">
        <ele>3595</ele>
        <time>2025-10-21T19:08:43Z</time>
      </trkpt>
      <trkpt lat="-16.56814" lon="-68.05996">
        <ele>3593</ele>
        <time>2025-10-21T19:08:49Z</time>
      </trkpt>
      <trkpt lat="-16.56817" lon="-68.05999">
        <ele>3592</ele>
        <time>2025-10-21T19:08:55Z</time>
      </trkpt>
      <trkpt lat="-16.56819" lon="-68.06003">
        <ele>3592</ele>
        <time>2025-10-21T19:09:01Z</time>
      </trkpt>
      <trkpt lat="-16.56822" lon="-68.06005">
        <ele>3591</ele>
        <time>2025-10-21T19:09:07Z</time>
      </trkpt>
      <trkpt lat="-16.56825" lon="-68.06003">
        <ele>3591</ele>
        <time>2025-10-21T19:09:11Z</time>
      </trkpt>
      <trkpt lat="-16.56829" lon="-68.06">
        <ele>3589</ele>
        <time>2025-10-21T19:09:17Z</time>
      </trkpt>
      <trkpt lat="-16.56832" lon="-68.06003">
        <ele>3588</ele>
        <time>2025-10-21T19:09:23Z</time>
      </trkpt>
      <trkpt lat="-16.56835" lon="-68.06006">
        <ele>3587</ele>
        <time>2025-10-21T19:09:29Z</time>
      </trkpt>
      <trkpt lat="-16.56838" lon="-68.06009">
        <ele>3586</ele>
        <time>2025-10-21T19:09:35Z</time>
      </trkpt>
      <trkpt lat="-16.56843" lon="-68.06009">
        <ele>3581</ele>
        <time>2025-10-21T19:09:41Z</time>
      </trkpt>
      <trkpt lat="-16.56848" lon="-68.06011">
        <ele>3580</ele>
        <time>2025-10-21T19:09:47Z</time>
      </trkpt>
      <trkpt lat="-16.5685" lon="-68.06014">
        <ele>3581</ele>
        <time>2025-10-21T19:09:51Z</time>
      </trkpt>
      <trkpt lat="-16.56853" lon="-68.06017">
        <ele>3582</ele>
        <time>2025-10-21T19:09:55Z</time>
      </trkpt>
      <trkpt lat="-16.56856" lon="-68.06018">
        <ele>3582</ele>
        <time>2025-10-21T19:09:59Z</time>
      </trkpt>
      <trkpt lat="-16.56861" lon="-68.06019">
        <ele>3581</ele>
        <time>2025-10-21T19:10:05Z</time>
      </trkpt>
      <trkpt lat="-16.56868" lon="-68.0602">
        <ele>3578</ele>
        <time>2025-10-21T19:10:13Z</time>
      </trkpt>
      <trkpt lat="-16.56872" lon="-68.06024">
        <ele>3577</ele>
        <time>2025-10-21T19:10:19Z</time>
      </trkpt>
      <trkpt lat="-16.56875" lon="-68.06031">
        <ele>3577</ele>
        <time>2025-10-21T19:10:27Z</time>
      </trkpt>
      <trkpt lat="-16.56876" lon="-68.06035">
        <ele>3577</ele>
        <time>2025-10-21T19:10:31Z</time>
      </trkpt>
      <trkpt lat="-16.56877" lon="-68.06039">
        <ele>3576</ele>
        <time>2025-10-21T19:10:35Z</time>
      </trkpt>
      <trkpt lat="-16.56875" lon="-68.06045">
        <ele>3576</ele>
        <time>2025-10-21T19:10:41Z</time>
      </trkpt>
      <trkpt lat="-16.56882" lon="-68.06041">
        <ele>3576</ele>
        <time>2025-10-21T19:11:03Z</time>
      </trkpt>
      <trkpt lat="-16.56885" lon="-68.06039">
        <ele>3573</ele>
        <time>2025-10-21T19:11:09Z</time>
      </trkpt>
      <trkpt lat="-16.56884" lon="-68.06019">
        <ele>3567</ele>
        <time>2025-10-21T19:11:27Z</time>
      </trkpt>
      <trkpt lat="-16.56885" lon="-68.0601">
        <ele>3566</ele>
        <time>2025-10-21T19:11:35Z</time>
      </trkpt>
      <trkpt lat="-16.56885" lon="-68.06006">
        <ele>3566</ele>
        <time>2025-10-21T19:11:39Z</time>
      </trkpt>
      <trkpt lat="-16.56886" lon="-68.06002">
        <ele>3566</ele>
        <time>2025-10-21T19:11:43Z</time>
      </trkpt>
      <trkpt lat="-16.56894" lon="-68.06006">
        <ele>3566</ele>
        <time>2025-10-21T19:11:53Z</time>
      </trkpt>
      <trkpt lat="-16.56896" lon="-68.06009">
        <ele>3565</ele>
        <time>2025-10-21T19:11:57Z</time>
      </trkpt>
      <trkpt lat="-16.56902" lon="-68.06015">
        <ele>3564</ele>
        <time>2025-10-21T19:12:05Z</time>
      </trkpt>
      <trkpt lat="-16.56905" lon="-68.06019">
        <ele>3563</ele>
        <time>2025-10-21T19:12:09Z</time>
      </trkpt>
      <trkpt lat="-16.56907" lon="-68.06022">
        <ele>3563</ele>
        <time>2025-10-21T19:12:13Z</time>
      </trkpt>
      <trkpt lat="-16.56909" lon="-68.06027">
        <ele>3561</ele>
        <time>2025-10-21T19:12:19Z</time>
      </trkpt>
      <trkpt lat="-16.56912" lon="-68.06029">
        <ele>3560</ele>
        <time>2025-10-21T19:12:23Z</time>
      </trkpt>
      <trkpt lat="-16.56916" lon="-68.06029">
        <ele>3559</ele>
        <time>2025-10-21T19:12:27Z</time>
      </trkpt>
      <trkpt lat="-16.5692" lon="-68.06029">
        <ele>3559</ele>
        <time>2025-10-21T19:12:31Z</time>
      </trkpt>
      <trkpt lat="-16.56923" lon="-68.06032">
        <ele>3560</ele>
        <time>2025-10-21T19:12:35Z</time>
      </trkpt>
      <trkpt lat="-16.56924" lon="-68.06035">
        <ele>3559</ele>
        <time>2025-10-21T19:12:45Z</time>
      </trkpt>
      <trkpt lat="-16.56928" lon="-68.06035">
        <ele>3556</ele>
        <time>2025-10-21T19:12:51Z</time>
      </trkpt>
      <trkpt lat="-16.56929" lon="-68.0604">
        <ele>3556</ele>
        <time>2025-10-21T19:12:59Z</time>
      </trkpt>
      <trkpt lat="-16.56933" lon="-68.0604">
        <ele>3553</ele>
        <time>2025-10-21T19:13:09Z</time>
      </trkpt>
      <trkpt lat="-16.56932" lon="-68.06048">
        <ele>3549</ele>
        <time>2025-10-21T19:13:21Z</time>
      </trkpt>
      <trkpt lat="-16.56937" lon="-68.0605">
        <ele>3549</ele>
        <time>2025-10-21T19:13:27Z</time>
      </trkpt>
      <trkpt lat="-16.5694" lon="-68.06052">
        <ele>3547</ele>
        <time>2025-10-21T19:13:35Z</time>
      </trkpt>
      <trkpt lat="-16.56942" lon="-68.06048">
        <ele>3546</ele>
        <time>2025-10-21T19:13:41Z</time>
      </trkpt>
      <trkpt lat="-16.56945" lon="-68.06045">
        <ele>3543</ele>
        <time>2025-10-21T19:14:17Z</time>
      </trkpt>
      <trkpt lat="-16.56947" lon="-68.06042">
        <ele>3542</ele>
        <time>2025-10-21T19:14:25Z</time>
      </trkpt>
      <trkpt lat="-16.56948" lon="-68.06038">
        <ele>3540</ele>
        <time>2025-10-21T19:14:37Z</time>
      </trkpt>
      <trkpt lat="-16.56949" lon="-68.06034">
        <ele>3540</ele>
        <time>2025-10-21T19:14:41Z</time>
      </trkpt>
      <trkpt lat="-16.56949" lon="-68.06029">
        <ele>3537</ele>
        <time>2025-10-21T19:14:47Z</time>
      </trkpt>
      <trkpt lat="-16.56952" lon="-68.06026">
        <ele>3536</ele>
        <time>2025-10-21T19:14:53Z</time>
      </trkpt>
      <trkpt lat="-16.56952" lon="-68.06021">
        <ele>3534</ele>
        <time>2025-10-21T19:14:59Z</time>
      </trkpt>
      <trkpt lat="-16.56953" lon="-68.06017">
        <ele>3534</ele>
        <time>2025-10-21T19:15:03Z</time>
      </trkpt>
      <trkpt lat="-16.56956" lon="-68.06014">
        <ele>3532</ele>
        <time>2025-10-21T19:15:09Z</time>
      </trkpt>
      <trkpt lat="-16.5696" lon="-68.06014">
        <ele>3531</ele>
        <time>2025-10-21T19:15:15Z</time>
      </trkpt>
      <trkpt lat="-16.56964" lon="-68.06017">
        <ele>3530</ele>
        <time>2025-10-21T19:15:21Z</time>
      </trkpt>
      <trkpt lat="-16.56968" lon="-68.06021">
        <ele>3527</ele>
        <time>2025-10-21T19:15:27Z</time>
      </trkpt>
      <trkpt lat="-16.56974" lon="-68.06023">
        <ele>3526</ele>
        <time>2025-10-21T19:15:35Z</time>
      </trkpt>
      <trkpt lat="-16.56976" lon="-68.06028">
        <ele>3525</ele>
        <time>2025-10-21T19:15:41Z</time>
      </trkpt>
      <trkpt lat="-16.56978" lon="-68.06032">
        <ele>3524</ele>
        <time>2025-10-21T19:15:47Z</time>
      </trkpt>
      <trkpt lat="-16.56982" lon="-68.06036">
        <ele>3522</ele>
        <time>2025-10-21T19:15:53Z</time>
      </trkpt>
      <trkpt lat="-16.56987" lon="-68.06042">
        <ele>3519</ele>
        <time>2025-10-21T19:16:03Z</time>
      </trkpt>
      <trkpt lat="-16.5699" lon="-68.06045">
        <ele>3518</ele>
        <time>2025-10-21T19:16:09Z</time>
      </trkpt>
      <trkpt lat="-16.56993" lon="-68.06049">
        <ele>3516</ele>
        <time>2025-10-21T19:16:17Z</time>
      </trkpt>
      <trkpt lat="-16.56993" lon="-68.06053">
        <ele>3515</ele>
        <time>2025-10-21T19:16:25Z</time>
      </trkpt>
      <trkpt lat="-16.56994" lon="-68.06057">
        <ele>3515</ele>
        <time>2025-10-21T19:16:31Z</time>
      </trkpt>
      <trkpt lat="-16.56995" lon="-68.06061">
        <ele>3514</ele>
        <time>2025-10-21T19:16:37Z</time>
      </trkpt>
      <trkpt lat="-16.56997" lon="-68.06065">
        <ele>3514</ele>
        <time>2025-10-21T19:16:43Z</time>
      </trkpt>
      <trkpt lat="-16.57003" lon="-68.06073">
        <ele>3513</ele>
        <time>2025-10-21T19:16:55Z</time>
      </trkpt>
      <trkpt lat="-16.57008" lon="-68.06082">
        <ele>3510</ele>
        <time>2025-10-21T19:17:09Z</time>
      </trkpt>
      <trkpt lat="-16.57011" lon="-68.06084">
        <ele>3508</ele>
        <time>2025-10-21T19:17:15Z</time>
      </trkpt>
      <trkpt lat="-16.57012" lon="-68.06087">
        <ele>3508</ele>
        <time>2025-10-21T19:17:23Z</time>
      </trkpt>
      <trkpt lat="-16.57015" lon="-68.06087">
        <ele>3507</ele>
        <time>2025-10-21T19:18:07Z</time>
      </trkpt>
      <trkpt lat="-16.57017" lon="-68.06083">
        <ele>3507</ele>
        <time>2025-10-21T19:18:31Z</time>
      </trkpt>
      <trkpt lat="-16.57019" lon="-68.06079">
        <ele>3504</ele>
        <time>2025-10-21T19:18:45Z</time>
      </trkpt>
      <trkpt lat="-16.5702" lon="-68.06079">
        <ele>3503</ele>
        <time>2025-10-21T19:19:43Z</time>
      </trkpt>
      <trkpt lat="-16.57018" lon="-68.06081">
        <ele>3503</ele>
        <time>2025-10-21T19:20:43Z</time>
      </trkpt>
      <trkpt lat="-16.57019" lon="-68.06086">
        <ele>3503</ele>
        <time>2025-10-21T19:20:53Z</time>
      </trkpt>
      <trkpt lat="-16.57023" lon="-68.06087">
        <ele>3502</ele>
        <time>2025-10-21T19:21:03Z</time>
      </trkpt>
      <trkpt lat="-16.57025" lon="-68.06083">
        <ele>3502</ele>
        <time>2025-10-21T19:21:13Z</time>
      </trkpt>
      <trkpt lat="-16.57027" lon="-68.06086">
        <ele>3500</ele>
        <time>2025-10-21T19:21:23Z</time>
      </trkpt>
      <trkpt lat="-16.57031" lon="-68.06083">
        <ele>3499</ele>
        <time>2025-10-21T19:21:33Z</time>
      </trkpt>
      <trkpt lat="-16.57033" lon="-68.06083">
        <ele>3493</ele>
        <time>2025-10-21T19:23:43Z</time>
      </trkpt>
      <trkpt lat="-16.57034" lon="-68.06078">
        <ele>3493</ele>
        <time>2025-10-21T19:24:05Z</time>
      </trkpt>
      <trkpt lat="-16.57036" lon="-68.06075">
        <ele>3493</ele>
        <time>2025-10-21T19:24:11Z</time>
      </trkpt>
      <trkpt lat="-16.57036" lon="-68.06075">
        <ele>3492</ele>
        <time>2025-10-21T19:25:07Z</time>
      </trkpt>
      <trkpt lat="-16.57032" lon="-68.06072">
        <ele>3491</ele>
        <time>2025-10-21T19:25:51Z</time>
      </trkpt>
      <trkpt lat="-16.57029" lon="-68.06066">
        <ele>3494</ele>
        <time>2025-10-21T19:26:37Z</time>
      </trkpt>
      <trkpt lat="-16.57026" lon="-68.06066">
        <ele>3494</ele>
        <time>2025-10-21T19:27:03Z</time>
      </trkpt>
      <trkpt lat="-16.57027" lon="-68.06069">
        <ele>3494</ele>
        <time>2025-10-21T19:27:25Z</time>
      </trkpt>
      <trkpt lat="-16.5703" lon="-68.06072">
        <ele>3494</ele>
        <time>2025-10-21T19:27:37Z</time>
      </trkpt>
      <trkpt lat="-16.57033" lon="-68.06069">
        <ele>3493</ele>
        <time>2025-10-21T19:27:45Z</time>
      </trkpt>
      <trkpt lat="-16.57036" lon="-68.06067">
        <ele>3491</ele>
        <time>2025-10-21T19:27:51Z</time>
      </trkpt>
      <trkpt lat="-16.57027" lon="-68.06066">
        <ele>3494</ele>
        <time>2025-10-21T19:29:43Z</time>
      </trkpt>
      <trkpt lat="-16.57028" lon="-68.0607">
        <ele>3497</ele>
        <time>2025-10-21T19:30:07Z</time>
      </trkpt>
      <trkpt lat="-16.57031" lon="-68.06072">
        <ele>3497</ele>
        <time>2025-10-21T19:30:15Z</time>
      </trkpt>
      <trkpt lat="-16.57035" lon="-68.06075">
        <ele>3497</ele>
        <time>2025-10-21T19:30:21Z</time>
      </trkpt>
      <trkpt lat="-16.57036" lon="-68.06079">
        <ele>3496</ele>
        <time>2025-10-21T19:30:33Z</time>
      </trkpt>
      <trkpt lat="-16.57037" lon="-68.06083">
        <ele>3494</ele>
        <time>2025-10-21T19:30:47Z</time>
      </trkpt>
      <trkpt lat="-16.57038" lon="-68.06087">
        <ele>3492</ele>
        <time>2025-10-21T19:30:53Z</time>
      </trkpt>
      <trkpt lat="-16.5704" lon="-68.06091">
        <ele>3492</ele>
        <time>2025-10-21T19:31:07Z</time>
      </trkpt>
      <trkpt lat="-16.57048" lon="-68.06096">
        <ele>3493</ele>
        <time>2025-10-21T19:31:19Z</time>
      </trkpt>
      <trkpt lat="-16.57051" lon="-68.06097">
        <ele>3494</ele>
        <time>2025-10-21T19:31:25Z</time>
      </trkpt>
      <trkpt lat="-16.57053" lon="-68.06101">
        <ele>3493</ele>
        <time>2025-10-21T19:31:31Z</time>
      </trkpt>
      <trkpt lat="-16.57052" lon="-68.06105">
        <ele>3492</ele>
        <time>2025-10-21T19:31:35Z</time>
      </trkpt>
      <trkpt lat="-16.57051" lon="-68.06109">
        <ele>3491</ele>
        <time>2025-10-21T19:31:41Z</time>
      </trkpt>
      <trkpt lat="-16.57048" lon="-68.06113">
        <ele>3489</ele>
        <time>2025-10-21T19:31:55Z</time>
      </trkpt>
      <trkpt lat="-16.57046" lon="-68.06116">
        <ele>3488</ele>
        <time>2025-10-21T19:32:01Z</time>
      </trkpt>
      <trkpt lat="-16.57044" lon="-68.06119">
        <ele>3487</ele>
        <time>2025-10-21T19:32:13Z</time>
      </trkpt>
      <trkpt lat="-16.57042" lon="-68.06123">
        <ele>3486</ele>
        <time>2025-10-21T19:32:21Z</time>
      </trkpt>
      <trkpt lat="-16.57042" lon="-68.06128">
        <ele>3484</ele>
        <time>2025-10-21T19:32:29Z</time>
      </trkpt>
      <trkpt lat="-16.57042" lon="-68.06132">
        <ele>3483</ele>
        <time>2025-10-21T19:32:35Z</time>
      </trkpt>
      <trkpt lat="-16.57039" lon="-68.06134">
        <ele>3481</ele>
        <time>2025-10-21T19:32:47Z</time>
      </trkpt>
      <trkpt lat="-16.57037" lon="-68.06138">
        <ele>3481</ele>
        <time>2025-10-21T19:32:55Z</time>
      </trkpt>
      <trkpt lat="-16.5704" lon="-68.06141">
        <ele>3479</ele>
        <time>2025-10-21T19:33:17Z</time>
      </trkpt>
      <trkpt lat="-16.57042" lon="-68.06144">
        <ele>3478</ele>
        <time>2025-10-21T19:33:21Z</time>
      </trkpt>
      <trkpt lat="-16.57043" lon="-68.06149">
        <ele>3475</ele>
        <time>2025-10-21T19:33:27Z</time>
      </trkpt>
      <trkpt lat="-16.57043" lon="-68.06153">
        <ele>3474</ele>
        <time>2025-10-21T19:33:31Z</time>
      </trkpt>
      <trkpt lat="-16.5704" lon="-68.06155">
        <ele>3473</ele>
        <time>2025-10-21T19:33:37Z</time>
      </trkpt>
      <trkpt lat="-16.57038" lon="-68.06158">
        <ele>3471</ele>
        <time>2025-10-21T19:33:41Z</time>
      </trkpt>
      <trkpt lat="-16.57038" lon="-68.06162">
        <ele>3470</ele>
        <time>2025-10-21T19:33:45Z</time>
      </trkpt>
      <trkpt lat="-16.57037" lon="-68.0617">
        <ele>3467</ele>
        <time>2025-10-21T19:33:53Z</time>
      </trkpt>
      <trkpt lat="-16.57033" lon="-68.06187">
        <ele>3460</ele>
        <time>2025-10-21T19:34:11Z</time>
      </trkpt>
      <trkpt lat="-16.57034" lon="-68.06191">
        <ele>3458</ele>
        <time>2025-10-21T19:34:15Z</time>
      </trkpt>
      <trkpt lat="-16.57035" lon="-68.06195">
        <ele>3458</ele>
        <time>2025-10-21T19:34:19Z</time>
      </trkpt>
      <trkpt lat="-16.57034" lon="-68.06199">
        <ele>3456</ele>
        <time>2025-10-21T19:34:23Z</time>
      </trkpt>
      <trkpt lat="-16.57033" lon="-68.06203">
        <ele>3456</ele>
        <time>2025-10-21T19:34:27Z</time>
      </trkpt>
      <trkpt lat="-16.57035" lon="-68.06207">
        <ele>3454</ele>
        <time>2025-10-21T19:34:31Z</time>
      </trkpt>
      <trkpt lat="-16.57036" lon="-68.06211">
        <ele>3453</ele>
        <time>2025-10-21T19:34:35Z</time>
      </trkpt>
      <trkpt lat="-16.57039" lon="-68.06215">
        <ele>3452</ele>
        <time>2025-10-21T19:34:39Z</time>
      </trkpt>
      <trkpt lat="-16.57041" lon="-68.06219">
        <ele>3452</ele>
        <time>2025-10-21T19:34:43Z</time>
      </trkpt>
      <trkpt lat="-16.57045" lon="-68.06221">
        <ele>3451</ele>
        <time>2025-10-21T19:34:47Z</time>
      </trkpt>
      <trkpt lat="-16.57048" lon="-68.06222">
        <ele>3450</ele>
        <time>2025-10-21T19:34:51Z</time>
      </trkpt>
      <trkpt lat="-16.5706" lon="-68.06228">
        <ele>3450</ele>
        <time>2025-10-21T19:35:05Z</time>
      </trkpt>
      <trkpt lat="-16.57063" lon="-68.06232">
        <ele>3449</ele>
        <time>2025-10-21T19:35:11Z</time>
      </trkpt>
      <trkpt lat="-16.57062" lon="-68.06251">
        <ele>3447</ele>
        <time>2025-10-21T19:35:37Z</time>
      </trkpt>
      <trkpt lat="-16.57062" lon="-68.06254">
        <ele>3446</ele>
        <time>2025-10-21T19:35:43Z</time>
      </trkpt>
      <trkpt lat="-16.57059" lon="-68.06258">
        <ele>3446</ele>
        <time>2025-10-21T19:36:38Z</time>
      </trkpt>
      <trkpt lat="-16.57058" lon="-68.06263">
        <ele>3444</ele>
        <time>2025-10-21T19:36:44Z</time>
      </trkpt>
      <trkpt lat="-16.5706" lon="-68.06267">
        <ele>3443</ele>
        <time>2025-10-21T19:36:56Z</time>
      </trkpt>
      <trkpt lat="-16.57061" lon="-68.0627">
        <ele>3445</ele>
        <time>2025-10-21T19:37:49Z</time>
      </trkpt>
      <trkpt lat="-16.57062" lon="-68.06274">
        <ele>3443</ele>
        <time>2025-10-21T19:37:59Z</time>
      </trkpt>
      <trkpt lat="-16.57063" lon="-68.06278">
        <ele>3441</ele>
        <time>2025-10-21T19:38:37Z</time>
      </trkpt>
      <trkpt lat="-16.57064" lon="-68.06282">
        <ele>3441</ele>
        <time>2025-10-21T19:38:45Z</time>
      </trkpt>
      <trkpt lat="-16.57064" lon="-68.06286">
        <ele>3440</ele>
        <time>2025-10-21T19:38:51Z</time>
      </trkpt>
      <trkpt lat="-16.57062" lon="-68.06289">
        <ele>3439</ele>
        <time>2025-10-21T19:38:55Z</time>
      </trkpt>
      <trkpt lat="-16.57059" lon="-68.06293">
        <ele>3437</ele>
        <time>2025-10-21T19:39:01Z</time>
      </trkpt>
      <trkpt lat="-16.57056" lon="-68.06295">
        <ele>3436</ele>
        <time>2025-10-21T19:39:05Z</time>
      </trkpt>
      <trkpt lat="-16.57053" lon="-68.06299">
        <ele>3433</ele>
        <time>2025-10-21T19:39:11Z</time>
      </trkpt>
      <trkpt lat="-16.57053" lon="-68.06304">
        <ele>3432</ele>
        <time>2025-10-21T19:39:15Z</time>
      </trkpt>
      <trkpt lat="-16.57053" lon="-68.06308">
        <ele>3429</ele>
        <time>2025-10-21T19:39:19Z</time>
      </trkpt>
      <trkpt lat="-16.57052" lon="-68.06312">
        <ele>3428</ele>
        <time>2025-10-21T19:39:23Z</time>
      </trkpt>
      <trkpt lat="-16.57051" lon="-68.06315">
        <ele>3426</ele>
        <time>2025-10-21T19:39:27Z</time>
      </trkpt>
      <trkpt lat="-16.57055" lon="-68.06318">
        <ele>3426</ele>
        <time>2025-10-21T19:39:31Z</time>
      </trkpt>
      <trkpt lat="-16.57057" lon="-68.06322">
        <ele>3425</ele>
        <time>2025-10-21T19:39:37Z</time>
      </trkpt>
      <trkpt lat="-16.57063" lon="-68.06321">
        <ele>3425</ele>
        <time>2025-10-21T19:39:43Z</time>
      </trkpt>
      <trkpt lat="-16.57065" lon="-68.06318">
        <ele>3425</ele>
        <time>2025-10-21T19:39:47Z</time>
      </trkpt>
      <trkpt lat="-16.5707" lon="-68.06317">
        <ele>3424</ele>
        <time>2025-10-21T19:39:53Z</time>
      </trkpt>
      <trkpt lat="-16.57075" lon="-68.06318">
        <ele>3422</ele>
        <time>2025-10-21T19:39:59Z</time>
      </trkpt>
      <trkpt lat="-16.57073" lon="-68.06322">
        <ele>3422</ele>
        <time>2025-10-21T19:40:05Z</time>
      </trkpt>
      <trkpt lat="-16.57071" lon="-68.06326">
        <ele>3419</ele>
        <time>2025-10-21T19:40:11Z</time>
      </trkpt>
      <trkpt lat="-16.57072" lon="-68.06329">
        <ele>3418</ele>
        <time>2025-10-21T19:40:15Z</time>
      </trkpt>
      <trkpt lat="-16.57072" lon="-68.06334">
        <ele>3418</ele>
        <time>2025-10-21T19:40:21Z</time>
      </trkpt>
      <trkpt lat="-16.57075" lon="-68.06336">
        <ele>3417</ele>
        <time>2025-10-21T19:40:25Z</time>
      </trkpt>
      <trkpt lat="-16.5708" lon="-68.06336">
        <ele>3416</ele>
        <time>2025-10-21T19:40:31Z</time>
      </trkpt>
      <trkpt lat="-16.57084" lon="-68.06335">
        <ele>3415</ele>
        <time>2025-10-21T19:40:35Z</time>
      </trkpt>
      <trkpt lat="-16.57087" lon="-68.06334">
        <ele>3414</ele>
        <time>2025-10-21T19:40:39Z</time>
      </trkpt>
      <trkpt lat="-16.57091" lon="-68.06337">
        <ele>3413</ele>
        <time>2025-10-21T19:40:45Z</time>
      </trkpt>
      <trkpt lat="-16.57091" lon="-68.06342">
        <ele>3411</ele>
        <time>2025-10-21T19:40:51Z</time>
      </trkpt>
      <trkpt lat="-16.57088" lon="-68.06346">
        <ele>3409</ele>
        <time>2025-10-21T19:40:57Z</time>
      </trkpt>
      <trkpt lat="-16.57086" lon="-68.06356">
        <ele>3406</ele>
        <time>2025-10-21T19:41:09Z</time>
      </trkpt>
      <trkpt lat="-16.57087" lon="-68.06361">
        <ele>3406</ele>
        <time>2025-10-21T19:41:15Z</time>
      </trkpt>
      <trkpt lat="-16.57091" lon="-68.06363">
        <ele>3405</ele>
        <time>2025-10-21T19:41:21Z</time>
      </trkpt>
      <trkpt lat="-16.57093" lon="-68.06367">
        <ele>3404</ele>
        <time>2025-10-21T19:41:27Z</time>
      </trkpt>
      <trkpt lat="-16.57089" lon="-68.06374">
        <ele>3400</ele>
        <time>2025-10-21T19:41:37Z</time>
      </trkpt>
      <trkpt lat="-16.57087" lon="-68.06384">
        <ele>3398</ele>
        <time>2025-10-21T19:41:47Z</time>
      </trkpt>
      <trkpt lat="-16.57085" lon="-68.06391">
        <ele>3396</ele>
        <time>2025-10-21T19:41:55Z</time>
      </trkpt>
      <trkpt lat="-16.57083" lon="-68.06395">
        <ele>3395</ele>
        <time>2025-10-21T19:41:59Z</time>
      </trkpt>
      <trkpt lat="-16.57083" lon="-68.06399">
        <ele>3396</ele>
        <time>2025-10-21T19:42:05Z</time>
      </trkpt>
      <trkpt lat="-16.57085" lon="-68.06403">
        <ele>3397</ele>
        <time>2025-10-21T19:42:17Z</time>
      </trkpt>
      <trkpt lat="-16.57086" lon="-68.06407">
        <ele>3397</ele>
        <time>2025-10-21T19:42:23Z</time>
      </trkpt>
      <trkpt lat="-16.57089" lon="-68.06408">
        <ele>3397</ele>
        <time>2025-10-21T19:42:39Z</time>
      </trkpt>
      <trkpt lat="-16.57091" lon="-68.06411">
        <ele>3395</ele>
        <time>2025-10-21T19:42:47Z</time>
      </trkpt>
      <trkpt lat="-16.57089" lon="-68.06414">
        <ele>3394</ele>
        <time>2025-10-21T19:42:53Z</time>
      </trkpt>
      <trkpt lat="-16.57086" lon="-68.06416">
        <ele>3391</ele>
        <time>2025-10-21T19:42:59Z</time>
      </trkpt>
      <trkpt lat="-16.57084" lon="-68.06421">
        <ele>3390</ele>
        <time>2025-10-21T19:43:05Z</time>
      </trkpt>
      <trkpt lat="-16.57086" lon="-68.06429">
        <ele>3389</ele>
        <time>2025-10-21T19:43:13Z</time>
      </trkpt>
      <trkpt lat="-16.57088" lon="-68.06433">
        <ele>3388</ele>
        <time>2025-10-21T19:43:17Z</time>
      </trkpt>
      <trkpt lat="-16.57091" lon="-68.06445">
        <ele>3385</ele>
        <time>2025-10-21T19:43:29Z</time>
      </trkpt>
      <trkpt lat="-16.57091" lon="-68.0645">
        <ele>3383</ele>
        <time>2025-10-21T19:43:35Z</time>
      </trkpt>
      <trkpt lat="-16.57089" lon="-68.06459">
        <ele>3380</ele>
        <time>2025-10-21T19:43:55Z</time>
      </trkpt>
      <trkpt lat="-16.57088" lon="-68.06463">
        <ele>3377</ele>
        <time>2025-10-21T19:44:01Z</time>
      </trkpt>
      <trkpt lat="-16.57091" lon="-68.06464">
        <ele>3377</ele>
        <time>2025-10-21T19:44:16Z</time>
      </trkpt>
      <trkpt lat="-16.5709" lon="-68.06469">
        <ele>3379</ele>
        <time>2025-10-21T19:44:51Z</time>
      </trkpt>
      <trkpt lat="-16.57088" lon="-68.06474">
        <ele>3378</ele>
        <time>2025-10-21T19:44:57Z</time>
      </trkpt>
      <trkpt lat="-16.5709" lon="-68.06483">
        <ele>3375</ele>
        <time>2025-10-21T19:45:07Z</time>
      </trkpt>
      <trkpt lat="-16.57088" lon="-68.06488">
        <ele>3373</ele>
        <time>2025-10-21T19:45:13Z</time>
      </trkpt>
      <trkpt lat="-16.57086" lon="-68.06501">
        <ele>3367</ele>
        <time>2025-10-21T19:45:27Z</time>
      </trkpt>
      <trkpt lat="-16.57091" lon="-68.06508">
        <ele>3363</ele>
        <time>2025-10-21T19:45:37Z</time>
      </trkpt>
      <trkpt lat="-16.57093" lon="-68.06511">
        <ele>3363</ele>
        <time>2025-10-21T19:45:41Z</time>
      </trkpt>
      <trkpt lat="-16.57095" lon="-68.06514">
        <ele>3362</ele>
        <time>2025-10-21T19:45:45Z</time>
      </trkpt>
      <trkpt lat="-16.57099" lon="-68.06518">
        <ele>3362</ele>
        <time>2025-10-21T19:45:51Z</time>
      </trkpt>
      <trkpt lat="-16.57103" lon="-68.06518">
        <ele>3360</ele>
        <time>2025-10-21T19:45:55Z</time>
      </trkpt>
      <trkpt lat="-16.57106" lon="-68.06518">
        <ele>3360</ele>
        <time>2025-10-21T19:45:59Z</time>
      </trkpt>
      <trkpt lat="-16.5711" lon="-68.06518">
        <ele>3360</ele>
        <time>2025-10-21T19:46:03Z</time>
      </trkpt>
      <trkpt lat="-16.57116" lon="-68.06529">
        <ele>3357</ele>
        <time>2025-10-21T19:46:17Z</time>
      </trkpt>
      <trkpt lat="-16.57125" lon="-68.06531">
        <ele>3355</ele>
        <time>2025-10-21T19:46:27Z</time>
      </trkpt>
      <trkpt lat="-16.57136" lon="-68.06524">
        <ele>3354</ele>
        <time>2025-10-21T19:46:47Z</time>
      </trkpt>
      <trkpt lat="-16.5714" lon="-68.06526">
        <ele>3352</ele>
        <time>2025-10-21T19:46:53Z</time>
      </trkpt>
      <trkpt lat="-16.57141" lon="-68.06529">
        <ele>3352</ele>
        <time>2025-10-21T19:46:57Z</time>
      </trkpt>
      <trkpt lat="-16.57142" lon="-68.06535">
        <ele>3350</ele>
        <time>2025-10-21T19:47:03Z</time>
      </trkpt>
      <trkpt lat="-16.57144" lon="-68.06538">
        <ele>3349</ele>
        <time>2025-10-21T19:47:07Z</time>
      </trkpt>
      <trkpt lat="-16.57149" lon="-68.06546">
        <ele>3347</ele>
        <time>2025-10-21T19:47:19Z</time>
      </trkpt>
      <trkpt lat="-16.57153" lon="-68.06549">
        <ele>3347</ele>
        <time>2025-10-21T19:47:23Z</time>
      </trkpt>
      <trkpt lat="-16.57154" lon="-68.06553">
        <ele>3345</ele>
        <time>2025-10-21T19:47:27Z</time>
      </trkpt>
      <trkpt lat="-16.57153" lon="-68.06562">
        <ele>3343</ele>
        <time>2025-10-21T19:47:37Z</time>
      </trkpt>
      <trkpt lat="-16.57157" lon="-68.06564">
        <ele>3342</ele>
        <time>2025-10-21T19:47:43Z</time>
      </trkpt>
      <trkpt lat="-16.57162" lon="-68.06564">
        <ele>3340</ele>
        <time>2025-10-21T19:47:47Z</time>
      </trkpt>
      <trkpt lat="-16.57162" lon="-68.06568">
        <ele>3339</ele>
        <time>2025-10-21T19:47:53Z</time>
      </trkpt>
      <trkpt lat="-16.57162" lon="-68.06572">
        <ele>3338</ele>
        <time>2025-10-21T19:47:59Z</time>
      </trkpt>
      <trkpt lat="-16.57159" lon="-68.06575">
        <ele>3339</ele>
        <time>2025-10-21T19:48:05Z</time>
      </trkpt>
      <trkpt lat="-16.57158" lon="-68.06579">
        <ele>3337</ele>
        <time>2025-10-21T19:48:17Z</time>
      </trkpt>
      <trkpt lat="-16.57156" lon="-68.06582">
        <ele>3336</ele>
        <time>2025-10-21T19:48:23Z</time>
      </trkpt>
      <trkpt lat="-16.57153" lon="-68.06584">
        <ele>3334</ele>
        <time>2025-10-21T19:48:27Z</time>
      </trkpt>
      <trkpt lat="-16.57152" lon="-68.06588">
        <ele>3333</ele>
        <time>2025-10-21T19:48:33Z</time>
      </trkpt>
      <trkpt lat="-16.57156" lon="-68.06591">
        <ele>3332</ele>
        <time>2025-10-21T19:48:39Z</time>
      </trkpt>
      <trkpt lat="-16.57158" lon="-68.06595">
        <ele>3331</ele>
        <time>2025-10-21T19:48:45Z</time>
      </trkpt>
      <trkpt lat="-16.57162" lon="-68.06595">
        <ele>3330</ele>
        <time>2025-10-21T19:48:53Z</time>
      </trkpt>
      <trkpt lat="-16.57164" lon="-68.06599">
        <ele>3328</ele>
        <time>2025-10-21T19:48:59Z</time>
      </trkpt>
      <trkpt lat="-16.57162" lon="-68.06603">
        <ele>3327</ele>
        <time>2025-10-21T19:49:05Z</time>
      </trkpt>
      <trkpt lat="-16.57164" lon="-68.06612">
        <ele>3324</ele>
        <time>2025-10-21T19:49:15Z</time>
      </trkpt>
      <trkpt lat="-16.57168" lon="-68.06624">
        <ele>3321</ele>
        <time>2025-10-21T19:49:31Z</time>
      </trkpt>
      <trkpt lat="-16.5717" lon="-68.06627">
        <ele>3320</ele>
        <time>2025-10-21T19:49:35Z</time>
      </trkpt>
      <trkpt lat="-16.57173" lon="-68.0663">
        <ele>3319</ele>
        <time>2025-10-21T19:50:03Z</time>
      </trkpt>
      <trkpt lat="-16.57182" lon="-68.06635">
        <ele>3317</ele>
        <time>2025-10-21T19:50:13Z</time>
      </trkpt>
      <trkpt lat="-16.57184" lon="-68.06639">
        <ele>3316</ele>
        <time>2025-10-21T19:50:17Z</time>
      </trkpt>
      <trkpt lat="-16.57187" lon="-68.06642">
        <ele>3315</ele>
        <time>2025-10-21T19:50:21Z</time>
      </trkpt>
      <trkpt lat="-16.57189" lon="-68.06645">
        <ele>3314</ele>
        <time>2025-10-21T19:50:25Z</time>
      </trkpt>
      <trkpt lat="-16.57192" lon="-68.06648">
        <ele>3313</ele>
        <time>2025-10-21T19:50:29Z</time>
      </trkpt>
      <trkpt lat="-16.57195" lon="-68.06649">
        <ele>3313</ele>
        <time>2025-10-21T19:50:33Z</time>
      </trkpt>
      <trkpt lat="-16.57196" lon="-68.06653">
        <ele>3312</ele>
        <time>2025-10-21T19:50:37Z</time>
      </trkpt>
      <trkpt lat="-16.57197" lon="-68.06656">
        <ele>3310</ele>
        <time>2025-10-21T19:50:41Z</time>
      </trkpt>
      <trkpt lat="-16.572" lon="-68.06661">
        <ele>3310</ele>
        <time>2025-10-21T19:50:47Z</time>
      </trkpt>
      <trkpt lat="-16.57202" lon="-68.06665">
        <ele>3308</ele>
        <time>2025-10-21T19:50:51Z</time>
      </trkpt>
      <trkpt lat="-16.57201" lon="-68.06669">
        <ele>3307</ele>
        <time>2025-10-21T19:50:55Z</time>
      </trkpt>
      <trkpt lat="-16.57201" lon="-68.06673">
        <ele>3305</ele>
        <time>2025-10-21T19:50:59Z</time>
      </trkpt>
      <trkpt lat="-16.57202" lon="-68.06681">
        <ele>3303</ele>
        <time>2025-10-21T19:51:07Z</time>
      </trkpt>
      <trkpt lat="-16.57204" lon="-68.06684">
        <ele>3303</ele>
        <time>2025-10-21T19:51:11Z</time>
      </trkpt>
      <trkpt lat="-16.57203" lon="-68.06689">
        <ele>3301</ele>
        <time>2025-10-21T19:51:17Z</time>
      </trkpt>
      <trkpt lat="-16.572" lon="-68.06694">
        <ele>3299</ele>
        <time>2025-10-21T19:51:23Z</time>
      </trkpt>
      <trkpt lat="-16.57199" lon="-68.06697">
        <ele>3298</ele>
        <time>2025-10-21T19:51:27Z</time>
      </trkpt>
      <trkpt lat="-16.57197" lon="-68.067">
        <ele>3297</ele>
        <time>2025-10-21T19:51:31Z</time>
      </trkpt>
      <trkpt lat="-16.57196" lon="-68.0671">
        <ele>3294</ele>
        <time>2025-10-21T19:51:43Z</time>
      </trkpt>
      <trkpt lat="-16.57194" lon="-68.06714">
        <ele>3293</ele>
        <time>2025-10-21T19:51:49Z</time>
      </trkpt>
      <trkpt lat="-16.57192" lon="-68.06719">
        <ele>3292</ele>
        <time>2025-10-21T19:51:55Z</time>
      </trkpt>
      <trkpt lat="-16.57191" lon="-68.06723">
        <ele>3291</ele>
        <time>2025-10-21T19:52:05Z</time>
      </trkpt>
      <trkpt lat="-16.57194" lon="-68.06727">
        <ele>3291</ele>
        <time>2025-10-21T19:52:13Z</time>
      </trkpt>
      <trkpt lat="-16.57196" lon="-68.06729">
        <ele>3291</ele>
        <time>2025-10-21T19:52:39Z</time>
      </trkpt>
      <trkpt lat="-16.57201" lon="-68.06729">
        <ele>3290</ele>
        <time>2025-10-21T19:52:47Z</time>
      </trkpt>
      <trkpt lat="-16.57208" lon="-68.06725">
        <ele>3289</ele>
        <time>2025-10-21T19:52:59Z</time>
      </trkpt>
      <trkpt lat="-16.5721" lon="-68.06728">
        <ele>3288</ele>
        <time>2025-10-21T19:53:07Z</time>
      </trkpt>
      <trkpt lat="-16.5721" lon="-68.06735">
        <ele>3287</ele>
        <time>2025-10-21T19:53:19Z</time>
      </trkpt>
      <trkpt lat="-16.5721" lon="-68.06739">
        <ele>3287</ele>
        <time>2025-10-21T19:53:23Z</time>
      </trkpt>
      <trkpt lat="-16.57211" lon="-68.06743">
        <ele>3286</ele>
        <time>2025-10-21T19:53:27Z</time>
      </trkpt>
      <trkpt lat="-16.57213" lon="-68.06747">
        <ele>3285</ele>
        <time>2025-10-21T19:53:31Z</time>
      </trkpt>
      <trkpt lat="-16.57215" lon="-68.06754">
        <ele>3283</ele>
        <time>2025-10-21T19:53:41Z</time>
      </trkpt>
      <trkpt lat="-16.57214" lon="-68.06759">
        <ele>3282</ele>
        <time>2025-10-21T19:53:47Z</time>
      </trkpt>
      <trkpt lat="-16.5721" lon="-68.06767">
        <ele>3280</ele>
        <time>2025-10-21T19:53:57Z</time>
      </trkpt>
      <trkpt lat="-16.57208" lon="-68.0678">
        <ele>3273</ele>
        <time>2025-10-21T19:54:17Z</time>
      </trkpt>
      <trkpt lat="-16.57211" lon="-68.06783">
        <ele>3273</ele>
        <time>2025-10-21T19:54:49Z</time>
      </trkpt>
      <trkpt lat="-16.5721" lon="-68.06787">
        <ele>3272</ele>
        <time>2025-10-21T19:54:57Z</time>
      </trkpt>
      <trkpt lat="-16.57207" lon="-68.06791">
        <ele>3271</ele>
        <time>2025-10-21T19:55:03Z</time>
      </trkpt>
      <trkpt lat="-16.57208" lon="-68.06796">
        <ele>3270</ele>
        <time>2025-10-21T19:55:09Z</time>
      </trkpt>
      <trkpt lat="-16.57206" lon="-68.068">
        <ele>3268</ele>
        <time>2025-10-21T19:55:15Z</time>
      </trkpt>
      <trkpt lat="-16.57206" lon="-68.06804">
        <ele>3267</ele>
        <time>2025-10-21T19:55:21Z</time>
      </trkpt>
      <trkpt lat="-16.57206" lon="-68.06808">
        <ele>3265</ele>
        <time>2025-10-21T19:55:27Z</time>
      </trkpt>
      <trkpt lat="-16.57205" lon="-68.06813">
        <ele>3264</ele>
        <time>2025-10-21T19:55:33Z</time>
      </trkpt>
      <trkpt lat="-16.57203" lon="-68.06817">
        <ele>3261</ele>
        <time>2025-10-21T19:55:39Z</time>
      </trkpt>
      <trkpt lat="-16.57202" lon="-68.06822">
        <ele>3258</ele>
        <time>2025-10-21T19:55:45Z</time>
      </trkpt>
      <trkpt lat="-16.57204" lon="-68.06827">
        <ele>3256</ele>
        <time>2025-10-21T19:55:51Z</time>
      </trkpt>
      <trkpt lat="-16.57203" lon="-68.06828">
        <ele>3256</ele>
        <time>2025-10-21T19:56:17Z</time>
      </trkpt>
      <trkpt lat="-16.57204" lon="-68.06832">
        <ele>3256</ele>
        <time>2025-10-21T19:56:25Z</time>
      </trkpt>
      <trkpt lat="-16.57204" lon="-68.06836">
        <ele>3256</ele>
        <time>2025-10-21T19:56:28Z</time>
      </trkpt>
      <trkpt lat="-16.57207" lon="-68.06839">
        <ele>3256</ele>
        <time>2025-10-21T19:56:32Z</time>
      </trkpt>
      <trkpt lat="-16.57213" lon="-68.0685">
        <ele>3254</ele>
        <time>2025-10-21T19:56:44Z</time>
      </trkpt>
      <trkpt lat="-16.57215" lon="-68.06854">
        <ele>3253</ele>
        <time>2025-10-21T19:56:51Z</time>
      </trkpt>
      <trkpt lat="-16.57234" lon="-68.06865">
        <ele>3249</ele>
        <time>2025-10-21T19:57:19Z</time>
      </trkpt>
      <trkpt lat="-16.57241" lon="-68.06872">
        <ele>3249</ele>
        <time>2025-10-21T19:57:27Z</time>
      </trkpt>
      <trkpt lat="-16.57253" lon="-68.06876">
        <ele>3252</ele>
        <time>2025-10-21T19:57:41Z</time>
      </trkpt>
      <trkpt lat="-16.5726" lon="-68.06882">
        <ele>3252</ele>
        <time>2025-10-21T19:57:49Z</time>
      </trkpt>
      <trkpt lat="-16.57269" lon="-68.06884">
        <ele>3251</ele>
        <time>2025-10-21T19:57:57Z</time>
      </trkpt>
      <trkpt lat="-16.57272" lon="-68.06885">
        <ele>3251</ele>
        <time>2025-10-21T19:58:09Z</time>
      </trkpt>
      <trkpt lat="-16.57279" lon="-68.06896">
        <ele>3248</ele>
        <time>2025-10-21T19:58:33Z</time>
      </trkpt>
      <trkpt lat="-16.57281" lon="-68.06894">
        <ele>3247</ele>
        <time>2025-10-21T19:58:39Z</time>
      </trkpt>
      <trkpt lat="-16.57285" lon="-68.06895">
        <ele>3245</ele>
        <time>2025-10-21T19:58:45Z</time>
      </trkpt>
      <trkpt lat="-16.57293" lon="-68.06901">
        <ele>3244</ele>
        <time>2025-10-21T19:58:57Z</time>
      </trkpt>
      <trkpt lat="-16.57297" lon="-68.06903">
        <ele>3243</ele>
        <time>2025-10-21T19:59:01Z</time>
      </trkpt>
      <trkpt lat="-16.57302" lon="-68.06902">
        <ele>3243</ele>
        <time>2025-10-21T19:59:07Z</time>
      </trkpt>
      <trkpt lat="-16.57306" lon="-68.06904">
        <ele>3241</ele>
        <time>2025-10-21T19:59:27Z</time>
      </trkpt>
      <trkpt lat="-16.57311" lon="-68.06905">
        <ele>3242</ele>
        <time>2025-10-21T19:59:33Z</time>
      </trkpt>
      <trkpt lat="-16.57313" lon="-68.06908">
        <ele>3241</ele>
        <time>2025-10-21T19:59:39Z</time>
      </trkpt>
      <trkpt lat="-16.57311" lon="-68.06912">
        <ele>3239</ele>
        <time>2025-10-21T19:59:45Z</time>
      </trkpt>
      <trkpt lat="-16.5731" lon="-68.06917">
        <ele>3237</ele>
        <time>2025-10-21T19:59:51Z</time>
      </trkpt>
      <trkpt lat="-16.57311" lon="-68.06922">
        <ele>3236</ele>
        <time>2025-10-21T19:59:57Z</time>
      </trkpt>
      <trkpt lat="-16.57312" lon="-68.06926">
        <ele>3235</ele>
        <time>2025-10-21T20:00:05Z</time>
      </trkpt>
      <trkpt lat="-16.5731" lon="-68.06929">
        <ele>3233</ele>
        <time>2025-10-21T20:00:15Z</time>
      </trkpt>
      <trkpt lat="-16.57311" lon="-68.06937">
        <ele>3230</ele>
        <time>2025-10-21T20:00:29Z</time>
      </trkpt>
      <trkpt lat="-16.57313" lon="-68.06941">
        <ele>3230</ele>
        <time>2025-10-21T20:00:35Z</time>
      </trkpt>
      <trkpt lat="-16.57314" lon="-68.06945">
        <ele>3228</ele>
        <time>2025-10-21T20:00:45Z</time>
      </trkpt>
      <trkpt lat="-16.57317" lon="-68.06947">
        <ele>3227</ele>
        <time>2025-10-21T20:00:51Z</time>
      </trkpt>
      <trkpt lat="-16.5732" lon="-68.06951">
        <ele>3224</ele>
        <time>2025-10-21T20:00:59Z</time>
      </trkpt>
      <trkpt lat="-16.57322" lon="-68.06954">
        <ele>3222</ele>
        <time>2025-10-21T20:01:05Z</time>
      </trkpt>
      <trkpt lat="-16.57329" lon="-68.06968">
        <ele>3213</ele>
        <time>2025-10-21T20:01:23Z</time>
      </trkpt>
      <trkpt lat="-16.57333" lon="-68.06969">
        <ele>3211</ele>
        <time>2025-10-21T20:01:29Z</time>
      </trkpt>
      <trkpt lat="-16.57338" lon="-68.06978">
        <ele>3209</ele>
        <time>2025-10-21T20:01:41Z</time>
      </trkpt>
      <trkpt lat="-16.57341" lon="-68.06981">
        <ele>3207</ele>
        <time>2025-10-21T20:01:47Z</time>
      </trkpt>
      <trkpt lat="-16.57345" lon="-68.06983">
        <ele>3206</ele>
        <time>2025-10-21T20:01:53Z</time>
      </trkpt>
      <trkpt lat="-16.57347" lon="-68.06987">
        <ele>3204</ele>
        <time>2025-10-21T20:01:59Z</time>
      </trkpt>
      <trkpt lat="-16.5735" lon="-68.06991">
        <ele>3203</ele>
        <time>2025-10-21T20:02:05Z</time>
      </trkpt>
      <trkpt lat="-16.57351" lon="-68.06994">
        <ele>3200</ele>
        <time>2025-10-21T20:02:13Z</time>
      </trkpt>
      <trkpt lat="-16.57348" lon="-68.06996">
        <ele>3200</ele>
        <time>2025-10-21T20:02:19Z</time>
      </trkpt>
      <trkpt lat="-16.57346" lon="-68.07">
        <ele>3198</ele>
        <time>2025-10-21T20:02:25Z</time>
      </trkpt>
      <trkpt lat="-16.57354" lon="-68.07003">
        <ele>3196</ele>
        <time>2025-10-21T20:02:35Z</time>
      </trkpt>
      <trkpt lat="-16.57358" lon="-68.07002">
        <ele>3196</ele>
        <time>2025-10-21T20:02:39Z</time>
      </trkpt>
      <trkpt lat="-16.57362" lon="-68.07">
        <ele>3195</ele>
        <time>2025-10-21T20:02:43Z</time>
      </trkpt>
      <trkpt lat="-16.57364" lon="-68.07003">
        <ele>3193</ele>
        <time>2025-10-21T20:02:53Z</time>
      </trkpt>
      <trkpt lat="-16.5736" lon="-68.07009">
        <ele>3190</ele>
        <time>2025-10-21T20:03:01Z</time>
      </trkpt>
      <trkpt lat="-16.57362" lon="-68.07012">
        <ele>3190</ele>
        <time>2025-10-21T20:03:07Z</time>
      </trkpt>
      <trkpt lat="-16.57366" lon="-68.07011">
        <ele>3189</ele>
        <time>2025-10-21T20:03:13Z</time>
      </trkpt>
      <trkpt lat="-16.57373" lon="-68.07008">
        <ele>3186</ele>
        <time>2025-10-21T20:03:21Z</time>
      </trkpt>
      <trkpt lat="-16.57374" lon="-68.07012">
        <ele>3183</ele>
        <time>2025-10-21T20:03:31Z</time>
      </trkpt>
      <trkpt lat="-16.57368" lon="-68.07019">
        <ele>3181</ele>
        <time>2025-10-21T20:03:43Z</time>
      </trkpt>
      <trkpt lat="-16.57366" lon="-68.07024">
        <ele>3179</ele>
        <time>2025-10-21T20:03:49Z</time>
      </trkpt>
      <trkpt lat="-16.57356" lon="-68.07045">
        <ele>3171</ele>
        <time>2025-10-21T20:04:19Z</time>
      </trkpt>
      <trkpt lat="-16.57353" lon="-68.07049">
        <ele>3168</ele>
        <time>2025-10-21T20:04:25Z</time>
      </trkpt>
      <trkpt lat="-16.57357" lon="-68.0705">
        <ele>3168</ele>
        <time>2025-10-21T20:04:33Z</time>
      </trkpt>
      <trkpt lat="-16.57356" lon="-68.07058">
        <ele>3164</ele>
        <time>2025-10-21T20:04:49Z</time>
      </trkpt>
      <trkpt lat="-16.57354" lon="-68.07062">
        <ele>3163</ele>
        <time>2025-10-21T20:04:55Z</time>
      </trkpt>
      <trkpt lat="-16.57354" lon="-68.07067">
        <ele>3161</ele>
        <time>2025-10-21T20:05:01Z</time>
      </trkpt>
      <trkpt lat="-16.57352" lon="-68.07076">
        <ele>3158</ele>
        <time>2025-10-21T20:05:13Z</time>
      </trkpt>
      <trkpt lat="-16.57355" lon="-68.07076">
        <ele>3157</ele>
        <time>2025-10-21T20:05:21Z</time>
      </trkpt>
      <trkpt lat="-16.57358" lon="-68.07083">
        <ele>3152</ele>
        <time>2025-10-21T20:05:37Z</time>
      </trkpt>
      <trkpt lat="-16.57356" lon="-68.07088">
        <ele>3151</ele>
        <time>2025-10-21T20:05:43Z</time>
      </trkpt>
      <trkpt lat="-16.57355" lon="-68.07091">
        <ele>3150</ele>
        <time>2025-10-21T20:05:47Z</time>
      </trkpt>
      <trkpt lat="-16.57354" lon="-68.07095">
        <ele>3149</ele>
        <time>2025-10-21T20:05:53Z</time>
      </trkpt>
      <trkpt lat="-16.57354" lon="-68.07099">
        <ele>3148</ele>
        <time>2025-10-21T20:05:59Z</time>
      </trkpt>
      <trkpt lat="-16.57356" lon="-68.07101">
        <ele>3146</ele>
        <time>2025-10-21T20:06:05Z</time>
      </trkpt>
      <trkpt lat="-16.5736" lon="-68.07102">
        <ele>3142</ele>
        <time>2025-10-21T20:06:27Z</time>
      </trkpt>
      <trkpt lat="-16.57362" lon="-68.07106">
        <ele>3141</ele>
        <time>2025-10-21T20:07:07Z</time>
      </trkpt>
      <trkpt lat="-16.57361" lon="-68.0711">
        <ele>3139</ele>
        <time>2025-10-21T20:07:13Z</time>
      </trkpt>
      <trkpt lat="-16.57361" lon="-68.07114">
        <ele>3138</ele>
        <time>2025-10-21T20:07:19Z</time>
      </trkpt>
      <trkpt lat="-16.5736" lon="-68.0713">
        <ele>3130</ele>
        <time>2025-10-21T20:07:37Z</time>
      </trkpt>
      <trkpt lat="-16.57359" lon="-68.07134">
        <ele>3126</ele>
        <time>2025-10-21T20:07:41Z</time>
      </trkpt>
      <trkpt lat="-16.5736" lon="-68.07138">
        <ele>3125</ele>
        <time>2025-10-21T20:07:45Z</time>
      </trkpt>
      <trkpt lat="-16.57363" lon="-68.07141">
        <ele>3123</ele>
        <time>2025-10-21T20:07:49Z</time>
      </trkpt>
      <trkpt lat="-16.57366" lon="-68.07149">
        <ele>3125</ele>
        <time>2025-10-21T20:07:59Z</time>
      </trkpt>
      <trkpt lat="-16.57369" lon="-68.07153">
        <ele>3125</ele>
        <time>2025-10-21T20:08:07Z</time>
      </trkpt>
      <trkpt lat="-16.57373" lon="-68.07153">
        <ele>3124</ele>
        <time>2025-10-21T20:08:13Z</time>
      </trkpt>
      <trkpt lat="-16.57373" lon="-68.07157">
        <ele>3123</ele>
        <time>2025-10-21T20:08:21Z</time>
      </trkpt>
      <trkpt lat="-16.57377" lon="-68.07158">
        <ele>3122</ele>
        <time>2025-10-21T20:08:27Z</time>
      </trkpt>
      <trkpt lat="-16.57379" lon="-68.07161">
        <ele>3122</ele>
        <time>2025-10-21T20:08:33Z</time>
      </trkpt>
      <trkpt lat="-16.57382" lon="-68.07166">
        <ele>3121</ele>
        <time>2025-10-21T20:08:39Z</time>
      </trkpt>
      <trkpt lat="-16.57385" lon="-68.07169">
        <ele>3119</ele>
        <time>2025-10-21T20:08:45Z</time>
      </trkpt>
      <trkpt lat="-16.57388" lon="-68.07172">
        <ele>3118</ele>
        <time>2025-10-21T20:08:53Z</time>
      </trkpt>
      <trkpt lat="-16.57387" lon="-68.07173">
        <ele>3122</ele>
        <time>2025-10-21T20:10:39Z</time>
      </trkpt>
      <trkpt lat="-16.57386" lon="-68.07172">
        <ele>3123</ele>
        <time>2025-10-21T20:11:05Z</time>
      </trkpt>
      <trkpt lat="-16.57389" lon="-68.0717">
        <ele>3123</ele>
        <time>2025-10-21T20:11:10Z</time>
      </trkpt>
      <trkpt lat="-16.57392" lon="-68.07168">
        <ele>3123</ele>
        <time>2025-10-21T20:11:14Z</time>
      </trkpt>
      <trkpt lat="-16.57394" lon="-68.07165">
        <ele>3122</ele>
        <time>2025-10-21T20:11:18Z</time>
      </trkpt>
      <trkpt lat="-16.57395" lon="-68.07161">
        <ele>3121</ele>
        <time>2025-10-21T20:11:24Z</time>
      </trkpt>
      <trkpt lat="-16.57395" lon="-68.07157">
        <ele>3120</ele>
        <time>2025-10-21T20:11:32Z</time>
      </trkpt>
      <trkpt lat="-16.57395" lon="-68.07154">
        <ele>3120</ele>
        <time>2025-10-21T20:11:38Z</time>
      </trkpt>
      <trkpt lat="-16.57394" lon="-68.07141">
        <ele>3118</ele>
        <time>2025-10-21T20:11:54Z</time>
      </trkpt>
      <trkpt lat="-16.57395" lon="-68.07137">
        <ele>3118</ele>
        <time>2025-10-21T20:11:58Z</time>
      </trkpt>
      <trkpt lat="-16.57401" lon="-68.07131">
        <ele>3118</ele>
        <time>2025-10-21T20:12:06Z</time>
      </trkpt>
      <trkpt lat="-16.57403" lon="-68.07129">
        <ele>3118</ele>
        <time>2025-10-21T20:12:10Z</time>
      </trkpt>
      <trkpt lat="-16.57407" lon="-68.07131">
        <ele>3118</ele>
        <time>2025-10-21T20:12:14Z</time>
      </trkpt>
      <trkpt lat="-16.5741" lon="-68.07134">
        <ele>3119</ele>
        <time>2025-10-21T20:12:18Z</time>
      </trkpt>
      <trkpt lat="-16.5742" lon="-68.07147">
        <ele>3117</ele>
        <time>2025-10-21T20:12:34Z</time>
      </trkpt>
      <trkpt lat="-16.57422" lon="-68.07151">
        <ele>3116</ele>
        <time>2025-10-21T20:12:38Z</time>
      </trkpt>
      <trkpt lat="-16.57423" lon="-68.07155">
        <ele>3115</ele>
        <time>2025-10-21T20:12:44Z</time>
      </trkpt>
      <trkpt lat="-16.57422" lon="-68.07159">
        <ele>3115</ele>
        <time>2025-10-21T20:13:02Z</time>
      </trkpt>
      <trkpt lat="-16.57426" lon="-68.07161">
        <ele>3113</ele>
        <time>2025-10-21T20:13:10Z</time>
      </trkpt>
      <trkpt lat="-16.57428" lon="-68.07158">
        <ele>3111</ele>
        <time>2025-10-21T20:13:24Z</time>
      </trkpt>
      <trkpt lat="-16.5743" lon="-68.07155">
        <ele>3110</ele>
        <time>2025-10-21T20:13:28Z</time>
      </trkpt>
      <trkpt lat="-16.57438" lon="-68.07152">
        <ele>3109</ele>
        <time>2025-10-21T20:13:38Z</time>
      </trkpt>
      <trkpt lat="-16.57441" lon="-68.0715">
        <ele>3109</ele>
        <time>2025-10-21T20:13:42Z</time>
      </trkpt>
      <trkpt lat="-16.57445" lon="-68.07143">
        <ele>3107</ele>
        <time>2025-10-21T20:13:50Z</time>
      </trkpt>
      <trkpt lat="-16.57448" lon="-68.07141">
        <ele>3107</ele>
        <time>2025-10-21T20:13:54Z</time>
      </trkpt>
      <trkpt lat="-16.57451" lon="-68.07138">
        <ele>3106</ele>
        <time>2025-10-21T20:13:58Z</time>
      </trkpt>
      <trkpt lat="-16.57453" lon="-68.07135">
        <ele>3106</ele>
        <time>2025-10-21T20:14:02Z</time>
      </trkpt>
      <trkpt lat="-16.57458" lon="-68.07129">
        <ele>3104</ele>
        <time>2025-10-21T20:14:10Z</time>
      </trkpt>
      <trkpt lat="-16.57462" lon="-68.07122">
        <ele>3104</ele>
        <time>2025-10-21T20:14:18Z</time>
      </trkpt>
      <trkpt lat="-16.57463" lon="-68.07118">
        <ele>3104</ele>
        <time>2025-10-21T20:14:22Z</time>
      </trkpt>
      <trkpt lat="-16.57463" lon="-68.07114">
        <ele>3105</ele>
        <time>2025-10-21T20:14:28Z</time>
      </trkpt>
      <trkpt lat="-16.57463" lon="-68.07113">
        <ele>3107</ele>
        <time>2025-10-21T20:15:06Z</time>
      </trkpt>
      <trkpt lat="-16.57465" lon="-68.07116">
        <ele>3108</ele>
        <time>2025-10-21T20:15:18Z</time>
      </trkpt>
      <trkpt lat="-16.5747" lon="-68.07115">
        <ele>3108</ele>
        <time>2025-10-21T20:15:22Z</time>
      </trkpt>
      <trkpt lat="-16.57475" lon="-68.07114">
        <ele>3106</ele>
        <time>2025-10-21T20:15:28Z</time>
      </trkpt>
      <trkpt lat="-16.5748" lon="-68.07115">
        <ele>3104</ele>
        <time>2025-10-21T20:15:32Z</time>
      </trkpt>
      <trkpt lat="-16.57482" lon="-68.07117">
        <ele>3104</ele>
        <time>2025-10-21T20:15:34Z</time>
      </trkpt>
      <trkpt lat="-16.57486" lon="-68.0712">
        <ele>3103</ele>
        <time>2025-10-21T20:15:38Z</time>
      </trkpt>
      <trkpt lat="-16.5749" lon="-68.07117">
        <ele>3103</ele>
        <time>2025-10-21T20:15:42Z</time>
      </trkpt>
      <trkpt lat="-16.57493" lon="-68.07121">
        <ele>3103</ele>
        <time>2025-10-21T20:15:48Z</time>
      </trkpt>
      <trkpt lat="-16.57495" lon="-68.07119">
        <ele>3104</ele>
        <time>2025-10-21T20:15:52Z</time>
      </trkpt>
      <trkpt lat="-16.57503" lon="-68.07126">
        <ele>3107</ele>
        <time>2025-10-21T20:16:08Z</time>
      </trkpt>
      <trkpt lat="-16.57507" lon="-68.07127">
        <ele>3107</ele>
        <time>2025-10-21T20:16:18Z</time>
      </trkpt>
      <trkpt lat="-16.57516" lon="-68.0713">
        <ele>3106</ele>
        <time>2025-10-21T20:16:26Z</time>
      </trkpt>
      <trkpt lat="-16.57521" lon="-68.07131">
        <ele>3105</ele>
        <time>2025-10-21T20:16:30Z</time>
      </trkpt>
      <trkpt lat="-16.57524" lon="-68.07129">
        <ele>3105</ele>
        <time>2025-10-21T20:16:34Z</time>
      </trkpt>
      <trkpt lat="-16.57527" lon="-68.07126">
        <ele>3106</ele>
        <time>2025-10-21T20:16:38Z</time>
      </trkpt>
      <trkpt lat="-16.57525" lon="-68.07123">
        <ele>3106</ele>
        <time>2025-10-21T20:16:48Z</time>
      </trkpt>
      <trkpt lat="-16.57522" lon="-68.07119">
        <ele>3106</ele>
        <time>2025-10-21T20:16:54Z</time>
      </trkpt>
      <trkpt lat="-16.57522" lon="-68.07122">
        <ele>3105</ele>
        <time>2025-10-21T20:17:06Z</time>
      </trkpt>
      <trkpt lat="-16.57529" lon="-68.0713">
        <ele>3103</ele>
        <time>2025-10-21T20:17:16Z</time>
      </trkpt>
      <trkpt lat="-16.57532" lon="-68.07134">
        <ele>3102</ele>
        <time>2025-10-21T20:17:20Z</time>
      </trkpt>
      <trkpt lat="-16.57538" lon="-68.07114">
        <ele>3100</ele>
        <time>2025-10-21T20:17:42Z</time>
      </trkpt>
      <trkpt lat="-16.57541" lon="-68.07111">
        <ele>3098</ele>
        <time>2025-10-21T20:17:48Z</time>
      </trkpt>
      <trkpt lat="-16.57544" lon="-68.07108">
        <ele>3098</ele>
        <time>2025-10-21T20:17:52Z</time>
      </trkpt>
      <trkpt lat="-16.57546" lon="-68.07104">
        <ele>3097</ele>
        <time>2025-10-21T20:17:56Z</time>
      </trkpt>
      <trkpt lat="-16.57544" lon="-68.07099">
        <ele>3097</ele>
        <time>2025-10-21T20:18:02Z</time>
      </trkpt>
      <trkpt lat="-16.5755" lon="-68.07092">
        <ele>3098</ele>
        <time>2025-10-21T20:18:14Z</time>
      </trkpt>
      <trkpt lat="-16.57552" lon="-68.07088">
        <ele>3099</ele>
        <time>2025-10-21T20:18:20Z</time>
      </trkpt>
      <trkpt lat="-16.57555" lon="-68.07085">
        <ele>3098</ele>
        <time>2025-10-21T20:18:26Z</time>
      </trkpt>
      <trkpt lat="-16.57561" lon="-68.07073">
        <ele>3099</ele>
        <time>2025-10-21T20:18:40Z</time>
      </trkpt>
      <trkpt lat="-16.57563" lon="-68.0707">
        <ele>3099</ele>
        <time>2025-10-21T20:18:44Z</time>
      </trkpt>
      <trkpt lat="-16.57568" lon="-68.07064">
        <ele>3100</ele>
        <time>2025-10-21T20:18:52Z</time>
      </trkpt>
      <trkpt lat="-16.57573" lon="-68.07063">
        <ele>3099</ele>
        <time>2025-10-21T20:18:58Z</time>
      </trkpt>
      <trkpt lat="-16.57576" lon="-68.07063">
        <ele>3099</ele>
        <time>2025-10-21T20:19:02Z</time>
      </trkpt>
      <trkpt lat="-16.5758" lon="-68.07062">
        <ele>3098</ele>
        <time>2025-10-21T20:19:06Z</time>
      </trkpt>
      <trkpt lat="-16.57582" lon="-68.07058">
        <ele>3098</ele>
        <time>2025-10-21T20:19:10Z</time>
      </trkpt>
      <trkpt lat="-16.57588" lon="-68.07053">
        <ele>3098</ele>
        <time>2025-10-21T20:19:18Z</time>
      </trkpt>
      <trkpt lat="-16.5759" lon="-68.07051">
        <ele>3097</ele>
        <time>2025-10-21T20:19:22Z</time>
      </trkpt>
      <trkpt lat="-16.57595" lon="-68.07049">
        <ele>3095</ele>
        <time>2025-10-21T20:19:28Z</time>
      </trkpt>
      <trkpt lat="-16.57592" lon="-68.07049">
        <ele>3094</ele>
        <time>2025-10-21T20:19:58Z</time>
      </trkpt>
      <trkpt lat="-16.57589" lon="-68.07048">
        <ele>3096</ele>
        <time>2025-10-21T20:20:02Z</time>
      </trkpt>
      <trkpt lat="-16.57585" lon="-68.07051">
        <ele>3095</ele>
        <time>2025-10-21T20:20:06Z</time>
      </trkpt>
      <trkpt lat="-16.57589" lon="-68.07054">
        <ele>3094</ele>
        <time>2025-10-21T20:20:12Z</time>
      </trkpt>
      <trkpt lat="-16.57596" lon="-68.07057">
        <ele>3094</ele>
        <time>2025-10-21T20:20:24Z</time>
      </trkpt>
      <trkpt lat="-16.57598" lon="-68.07061">
        <ele>3094</ele>
        <time>2025-10-21T20:20:32Z</time>
      </trkpt>
      <trkpt lat="-16.576" lon="-68.07056">
        <ele>3093</ele>
        <time>2025-10-21T20:20:48Z</time>
      </trkpt>
      <trkpt lat="-16.57604" lon="-68.07056">
        <ele>3093</ele>
        <time>2025-10-21T20:20:54Z</time>
      </trkpt>
      <trkpt lat="-16.57608" lon="-68.0706">
        <ele>3093</ele>
        <time>2025-10-21T20:20:56Z</time>
      </trkpt>
      <trkpt lat="-16.5761" lon="-68.07057">
        <ele>3094</ele>
        <time>2025-10-21T20:21:00Z</time>
      </trkpt>
      <trkpt lat="-16.57614" lon="-68.07055">
        <ele>3094</ele>
        <time>2025-10-21T20:21:04Z</time>
      </trkpt>
      <trkpt lat="-16.57618" lon="-68.07051">
        <ele>3093</ele>
        <time>2025-10-21T20:21:10Z</time>
      </trkpt>
      <trkpt lat="-16.57626" lon="-68.07047">
        <ele>3091</ele>
        <time>2025-10-21T20:21:22Z</time>
      </trkpt>
      <trkpt lat="-16.57629" lon="-68.07043">
        <ele>3089</ele>
        <time>2025-10-21T20:21:28Z</time>
      </trkpt>
      <trkpt lat="-16.57632" lon="-68.07041">
        <ele>3090</ele>
        <time>2025-10-21T20:21:34Z</time>
      </trkpt>
      <trkpt lat="-16.57632" lon="-68.07036">
        <ele>3090</ele>
        <time>2025-10-21T20:21:42Z</time>
      </trkpt>
      <trkpt lat="-16.57637" lon="-68.07029">
        <ele>3090</ele>
        <time>2025-10-21T20:22:08Z</time>
      </trkpt>
      <trkpt lat="-16.57641" lon="-68.07026">
        <ele>3089</ele>
        <time>2025-10-21T20:22:24Z</time>
      </trkpt>
      <trkpt lat="-16.57645" lon="-68.07025">
        <ele>3089</ele>
        <time>2025-10-21T20:22:30Z</time>
      </trkpt>
      <trkpt lat="-16.57649" lon="-68.07023">
        <ele>3087</ele>
        <time>2025-10-21T20:22:38Z</time>
      </trkpt>
      <trkpt lat="-16.57655" lon="-68.07019">
        <ele>3087</ele>
        <time>2025-10-21T20:23:06Z</time>
      </trkpt>
      <trkpt lat="-16.57659" lon="-68.07019">
        <ele>3089</ele>
        <time>2025-10-21T20:23:20Z</time>
      </trkpt>
      <trkpt lat="-16.57663" lon="-68.07017">
        <ele>3090</ele>
        <time>2025-10-21T20:23:28Z</time>
      </trkpt>
      <trkpt lat="-16.57667" lon="-68.07017">
        <ele>3091</ele>
        <time>2025-10-21T20:23:36Z</time>
      </trkpt>
      <trkpt lat="-16.57671" lon="-68.07017">
        <ele>3092</ele>
        <time>2025-10-21T20:23:44Z</time>
      </trkpt>
      <trkpt lat="-16.57674" lon="-68.07018">
        <ele>3093</ele>
        <time>2025-10-21T20:23:50Z</time>
      </trkpt>
      <trkpt lat="-16.57678" lon="-68.07018">
        <ele>3093</ele>
        <time>2025-10-21T20:23:56Z</time>
      </trkpt>
      <trkpt lat="-16.57681" lon="-68.07017">
        <ele>3092</ele>
        <time>2025-10-21T20:24:02Z</time>
      </trkpt>
      <trkpt lat="-16.57685" lon="-68.07018">
        <ele>3091</ele>
        <time>2025-10-21T20:24:08Z</time>
      </trkpt>
      <trkpt lat="-16.57689" lon="-68.07019">
        <ele>3090</ele>
        <time>2025-10-21T20:24:14Z</time>
      </trkpt>
      <trkpt lat="-16.57693" lon="-68.07018">
        <ele>3090</ele>
        <time>2025-10-21T20:24:32Z</time>
      </trkpt>
      <trkpt lat="-16.57696" lon="-68.0702">
        <ele>3090</ele>
        <time>2025-10-21T20:24:42Z</time>
      </trkpt>
      <trkpt lat="-16.57699" lon="-68.07022">
        <ele>3091</ele>
        <time>2025-10-21T20:24:50Z</time>
      </trkpt>
      <trkpt lat="-16.57699" lon="-68.07026">
        <ele>3095</ele>
        <time>2025-10-21T20:25:06Z</time>
      </trkpt>
      <trkpt lat="-16.57701" lon="-68.07029">
        <ele>3096</ele>
        <time>2025-10-21T20:25:28Z</time>
      </trkpt>
      <trkpt lat="-16.57705" lon="-68.07032">
        <ele>3097</ele>
        <time>2025-10-21T20:25:32Z</time>
      </trkpt>
      <trkpt lat="-16.57708" lon="-68.07034">
        <ele>3096</ele>
        <time>2025-10-21T20:25:36Z</time>
      </trkpt>
      <trkpt lat="-16.57712" lon="-68.07036">
        <ele>3095</ele>
        <time>2025-10-21T20:25:42Z</time>
      </trkpt>
      <trkpt lat="-16.57714" lon="-68.07039">
        <ele>3095</ele>
        <time>2025-10-21T20:25:48Z</time>
      </trkpt>
      <trkpt lat="-16.57717" lon="-68.07042">
        <ele>3097</ele>
        <time>2025-10-21T20:26:22Z</time>
      </trkpt>
      <trkpt lat="-16.57718" lon="-68.07046">
        <ele>3097</ele>
        <time>2025-10-21T20:26:28Z</time>
      </trkpt>
      <trkpt lat="-16.57729" lon="-68.07056">
        <ele>3098</ele>
        <time>2025-10-21T20:26:46Z</time>
      </trkpt>
      <trkpt lat="-16.57731" lon="-68.07058">
        <ele>3098</ele>
        <time>2025-10-21T20:26:50Z</time>
      </trkpt>
      <trkpt lat="-16.57735" lon="-68.07061">
        <ele>3098</ele>
        <time>2025-10-21T20:26:54Z</time>
      </trkpt>
      <trkpt lat="-16.57737" lon="-68.07064">
        <ele>3098</ele>
        <time>2025-10-21T20:26:58Z</time>
      </trkpt>
      <trkpt lat="-16.57737" lon="-68.07069">
        <ele>3098</ele>
        <time>2025-10-21T20:27:04Z</time>
      </trkpt>
      <trkpt lat="-16.57742" lon="-68.07075">
        <ele>3098</ele>
        <time>2025-10-21T20:27:12Z</time>
      </trkpt>
      <trkpt lat="-16.57744" lon="-68.07082">
        <ele>3098</ele>
        <time>2025-10-21T20:27:28Z</time>
      </trkpt>
      <trkpt lat="-16.57758" lon="-68.071">
        <ele>3099</ele>
        <time>2025-10-21T20:28:04Z</time>
      </trkpt>
      <trkpt lat="-16.57774" lon="-68.07111">
        <ele>3097</ele>
        <time>2025-10-21T20:28:20Z</time>
      </trkpt>
      <trkpt lat="-16.57784" lon="-68.07119">
        <ele>3095</ele>
        <time>2025-10-21T20:28:28Z</time>
      </trkpt>
      <trkpt lat="-16.57793" lon="-68.07124">
        <ele>3092</ele>
        <time>2025-10-21T20:28:36Z</time>
      </trkpt>
      <trkpt lat="-16.57803" lon="-68.07125">
        <ele>3089</ele>
        <time>2025-10-21T20:28:44Z</time>
      </trkpt>
      <trkpt lat="-16.57823" lon="-68.07132">
        <ele>3088</ele>
        <time>2025-10-21T20:29:02Z</time>
      </trkpt>
      <trkpt lat="-16.57832" lon="-68.07126">
        <ele>3088</ele>
        <time>2025-10-21T20:29:10Z</time>
      </trkpt>
      <trkpt lat="-16.57838" lon="-68.07115">
        <ele>3090</ele>
        <time>2025-10-21T20:29:18Z</time>
      </trkpt>
      <trkpt lat="-16.57842" lon="-68.07105">
        <ele>3091</ele>
        <time>2025-10-21T20:29:26Z</time>
      </trkpt>
      <trkpt lat="-16.5785" lon="-68.07098">
        <ele>3093</ele>
        <time>2025-10-21T20:29:36Z</time>
      </trkpt>
      <trkpt lat="-16.57853" lon="-68.07094">
        <ele>3094</ele>
        <time>2025-10-21T20:29:40Z</time>
      </trkpt>
      <trkpt lat="-16.57859" lon="-68.07087">
        <ele>3097</ele>
        <time>2025-10-21T20:29:48Z</time>
      </trkpt>
      <trkpt lat="-16.57862" lon="-68.07081">
        <ele>3096</ele>
        <time>2025-10-21T20:29:52Z</time>
      </trkpt>
      <trkpt lat="-16.57862" lon="-68.07075">
        <ele>3094</ele>
        <time>2025-10-21T20:29:56Z</time>
      </trkpt>
      <trkpt lat="-16.57864" lon="-68.07071">
        <ele>3093</ele>
        <time>2025-10-21T20:30:00Z</time>
      </trkpt>
      <trkpt lat="-16.57868" lon="-68.07074">
        <ele>3093</ele>
        <time>2025-10-21T20:30:08Z</time>
      </trkpt>
      <trkpt lat="-16.57872" lon="-68.07071">
        <ele>3094</ele>
        <time>2025-10-21T20:30:14Z</time>
      </trkpt>
      <trkpt lat="-16.57874" lon="-68.07068">
        <ele>3095</ele>
        <time>2025-10-21T20:30:20Z</time>
      </trkpt>
      <trkpt lat="-16.57878" lon="-68.07067">
        <ele>3095</ele>
        <time>2025-10-21T20:30:26Z</time>
      </trkpt>
      <trkpt lat="-16.57882" lon="-68.07066">
        <ele>3094</ele>
        <time>2025-10-21T20:30:32Z</time>
      </trkpt>
      <trkpt lat="-16.57886" lon="-68.07066">
        <ele>3094</ele>
        <time>2025-10-21T20:30:38Z</time>
      </trkpt>
      <trkpt lat="-16.5789" lon="-68.07068">
        <ele>3094</ele>
        <time>2025-10-21T20:30:44Z</time>
      </trkpt>
      <trkpt lat="-16.57894" lon="-68.07067">
        <ele>3094</ele>
        <time>2025-10-21T20:30:50Z</time>
      </trkpt>
      <trkpt lat="-16.57897" lon="-68.0707">
        <ele>3094</ele>
        <time>2025-10-21T20:31:00Z</time>
      </trkpt>
      <trkpt lat="-16.57899" lon="-68.07074">
        <ele>3095</ele>
        <time>2025-10-21T20:31:14Z</time>
      </trkpt>
      <trkpt lat="-16.57901" lon="-68.07079">
        <ele>3094</ele>
        <time>2025-10-21T20:31:20Z</time>
      </trkpt>
      <trkpt lat="-16.57903" lon="-68.07083">
        <ele>3094</ele>
        <time>2025-10-21T20:31:38Z</time>
      </trkpt>
      <trkpt lat="-16.57919" lon="-68.07097">
        <ele>3095</ele>
        <time>2025-10-21T20:32:04Z</time>
      </trkpt>
      <trkpt lat="-16.5792" lon="-68.07102">
        <ele>3097</ele>
        <time>2025-10-21T20:32:10Z</time>
      </trkpt>
      <trkpt lat="-16.57924" lon="-68.07106">
        <ele>3096</ele>
        <time>2025-10-21T20:32:16Z</time>
      </trkpt>
      <trkpt lat="-16.57928" lon="-68.07107">
        <ele>3097</ele>
        <time>2025-10-21T20:32:22Z</time>
      </trkpt>
      <trkpt lat="-16.57932" lon="-68.07109">
        <ele>3098</ele>
        <time>2025-10-21T20:32:28Z</time>
      </trkpt>
      <trkpt lat="-16.57934" lon="-68.07112">
        <ele>3099</ele>
        <time>2025-10-21T20:32:32Z</time>
      </trkpt>
      <trkpt lat="-16.57935" lon="-68.07117">
        <ele>3099</ele>
        <time>2025-10-21T20:32:38Z</time>
      </trkpt>
      <trkpt lat="-16.57937" lon="-68.07122">
        <ele>3099</ele>
        <time>2025-10-21T20:32:44Z</time>
      </trkpt>
      <trkpt lat="-16.5794" lon="-68.07125">
        <ele>3099</ele>
        <time>2025-10-21T20:32:48Z</time>
      </trkpt>
      <trkpt lat="-16.57947" lon="-68.07129">
        <ele>3100</ele>
        <time>2025-10-21T20:32:56Z</time>
      </trkpt>
      <trkpt lat="-16.57951" lon="-68.07131">
        <ele>3101</ele>
        <time>2025-10-21T20:33:02Z</time>
      </trkpt>
      <trkpt lat="-16.57956" lon="-68.07133">
        <ele>3103</ele>
        <time>2025-10-21T20:33:08Z</time>
      </trkpt>
      <trkpt lat="-16.57957" lon="-68.07136">
        <ele>3105</ele>
        <time>2025-10-21T20:33:26Z</time>
      </trkpt>
      <trkpt lat="-16.57953" lon="-68.07138">
        <ele>3105</ele>
        <time>2025-10-21T20:33:54Z</time>
      </trkpt>
      <trkpt lat="-16.5795" lon="-68.0714">
        <ele>3105</ele>
        <time>2025-10-21T20:33:58Z</time>
      </trkpt>
      <trkpt lat="-16.57934" lon="-68.07142">
        <ele>3101</ele>
        <time>2025-10-21T20:34:20Z</time>
      </trkpt>
      <trkpt lat="-16.57931" lon="-68.07144">
        <ele>3100</ele>
        <time>2025-10-21T20:34:24Z</time>
      </trkpt>
      <trkpt lat="-16.57912" lon="-68.07153">
        <ele>3100</ele>
        <time>2025-10-21T20:34:46Z</time>
      </trkpt>
      <trkpt lat="-16.57908" lon="-68.07153">
        <ele>3101</ele>
        <time>2025-10-21T20:34:52Z</time>
      </trkpt>
      <trkpt lat="-16.5789" lon="-68.07154">
        <ele>3103</ele>
        <time>2025-10-21T20:35:16Z</time>
      </trkpt>
      <trkpt lat="-16.5788" lon="-68.07154">
        <ele>3105</ele>
        <time>2025-10-21T20:35:32Z</time>
      </trkpt>
      <trkpt lat="-16.57871" lon="-68.07153">
        <ele>3108</ele>
        <time>2025-10-21T20:35:46Z</time>
      </trkpt>
      <trkpt lat="-16.57862" lon="-68.07151">
        <ele>3109</ele>
        <time>2025-10-21T20:36:00Z</time>
      </trkpt>
      <trkpt lat="-16.57855" lon="-68.07158">
        <ele>3114</ele>
        <time>2025-10-21T20:36:52Z</time>
      </trkpt>
      <trkpt lat="-16.57856" lon="-68.07169">
        <ele>3114</ele>
        <time>2025-10-21T20:37:04Z</time>
      </trkpt>
      <trkpt lat="-16.57865" lon="-68.07172">
        <ele>3113</ele>
        <time>2025-10-21T20:37:14Z</time>
      </trkpt>
      <trkpt lat="-16.57874" lon="-68.07174">
        <ele>3114</ele>
        <time>2025-10-21T20:37:24Z</time>
      </trkpt>
      <trkpt lat="-16.57885" lon="-68.07175">
        <ele>3118</ele>
        <time>2025-10-21T20:37:34Z</time>
      </trkpt>
      <trkpt lat="-16.57894" lon="-68.07176">
        <ele>3122</ele>
        <time>2025-10-21T20:37:44Z</time>
      </trkpt>
      <trkpt lat="-16.57904" lon="-68.07178">
        <ele>3125</ele>
        <time>2025-10-21T20:37:56Z</time>
      </trkpt>
      <trkpt lat="-16.57927" lon="-68.07185">
        <ele>3129</ele>
        <time>2025-10-21T20:38:26Z</time>
      </trkpt>
      <trkpt lat="-16.57932" lon="-68.07187">
        <ele>3130</ele>
        <time>2025-10-21T20:38:32Z</time>
      </trkpt>
      <trkpt lat="-16.57935" lon="-68.07189">
        <ele>3131</ele>
        <time>2025-10-21T20:38:38Z</time>
      </trkpt>
      <trkpt lat="-16.57938" lon="-68.07191">
        <ele>3133</ele>
        <time>2025-10-21T20:38:42Z</time>
      </trkpt>
      <trkpt lat="-16.57941" lon="-68.07195">
        <ele>3135</ele>
        <time>2025-10-21T20:38:48Z</time>
      </trkpt>
      <trkpt lat="-16.57944" lon="-68.07204">
        <ele>3138</ele>
        <time>2025-10-21T20:38:58Z</time>
      </trkpt>
      <trkpt lat="-16.57943" lon="-68.07226">
        <ele>3140</ele>
        <time>2025-10-21T20:39:24Z</time>
      </trkpt>
      <trkpt lat="-16.57941" lon="-68.07235">
        <ele>3142</ele>
        <time>2025-10-21T20:39:36Z</time>
      </trkpt>
      <trkpt lat="-16.57939" lon="-68.0724">
        <ele>3142</ele>
        <time>2025-10-21T20:39:42Z</time>
      </trkpt>
      <trkpt lat="-16.57936" lon="-68.07246">
        <ele>3140</ele>
        <time>2025-10-21T20:39:52Z</time>
      </trkpt>
      <trkpt lat="-16.57935" lon="-68.07251">
        <ele>3140</ele>
        <time>2025-10-21T20:39:58Z</time>
      </trkpt>
      <trkpt lat="-16.57938" lon="-68.07263">
        <ele>3140</ele>
        <time>2025-10-21T20:40:14Z</time>
      </trkpt>
      <trkpt lat="-16.57941" lon="-68.07265">
        <ele>3140</ele>
        <time>2025-10-21T20:40:18Z</time>
      </trkpt>
      <trkpt lat="-16.57945" lon="-68.07268">
        <ele>3141</ele>
        <time>2025-10-21T20:40:24Z</time>
      </trkpt>
      <trkpt lat="-16.57956" lon="-68.07282">
        <ele>3145</ele>
        <time>2025-10-21T20:40:42Z</time>
      </trkpt>
      <trkpt lat="-16.57961" lon="-68.07289">
        <ele>3147</ele>
        <time>2025-10-21T20:40:54Z</time>
      </trkpt>
      <trkpt lat="-16.57964" lon="-68.07297">
        <ele>3147</ele>
        <time>2025-10-21T20:41:02Z</time>
      </trkpt>
      <trkpt lat="-16.57977" lon="-68.07314">
        <ele>3148</ele>
        <time>2025-10-21T20:41:22Z</time>
      </trkpt>
      <trkpt lat="-16.57983" lon="-68.07325">
        <ele>3147</ele>
        <time>2025-10-21T20:41:34Z</time>
      </trkpt>
      <trkpt lat="-16.57987" lon="-68.07339">
        <ele>3147</ele>
        <time>2025-10-21T20:41:46Z</time>
      </trkpt>
      <trkpt lat="-16.57995" lon="-68.07352">
        <ele>3149</ele>
        <time>2025-10-21T20:42:00Z</time>
      </trkpt>
      <trkpt lat="-16.57997" lon="-68.0736">
        <ele>3148</ele>
        <time>2025-10-21T20:42:08Z</time>
      </trkpt>
      <trkpt lat="-16.57999" lon="-68.07364">
        <ele>3149</ele>
        <time>2025-10-21T20:42:12Z</time>
      </trkpt>
      <trkpt lat="-16.58003" lon="-68.07363">
        <ele>3149</ele>
        <time>2025-10-21T20:42:14Z</time>
      </trkpt>
      <trkpt lat="-16.58006" lon="-68.07373">
        <ele>3148</ele>
        <time>2025-10-21T20:43:20Z</time>
      </trkpt>
      <trkpt lat="-16.58015" lon="-68.0737">
        <ele>3148</ele>
        <time>2025-10-21T20:43:26Z</time>
      </trkpt>
      <trkpt lat="-16.58024" lon="-68.07373">
        <ele>3149</ele>
        <time>2025-10-21T20:43:36Z</time>
      </trkpt>
      <trkpt lat="-16.58053" lon="-68.07383">
        <ele>3155</ele>
        <time>2025-10-21T20:44:08Z</time>
      </trkpt>
      <trkpt lat="-16.58059" lon="-68.0739">
        <ele>3154</ele>
        <time>2025-10-21T20:44:20Z</time>
      </trkpt>
      <trkpt lat="-16.58061" lon="-68.07398">
        <ele>3152</ele>
        <time>2025-10-21T20:44:38Z</time>
      </trkpt>
      <trkpt lat="-16.58063" lon="-68.07403">
        <ele>3151</ele>
        <time>2025-10-21T20:44:44Z</time>
      </trkpt>
      <trkpt lat="-16.58067" lon="-68.07412">
        <ele>3152</ele>
        <time>2025-10-21T20:44:56Z</time>
      </trkpt>
      <trkpt lat="-16.5807" lon="-68.07419">
        <ele>3153</ele>
        <time>2025-10-21T20:45:04Z</time>
      </trkpt>
      <trkpt lat="-16.58087" lon="-68.07439">
        <ele>3156</ele>
        <time>2025-10-21T20:45:28Z</time>
      </trkpt>
      <trkpt lat="-16.58093" lon="-68.07444">
        <ele>3155</ele>
        <time>2025-10-21T20:45:36Z</time>
      </trkpt>
      <trkpt lat="-16.58097" lon="-68.07447">
        <ele>3155</ele>
        <time>2025-10-21T20:45:40Z</time>
      </trkpt>
      <trkpt lat="-16.58105" lon="-68.0745">
        <ele>3156</ele>
        <time>2025-10-21T20:45:48Z</time>
      </trkpt>
      <trkpt lat="-16.58108" lon="-68.07455">
        <ele>3155</ele>
        <time>2025-10-21T20:46:15Z</time>
      </trkpt>
      <trkpt lat="-16.5811" lon="-68.07459">
        <ele>3156</ele>
        <time>2025-10-21T20:46:27Z</time>
      </trkpt>
      <trkpt lat="-16.58109" lon="-68.07463">
        <ele>3157</ele>
        <time>2025-10-21T20:46:31Z</time>
      </trkpt>
      <trkpt lat="-16.58105" lon="-68.07463">
        <ele>3157</ele>
        <time>2025-10-21T20:46:35Z</time>
      </trkpt>
      <trkpt lat="-16.58089" lon="-68.07449">
        <ele>3160</ele>
        <time>2025-10-21T20:46:58Z</time>
      </trkpt>
      <trkpt lat="-16.58086" lon="-68.07447">
        <ele>3162</ele>
        <time>2025-10-21T20:47:04Z</time>
      </trkpt>
      <trkpt lat="-16.58073" lon="-68.07442">
        <ele>3165</ele>
        <time>2025-10-21T20:47:22Z</time>
      </trkpt>
      <trkpt lat="-16.58069" lon="-68.0744">
        <ele>3167</ele>
        <time>2025-10-21T20:47:28Z</time>
      </trkpt>
      <trkpt lat="-16.58067" lon="-68.07438">
        <ele>3167</ele>
        <time>2025-10-21T20:47:32Z</time>
      </trkpt>
      <trkpt lat="-16.5806" lon="-68.07432">
        <ele>3169</ele>
        <time>2025-10-21T20:47:44Z</time>
      </trkpt>
      <trkpt lat="-16.58058" lon="-68.07428">
        <ele>3170</ele>
        <time>2025-10-21T20:47:50Z</time>
      </trkpt>
      <trkpt lat="-16.58055" lon="-68.07424">
        <ele>3171</ele>
        <time>2025-10-21T20:47:56Z</time>
      </trkpt>
      <trkpt lat="-16.58051" lon="-68.07423">
        <ele>3172</ele>
        <time>2025-10-21T20:48:00Z</time>
      </trkpt>
      <trkpt lat="-16.58048" lon="-68.07423">
        <ele>3172</ele>
        <time>2025-10-21T20:48:04Z</time>
      </trkpt>
      <trkpt lat="-16.58046" lon="-68.07426">
        <ele>3172</ele>
        <time>2025-10-21T20:48:08Z</time>
      </trkpt>
      <trkpt lat="-16.58046" lon="-68.07431">
        <ele>3172</ele>
        <time>2025-10-21T20:48:14Z</time>
      </trkpt>
      <trkpt lat="-16.58048" lon="-68.07435">
        <ele>3173</ele>
        <time>2025-10-21T20:48:18Z</time>
      </trkpt>
      <trkpt lat="-16.5805" lon="-68.07438">
        <ele>3173</ele>
        <time>2025-10-21T20:48:22Z</time>
      </trkpt>
      <trkpt lat="-16.58053" lon="-68.07442">
        <ele>3173</ele>
        <time>2025-10-21T20:48:28Z</time>
      </trkpt>
      <trkpt lat="-16.58055" lon="-68.07447">
        <ele>3172</ele>
        <time>2025-10-21T20:48:34Z</time>
      </trkpt>
      <trkpt lat="-16.58058" lon="-68.0745">
        <ele>3172</ele>
        <time>2025-10-21T20:48:38Z</time>
      </trkpt>
      <trkpt lat="-16.58063" lon="-68.07456">
        <ele>3173</ele>
        <time>2025-10-21T20:48:46Z</time>
      </trkpt>
      <trkpt lat="-16.58065" lon="-68.0746">
        <ele>3174</ele>
        <time>2025-10-21T20:49:32Z</time>
      </trkpt>
      <trkpt lat="-16.5807" lon="-68.07466">
        <ele>3173</ele>
        <time>2025-10-21T20:49:40Z</time>
      </trkpt>
      <trkpt lat="-16.58071" lon="-68.0747">
        <ele>3174</ele>
        <time>2025-10-21T20:49:44Z</time>
      </trkpt>
      <trkpt lat="-16.58071" lon="-68.07475">
        <ele>3174</ele>
        <time>2025-10-21T20:49:48Z</time>
      </trkpt>
      <trkpt lat="-16.58066" lon="-68.07493">
        <ele>3179</ele>
        <time>2025-10-21T20:50:10Z</time>
      </trkpt>
      <trkpt lat="-16.58048" lon="-68.07506">
        <ele>3178</ele>
        <time>2025-10-21T20:50:40Z</time>
      </trkpt>
      <trkpt lat="-16.58036" lon="-68.07517">
        <ele>3182</ele>
        <time>2025-10-21T20:51:02Z</time>
      </trkpt>
      <trkpt lat="-16.58033" lon="-68.07521">
        <ele>3182</ele>
        <time>2025-10-21T20:51:08Z</time>
      </trkpt>
      <trkpt lat="-16.58031" lon="-68.07525">
        <ele>3182</ele>
        <time>2025-10-21T20:51:12Z</time>
      </trkpt>
      <trkpt lat="-16.58031" lon="-68.07529">
        <ele>3183</ele>
        <time>2025-10-21T20:51:16Z</time>
      </trkpt>
      <trkpt lat="-16.5803" lon="-68.07532">
        <ele>3185</ele>
        <time>2025-10-21T20:51:20Z</time>
      </trkpt>
      <trkpt lat="-16.58027" lon="-68.07541">
        <ele>3188</ele>
        <time>2025-10-21T20:51:30Z</time>
      </trkpt>
      <trkpt lat="-16.58024" lon="-68.07545">
        <ele>3189</ele>
        <time>2025-10-21T20:51:36Z</time>
      </trkpt>
      <trkpt lat="-16.58021" lon="-68.07559">
        <ele>3188</ele>
        <time>2025-10-21T20:51:52Z</time>
      </trkpt>
      <trkpt lat="-16.58022" lon="-68.07562">
        <ele>3190</ele>
        <time>2025-10-21T20:51:56Z</time>
      </trkpt>
      <trkpt lat="-16.58025" lon="-68.07565">
        <ele>3191</ele>
        <time>2025-10-21T20:52:00Z</time>
      </trkpt>
      <trkpt lat="-16.58034" lon="-68.07576">
        <ele>3194</ele>
        <time>2025-10-21T20:52:16Z</time>
      </trkpt>
      <trkpt lat="-16.58046" lon="-68.07583">
        <ele>3197</ele>
        <time>2025-10-21T20:52:34Z</time>
      </trkpt>
      <trkpt lat="-16.58069" lon="-68.07591">
        <ele>3204</ele>
        <time>2025-10-21T20:53:04Z</time>
      </trkpt>
      <trkpt lat="-16.58073" lon="-68.07592">
        <ele>3204</ele>
        <time>2025-10-21T20:53:10Z</time>
      </trkpt>
      <trkpt lat="-16.5809" lon="-68.07592">
        <ele>3206</ele>
        <time>2025-10-21T20:53:30Z</time>
      </trkpt>
      <trkpt lat="-16.58114" lon="-68.07603">
        <ele>3207</ele>
        <time>2025-10-21T20:54:00Z</time>
      </trkpt>
      <trkpt lat="-16.58124" lon="-68.07608">
        <ele>3207</ele>
        <time>2025-10-21T20:54:12Z</time>
      </trkpt>
      <trkpt lat="-16.58126" lon="-68.07611">
        <ele>3208</ele>
        <time>2025-10-21T20:54:16Z</time>
      </trkpt>
      <trkpt lat="-16.58157" lon="-68.07631">
        <ele>3206</ele>
        <time>2025-10-21T20:54:48Z</time>
      </trkpt>
      <trkpt lat="-16.5818" lon="-68.0764">
        <ele>3206</ele>
        <time>2025-10-21T20:55:08Z</time>
      </trkpt>
      <trkpt lat="-16.58208" lon="-68.07645">
        <ele>3207</ele>
        <time>2025-10-21T20:55:32Z</time>
      </trkpt>
      <trkpt lat="-16.58212" lon="-68.07655">
        <ele>3207</ele>
        <time>2025-10-21T20:55:44Z</time>
      </trkpt>
      <trkpt lat="-16.58211" lon="-68.07687">
        <ele>3211</ele>
        <time>2025-10-21T20:56:14Z</time>
      </trkpt>
      <trkpt lat="-16.58213" lon="-68.0769">
        <ele>3212</ele>
        <time>2025-10-21T20:56:18Z</time>
      </trkpt>
      <trkpt lat="-16.58212" lon="-68.07698">
        <ele>3213</ele>
        <time>2025-10-21T20:56:26Z</time>
      </trkpt>
      <trkpt lat="-16.58214" lon="-68.0771">
        <ele>3214</ele>
        <time>2025-10-21T20:56:38Z</time>
      </trkpt>
      <trkpt lat="-16.58215" lon="-68.0773">
        <ele>3215</ele>
        <time>2025-10-21T20:56:58Z</time>
      </trkpt>
      <trkpt lat="-16.58215" lon="-68.0774">
        <ele>3217</ele>
        <time>2025-10-21T20:57:10Z</time>
      </trkpt>
      <trkpt lat="-16.58216" lon="-68.07744">
        <ele>3217</ele>
        <time>2025-10-21T20:57:14Z</time>
      </trkpt>
      <trkpt lat="-16.58217" lon="-68.07748">
        <ele>3218</ele>
        <time>2025-10-21T20:57:18Z</time>
      </trkpt>
      <trkpt lat="-16.58218" lon="-68.07752">
        <ele>3218</ele>
        <time>2025-10-21T20:57:22Z</time>
      </trkpt>
      <trkpt lat="-16.58218" lon="-68.07779">
        <ele>3221</ele>
        <time>2025-10-21T20:57:54Z</time>
      </trkpt>
      <trkpt lat="-16.58218" lon="-68.07789">
        <ele>3224</ele>
        <time>2025-10-21T20:58:06Z</time>
      </trkpt>
      <trkpt lat="-16.58217" lon="-68.07798">
        <ele>3225</ele>
        <time>2025-10-21T20:58:18Z</time>
      </trkpt>
      <trkpt lat="-16.58217" lon="-68.07825">
        <ele>3229</ele>
        <time>2025-10-21T20:58:50Z</time>
      </trkpt>
      <trkpt lat="-16.58217" lon="-68.07833">
        <ele>3231</ele>
        <time>2025-10-21T20:59:02Z</time>
      </trkpt>
      <trkpt lat="-16.58216" lon="-68.07842">
        <ele>3233</ele>
        <time>2025-10-21T20:59:12Z</time>
      </trkpt>
      <trkpt lat="-16.58217" lon="-68.07846">
        <ele>3233</ele>
        <time>2025-10-21T20:59:16Z</time>
      </trkpt>
      <trkpt lat="-16.58217" lon="-68.07863">
        <ele>3234</ele>
        <time>2025-10-21T20:59:32Z</time>
      </trkpt>
      <trkpt lat="-16.58217" lon="-68.07867">
        <ele>3234</ele>
        <time>2025-10-21T20:59:36Z</time>
      </trkpt>
      <trkpt lat="-16.58217" lon="-68.07873">
        <ele>3234</ele>
        <time>2025-10-21T20:59:40Z</time>
      </trkpt>
      <trkpt lat="-16.58218" lon="-68.07877">
        <ele>3234</ele>
        <time>2025-10-21T20:59:46Z</time>
      </trkpt>
      <trkpt lat="-16.58217" lon="-68.07885">
        <ele>3234</ele>
        <time>2025-10-21T20:59:56Z</time>
      </trkpt>
      <trkpt lat="-16.58217" lon="-68.07894">
        <ele>3237</ele>
        <time>2025-10-21T21:00:06Z</time>
      </trkpt>
      <trkpt lat="-16.58217" lon="-68.07902">
        <ele>3237</ele>
        <time>2025-10-21T21:00:14Z</time>
      </trkpt>
      <trkpt lat="-16.58218" lon="-68.07907">
        <ele>3237</ele>
        <time>2025-10-21T21:00:18Z</time>
      </trkpt>
      <trkpt lat="-16.58218" lon="-68.07917">
        <ele>3236</ele>
        <time>2025-10-21T21:00:26Z</time>
      </trkpt>
      <trkpt lat="-16.58198" lon="-68.07946">
        <ele>3234</ele>
        <time>2025-10-21T21:00:58Z</time>
      </trkpt>
    </trkseg>
  </trk>
</gpx>